[[{"header":{"parameterUnit":"m.s-1","parameterCategory":1,"la1":30.6,"la2":28.766,"lo1":-90.7593,"lo2":-88.6598,"dy":0.0162,"dx":0.0183,"nx":116,"ny":114,"refTime":"2024-02-07T18:00:00:Z","depth":0,"parameterNumber":2,"parameterNumberName":"U-component_of_WINDS"},"data":[0.0,0.0,0.0,0.0,0.0,0.0,0.0,0.0,0.0,0.0,0.0,0.0,0.0,0.0,0.0,0.0,0.0,0.0,0.0,0.0,0.0,0.0,0.0,0.0,0.0,0.0,0.0,0.0,0.0,0.0,0.0,0.0,0.0,0.0,0.0,0.0,0.0,0.0,0.0,0.0,0.0,0.0,0.0,0.0,0.0,0.0,0.0,0.0,0.0,0.0,0.0,0.0,0.0,0.0,0.0,0.0,0.0,0.0,0.0,0.0,0.0,0.0,0.0,0.0,0.0,0.0,0.0,0.0,0.0,0.0,0.0,0.0,0.0,0.0,0.0,0.0,0.0,0.0,0.0,0.0,0.0,0.0,0.0,0.0,0.0,0.0,0.0,0.0,0.0,0.0,0.0,0.0,0.0,0.0,0.0,0.0,0.0,0.0,0.0,0.0,0.0,0.0,0.0,0.0,0.0,0.0,0.0,0.0,0.0,0.0,0.0,0.0,0.0,0.0,0.0,0.0,0.0,0.0,0.0,0.0,0.0,0.0,0.0,0.0,0.0,0.0,0.0,0.0,0.0,0.0,0.0,0.0,0.0,0.0,0.0,0.0,0.0,0.0,0.0,0.0,0.0,0.0,0.0,0.0,0.0,0.0,0.0,0.0,0.0,0.0,0.0,0.0,0.0,0.0,0.0,0.0,0.0,0.0,0.0,0.0,0.0,0.0,0.0,0.0,0.0,0.0,0.0,0.0,0.0,0.0,0.0,0.0,0.0,0.0,0.0,0.0,0.0,0.0,0.0,0.0,0.0,0.0,0.0,0.0,0.0,0.0,0.0,0.0,0.0,0.0,0.0,0.0,0.0,0.0,0.0,0.0,0.0,0.0,0.0,0.0,0.0,0.0,0.0,0.0,0.0,0.0,0.0,0.0,0.0,0.0,0.0,0.0,0.0,0.0,0.0,0.0,0.0,0.0,0.0,0.0,0.0,0.0,0.0,0.0,0.0,0.0,0.0,0.0,0.0,0.0,0.0,0.0,0.0,0.0,0.0,0.0,0.0,0.0,0.0,0.0,0.0,0.0,0.0,0.0,0.0,0.0,0.0,0.0,0.0,0.0,0.0,0.0,0.0,0.0,0.0,0.0,0.0,0.0,0.0,0.0,0.0,0.0,0.0,0.0,0.0,0.0,0.0,0.0,0.0,0.0,0.0,0.0,0.0,0.0,0.0,0.0,0.0,0.0,0.0,0.0,0.0,0.0,0.0,0.0,0.0,0.0,0.0,0.0,0.0,0.0,0.0,0.0,0.0,0.0,0.0,0.0,0.0,0.0,0.0,0.0,0.0,0.0,0.0,0.0,0.0,0.0,0.0,0.0,0.0,0.0,0.0,0.0,0.0,0.0,0.0,0.0,0.0,0.0,0.0,0.0,0.0,0.0,0.0,0.0,0.0,0.0,0.0,0.0,0.0,0.0,0.0,0.0,0.0,0.0,0.0,0.0,0.0,0.0,0.0,0.0,0.0,0.0,0.0,0.0,0.0,0.0,0.0,0.0,0.0,0.0,0.0,0.0,0.0,0.0,0.0,0.0,0.0,0.0,0.0,0.0,0.0,0.0,0.0,0.0,0.0,0.0,0.0,0.0,0.0,0.0,0.0,0.0,0.0,0.0,0.0,0.0,0.0,0.0,0.0,0.0,0.0,0.0,0.0,0.0,0.0,0.0,0.0,0.0,0.0,0.0,0.0,0.0,0.0,0.0,0.0,0.0,0.0,0.0,0.0,0.0,0.0,0.0,0.0,0.0,0.0,0.0,0.0,0.0,0.0,0.0,0.0,0.0,0.0,0.0,0.0,0.0,0.0,0.0,0.0,0.0,0.0,0.0,0.0,0.0,0.0,0.0,0.0,0.0,0.0,0.0,0.0,0.0,0.0,0.0,0.0,0.0,0.0,0.0,0.0,0.0,0.0,0.0,0.0,0.0,0.0,0.0,0.0,0.0,0.0,0.0,0.0,0.0,0.0,0.0,0.0,0.0,0.0,0.0,0.0,0.0,0.0,0.0,0.0,0.0,0.0,0.0,0.0,0.0,0.0,0.0,0.0,0.0,0.0,0.0,0.0,0.0,0.0,0.0,0.0,0.0,0.0,0.0,0.0,0.0,0.0,0.0,0.0,0.0,0.0,0.0,0.0,0.0,0.0,0.0,0.0,0.0,0.0,0.0,0.0,0.0,0.0,0.0,0.0,0.0,0.0,0.0,0.0,0.0,0.0,0.0,0.0,0.0,0.0,0.0,0.0,0.0,0.0,0.0,0.0,0.0,0.0,0.0,0.0,0.0,0.0,0.0,0.0,0.0,0.0,0.0,0.0,0.0,0.0,0.0,0.0,0.0,0.0,0.0,0.0,0.0,0.0,0.0,0.0,0.0,0.0,0.0,0.0,0.0,0.0,0.0,0.0,0.0,0.0,0.0,0.0,0.0,0.0,0.0,0.0,0.0,0.0,0.0,0.0,0.0,0.0,0.0,0.0,0.0,0.0,0.0,0.0,0.0,0.0,0.0,0.0,0.0,0.0,0.0,0.0,0.0,0.0,0.0,0.0,0.0,0.0,0.0,0.0,0.0,0.0,0.0,0.0,0.0,0.0,0.0,0.0,0.0,0.0,0.0,0.0,0.0,0.0,0.0,0.0,0.0,0.0,0.0,0.0,0.0,0.0,0.0,0.0,0.0,0.0,0.0,0.0,0.0,0.0,0.0,0.0,0.0,0.0,0.0,0.0,0.0,0.0,0.0,0.0,0.0,0.0,0.0,0.0,0.0,0.0,0.0,0.0,0.0,0.0,0.0,0.0,0.0,0.0,0.0,0.0,0.0,0.0,0.0,0.0,0.0,0.0,0.0,0.0,0.0,0.0,0.0,0.0,0.0,0.0,0.0,0.0,0.0,0.0,0.0,0.0,0.0,0.0,0.0,0.0,0.0,0.0,0.0,0.0,0.0,0.0,0.0,0.0,0.0,0.0,0.0,0.0,0.0,0.0,0.0,0.0,0.0,0.0,0.0,0.0,0.0,0.0,0.0,0.0,0.0,0.0,0.0,0.0,0.0,0.0,0.0,0.0,0.0,0.0,0.0,0.0,0.0,0.0,0.0,0.0,0.0,0.0,0.0,0.0,0.0,0.0,0.0,0.0,0.0,0.0,0.0,0.0,0.0,0.0,0.0,0.0,0.0,0.0,0.0,0.0,0.0,0.0,0.0,0.0,0.0,0.0,0.0,0.0,0.0,0.0,0.0,0.0,0.0,0.0,0.0,0.0,0.0,0.0,0.0,0.0,0.0,0.0,0.0,0.0,0.0,0.0,0.0,0.0,0.0,0.0,0.0,0.0,0.0,0.0,0.0,0.0,0.0,0.0,0.0,0.0,0.0,0.0,0.0,0.0,0.0,0.0,0.0,0.0,0.0,0.0,0.0,0.0,0.0,0.0,0.0,0.0,0.0,0.0,0.0,0.0,0.0,0.0,0.0,0.0,0.0,0.0,0.0,0.0,0.0,0.0,0.0,0.0,0.0,0.0,0.0,0.0,0.0,0.0,0.0,0.0,0.0,0.0,0.0,0.0,0.0,0.0,0.0,0.0,0.0,0.0,0.0,0.0,0.0,0.0,0.0,0.0,0.0,0.0,0.0,0.0,0.0,0.0,0.0,0.0,0.0,0.0,0.0,0.0,0.0,0.0,0.0,0.0,0.0,0.0,0.0,0.0,0.0,0.0,0.0,0.0,0.0,0.0,0.0,0.0,0.0,0.0,0.0,0.0,0.0,0.0,0.0,0.0,0.0,0.0,0.0,0.0,0.0,0.0,0.0,0.0,0.0,0.0,0.0,0.0,0.0,0.0,0.0,0.0,0.0,0.0,0.0,0.0,0.0,0.0,0.0,0.0,0.0,0.0,0.0,0.0,0.0,0.0,0.0,0.0,0.0,0.0,0.0,0.0,0.0,0.0,0.0,0.0,0.0,0.0,0.0,0.0,0.0,0.0,0.0,0.0,0.0,0.0,0.0,0.0,0.0,0.0,0.0,0.0,0.0,0.0,0.0,0.0,0.0,0.0,0.0,0.0,0.0,0.0,0.0,0.0,0.0,0.0,0.0,0.0,0.0,0.0,0.0,0.0,0.0,0.0,0.0,0.0,0.0,0.0,0.0,0.0,0.0,0.0,0.0,0.0,0.0,0.0,0.0,0.0,0.0,0.0,0.0,0.0,0.0,0.0,0.0,0.0,0.0,0.0,0.0,0.0,0.0,0.0,0.0,0.0,0.0,0.0,0.0,0.0,0.0,0.0,0.0,0.0,0.0,0.0,0.0,0.0,0.0,0.0,0.0,0.0,0.0,0.0,0.0,0.0,0.0,0.0,0.0,0.0,0.0,0.0,0.0,0.0,0.0,0.0,0.0,0.0,0.0,0.0,0.0,0.0,0.0,0.0,0.0,0.0,0.0,0.0,0.0,0.0,0.0,0.0,0.0,0.0,0.0,0.0,0.0,0.0,0.0,0.0,0.0,0.0,0.0,0.0,0.0,0.0,0.0,0.0,0.0,0.0,0.0,0.0,0.0,0.0,0.0,0.0,0.0,0.0,0.0,0.0,0.0,0.0,0.0,0.0,0.0,0.0,0.0,0.0,0.0,0.0,0.0,0.0,0.0,0.0,0.0,0.0,0.0,0.0,0.0,0.0,0.0,0.0,0.0,0.0,0.0,0.0,0.0,0.0,0.0,0.0,0.0,0.0,0.0,0.0,0.0,0.0,0.0,0.0,0.0,0.0,0.0,0.0,0.0,0.0,0.0,0.0,0.0,0.0,0.0,0.0,0.0,0.0,0.0,0.0,0.0,0.0,0.0,0.0,0.0,0.0,0.0,0.0,0.0,0.0,0.0,0.0,0.0,0.0,0.0,0.0,0.0,0.0,0.0,0.0,0.0,0.0,0.0,0.0,0.0,0.0,0.0,0.0,0.0,0.0,0.0,0.0,0.0,0.0,0.0,0.0,0.0,0.0,0.0,0.0,0.0,0.0,0.0,0.0,0.0,0.0,0.0,0.0,0.0,0.0,0.0,0.0,0.0,0.0,0.0,0.0,0.0,0.0,0.0,0.0,0.0,0.0,0.0,0.0,0.0,0.0,0.0,0.0,0.0,0.0,0.0,0.0,0.0,0.0,0.0,0.0,0.0,0.0,0.0,0.0,0.0,0.0,0.0,0.0,0.0,0.0,0.0,0.0,0.0,0.0,0.0,0.0,0.0,0.0,0.0,0.0,0.0,0.0,0.0,0.0,0.0,0.0,0.0,0.0,0.0,0.0,0.0,0.0,0.0,0.0,0.0,0.0,0.0,0.0,0.0,0.0,0.0,0.0,0.0,0.0,0.0,0.0,0.0,0.0,0.0,0.0,0.0,0.0,0.0,0.0,0.0,0.0,0.0,0.0,0.0,0.0,0.0,0.0,0.0,0.0,0.0,0.0,0.0,0.0,0.0,0.0,0.0,0.0,0.0,0.0,0.0,0.0,0.0,0.0,0.0,0.0,0.0,0.0,0.0,0.0,0.0,0.0,0.0,0.0,0.0,0.0,0.0,0.0,0.0,0.0,0.0,0.0,0.0,0.0,0.0,0.0,0.0,0.0,0.0,0.0,0.0,0.0,0.0,0.0,0.0,0.0,0.0,0.0,0.0,0.0,0.0,0.0,0.0,0.0,0.0,0.0,0.0,0.0,0.0,0.0,0.0,0.0,0.0,0.0,0.0,0.0,0.0,0.0,0.0,0.0,0.0,0.0,0.0,0.0,0.0,0.0,0.0,0.0,0.0,0.0,0.0,0.0,0.0,0.0,0.0,0.0,0.0,0.0,0.0,0.0,0.0,0.0,0.0,0.0,0.0,0.0,0.0,0.0,0.0,0.0,0.0,0.0,0.0,0.0,0.0,0.0,0.0,0.0,0.0,0.0,0.0,0.0,0.0,0.0,0.0,0.0,0.0,0.0,0.0,0.0,0.0,0.0,0.0,0.0,0.0,0.0,0.0,0.0,0.0,0.0,0.0,0.0,0.0,0.0,0.0,0.0,0.0,0.0,0.0,0.0,0.0,0.0,0.0,0.0,0.0,-3.7455,-3.8057,0.0,0.0,0.0,0.0,0.0,0.0,0.0,0.0,0.0,0.0,0.0,0.0,0.0,0.0,0.0,0.0,0.0,0.0,0.0,0.0,0.0,0.0,0.0,0.0,0.0,0.0,0.0,0.0,0.0,0.0,0.0,0.0,0.0,0.0,-2.7797,-2.7597,-2.7766,-2.8351,-2.873,-2.9868,-3.1731,-3.2869,-3.28,-3.18,0.0,0.0,0.0,0.0,0.0,0.0,0.0,0.0,0.0,0.0,0.0,0.0,0.0,0.0,0.0,0.0,0.0,0.0,0.0,0.0,0.0,0.0,0.0,0.0,0.0,0.0,0.0,0.0,0.0,0.0,0.0,0.0,0.0,0.0,0.0,0.0,0.0,0.0,0.0,0.0,0.0,0.0,0.0,0.0,0.0,0.0,0.0,0.0,0.0,0.0,0.0,0.0,0.0,0.0,0.0,0.0,0.0,0.0,0.0,0.0,0.0,0.0,0.0,0.0,0.0,0.0,0.0,0.0,0.0,0.0,-3.9252,-3.895,0.0,0.0,0.0,0.0,0.0,0.0,0.0,0.0,0.0,0.0,0.0,0.0,0.0,0.0,0.0,0.0,0.0,0.0,0.0,0.0,0.0,0.0,0.0,-2.8244,-2.8258,-2.8127,-2.8091,-2.8004,0.0,0.0,0.0,0.0,0.0,-2.7911,-2.7716,-2.7692,-2.8217,-2.9317,-3.011,-3.2076,-3.5131,-3.6456,-3.5766,-3.3352,-3.2559,0.0,0.0,0.0,0.0,0.0,0.0,0.0,0.0,0.0,0.0,0.0,0.0,0.0,0.0,0.0,0.0,0.0,0.0,0.0,0.0,0.0,0.0,0.0,0.0,0.0,0.0,0.0,0.0,0.0,0.0,0.0,0.0,0.0,0.0,0.0,0.0,0.0,0.0,0.0,0.0,0.0,0.0,0.0,0.0,0.0,0.0,0.0,0.0,0.0,0.0,0.0,0.0,0.0,0.0,0.0,0.0,0.0,0.0,0.0,0.0,0.0,0.0,0.0,-4.3218,-4.3794,-4.4348,-4.4348,-4.429,-4.4005,-4.1753,-4.0527,-4.0046,-4.0024,0.0,0.0,0.0,0.0,0.0,0.0,0.0,0.0,0.0,0.0,0.0,0.0,0.0,0.0,0.0,0.0,0.0,0.0,0.0,0.0,0.0,-2.8765,-2.9148,-2.8964,-2.9095,-2.8975,-2.8406,-2.8518,-2.848,-2.8232,-2.8067,-2.7911,-2.7716,-2.82,-2.8479,-2.8558,-3.2524,-3.6008,-3.8974,-3.9894,-4.0101,-3.9549,-3.558,-3.449,-3.5504,0.0,0.0,0.0,0.0,0.0,0.0,0.0,0.0,0.0,0.0,0.0,0.0,0.0,0.0,0.0,0.0,0.0,0.0,0.0,0.0,0.0,0.0,0.0,0.0,0.0,0.0,0.0,0.0,0.0,0.0,0.0,0.0,0.0,0.0,0.0,0.0,0.0,0.0,0.0,0.0,0.0,-3.6366,-3.5667,0.0,0.0,0.0,0.0,0.0,0.0,0.0,0.0,0.0,0.0,0.0,0.0,0.0,-4.105,-4.2585,-4.3776,-4.4438,-4.4704,-4.527,-4.5568,-4.5732,-4.5732,-4.5671,-4.5481,-4.4634,0.0,-4.1394,-4.0761,0.0,0.0,0.0,0.0,0.0,0.0,0.0,0.0,0.0,0.0,0.0,0.0,0.0,0.0,0.0,0.0,0.0,0.0,0.0,0.0,0.0,-3.092,-3.1684,-3.2366,-3.4041,-3.3972,-3.1325,-3.1917,-3.1347,-2.8976,-2.818,-2.7986,-2.8368,-2.8455,-2.9903,-3.2835,-3.7858,-4.1181,-4.2915,-4.4147,-4.4492,-4.4009,-4.1561,-3.8905,-3.6159,-3.4096,0.0,0.0,0.0,0.0,0.0,0.0,0.0,0.0,0.0,0.0,0.0,0.0,0.0,0.0,0.0,0.0,0.0,0.0,0.0,0.0,0.0,0.0,0.0,0.0,0.0,0.0,0.0,0.0,0.0,0.0,0.0,0.0,0.0,0.0,0.0,0.0,0.0,0.0,0.0,-3.6104,-3.666,-3.6332,-3.6592,-3.6829,0.0,0.0,0.0,0.0,0.0,0.0,0.0,0.0,0.0,-4.2034,-4.2803,-4.3469,-4.4111,-4.5494,-4.6411,-4.6858,-4.744,-4.7935,-4.8331,-4.7868,-4.7868,-4.82,-4.7046,-4.5795,-4.4447,-4.2575,-4.1222,-4.0382,0.0,0.0,0.0,0.0,-4.0047,-4.0059,0.0,0.0,0.0,0.0,0.0,0.0,0.0,0.0,0.0,0.0,0.0,0.0,-3.2109,-3.3252,-3.4507,-3.6282,-3.8109,-3.7898,-3.4842,-3.4282,-3.295,-3.0404,-2.8874,-2.8428,-2.9237,-3.0089,-3.2995,-3.8077,-4.2837,-4.5734,-4.6879,-4.8224,-4.8562,-4.801,-4.7189,-4.3726,-3.8311,-3.6376,-3.4414,-3.2488,0.0,0.0,0.0,0.0,0.0,0.0,0.0,0.0,0.0,0.0,0.0,0.0,0.0,0.0,0.0,0.0,0.0,0.0,0.0,0.0,0.0,0.0,0.0,0.0,0.0,0.0,0.0,0.0,0.0,0.0,0.0,0.0,0.0,0.0,0.0,0.0,0.0,-3.6085,-3.6835,-3.6806,-3.6961,-3.7218,0.0,0.0,0.0,0.0,0.0,0.0,-4.137,-4.1991,-4.2864,-4.401,-4.5362,-4.6081,-4.6026,-4.7207,-4.8197,-4.8927,-4.9179,-4.9702,-5.0436,-4.9981,-5.0124,-5.0683,-4.9302,-4.842,-4.7769,-4.4743,-4.2738,-4.1584,-4.1572,-4.084,-3.9935,-4.1006,-4.1322,-4.1276,0.0,0.0,0.0,0.0,0.0,0.0,0.0,0.0,0.0,0.0,0.0,-2.9619,-3.3621,-3.5192,-3.7174,-4.0154,-3.9107,-3.8325,-3.8506,-3.3824,-3.152,-3.2684,-3.0361,-2.9405,-3.0198,-3.4136,-3.8356,-4.2861,-4.601,-4.8665,-5.0838,-5.1602,-5.1946,-5.1877,-5.1119,-4.8403,-4.4021,-3.9734,-3.7427,-3.6274,-3.2462,0.0,0.0,0.0,0.0,0.0,0.0,0.0,0.0,0.0,0.0,0.0,0.0,0.0,0.0,0.0,0.0,0.0,0.0,0.0,0.0,0.0,0.0,0.0,0.0,0.0,0.0,0.0,0.0,0.0,0.0,0.0,0.0,0.0,0.0,0.0,0.0,0.0,0.0,-3.6827,-3.742,0.0,0.0,0.0,0.0,-3.9579,-3.9564,-4.0669,-4.3425,-4.3651,-4.3911,-4.4354,-4.7331,-4.8855,-4.8702,-4.9349,-5.009,-5.0945,-5.0153,-5.0185,-5.108,-5.1882,-5.2238,-5.2241,-5.1444,-5.1115,-5.0818,-4.7172,-4.4787,-4.3466,-4.361,-4.3547,-4.3367,-4.3577,-4.3547,-4.3433,0.0,0.0,0.0,0.0,0.0,0.0,0.0,0.0,-2.6572,-2.6869,-2.988,-3.3463,-3.7301,-4.054,-4.3506,-4.6241,-4.6901,-4.5852,-4.2715,-3.8846,-3.6451,-3.5953,-3.2046,-3.152,-3.5066,-3.8838,-4.3015,-4.7562,-4.9597,-5.2046,-5.477,-5.4529,-5.4359,-5.4391,-5.4083,-5.1959,-4.8228,-4.3367,-4.0034,-3.7661,-3.3681,-3.143,0.0,0.0,0.0,0.0,0.0,0.0,0.0,0.0,0.0,0.0,0.0,0.0,0.0,0.0,0.0,0.0,0.0,0.0,0.0,0.0,0.0,0.0,0.0,0.0,0.0,0.0,0.0,0.0,0.0,0.0,0.0,0.0,0.0,0.0,0.0,0.0,0.0,-3.852,-3.9218,0.0,-4.0472,-3.985,-3.9972,-4.1438,-4.1859,-4.2879,-4.4773,-4.5808,-4.639,-4.6392,-4.8524,-4.9581,-4.9305,-5.0056,-5.0897,-5.1744,-5.1437,-5.1218,-5.1065,-5.0843,-5.0729,-5.0659,-4.9903,-4.9897,-5.037,-4.9029,-4.7125,-4.5006,-4.4984,-4.4072,-4.2853,-4.3356,-4.3816,-4.4202,0.0,0.0,0.0,0.0,0.0,0.0,0.0,0.0,-2.6981,-2.7278,-3.1812,-3.6535,-4.0529,-4.5022,-4.8842,-5.1501,-5.1611,-5.0032,-4.6427,-4.1482,-3.8397,-3.7631,-3.4495,-3.4588,-3.8545,-4.2738,-4.655,-5.0011,-5.2011,-5.4149,-5.6391,-5.5874,-5.577,-5.6012,-5.6012,-5.4657,-5.2094,-4.7824,-4.3705,-3.9665,-3.6058,-3.409,-3.2929,0.0,0.0,0.0,0.0,0.0,0.0,0.0,0.0,0.0,0.0,0.0,0.0,0.0,0.0,0.0,0.0,0.0,0.0,0.0,0.0,0.0,0.0,0.0,0.0,0.0,0.0,0.0,0.0,0.0,0.0,0.0,0.0,0.0,0.0,-3.6924,-3.8584,-4.0102,-4.0852,-4.1622,-4.2551,-4.2093,-4.2124,-4.3126,-4.3703,-4.4665,-4.6102,-4.7182,-4.776,-4.7779,-4.941,-5.0145,-4.9866,-5.0237,-5.0686,-5.1248,-5.1025,-5.0675,-5.0229,-4.9923,-4.9805,-4.9765,-4.9559,-4.9818,-5.039,-5.068,-4.9511,-4.7513,-4.6682,-4.5317,-4.3831,-4.4366,-4.5021,-4.5625,0.0,0.0,0.0,0.0,0.0,0.0,0.0,-2.5875,-2.7204,-2.8021,-3.3213,-3.852,-4.304,-4.832,-5.2671,-5.5537,-5.2552,-5.0209,-4.9329,-4.1252,-3.6756,-3.7523,-3.7719,-3.8683,-4.0534,-4.58,-4.9094,-5.0252,-5.3149,-5.4977,-5.5736,-5.5701,-5.6115,-5.684,-5.684,-5.6391,-5.5467,-5.2976,-4.8464,-4.2779,-3.9735,-3.8101,-3.7038,0.0,0.0,0.0,0.0,0.0,0.0,0.0,0.0,0.0,0.0,0.0,0.0,0.0,0.0,0.0,0.0,0.0,0.0,0.0,0.0,0.0,0.0,0.0,0.0,0.0,0.0,0.0,0.0,0.0,0.0,0.0,0.0,0.0,-3.634,-3.784,-3.9494,-4.1399,-4.2252,-4.266,-4.2627,-4.368,-4.4429,-4.455,-4.5032,-4.6007,-4.7456,-4.7579,-4.7862,-4.8281,-4.9947,-5.0755,-5.0556,-4.9909,-4.957,-4.9612,-4.8954,-4.8615,-4.8656,-4.9439,-4.9765,-4.9765,-5.0615,-5.1027,-5.1102,-5.198,-5.1838,-5.0843,-4.8771,-4.7497,-4.6782,-4.6805,-4.7211,-4.7802,0.0,0.0,0.0,0.0,0.0,0.0,-2.4525,-2.5875,-2.7427,-2.8839,-3.5346,-4.1519,-4.6015,-5.1298,-5.544,-5.7691,-5.3901,-5.078,-4.94,-4.1752,-3.7113,-3.6756,-4.0742,-4.4214,-4.692,-4.9963,-5.2884,-5.5736,-5.627,-5.7067,-5.8081,-5.7529,-5.7391,-5.7598,-5.7598,-5.6916,-5.5724,-5.4594,-5.262,-4.9737,-4.3814,-4.0472,-3.8647,0.0,0.0,0.0,0.0,0.0,0.0,0.0,0.0,0.0,0.0,0.0,0.0,0.0,0.0,0.0,0.0,0.0,0.0,0.0,0.0,0.0,0.0,0.0,0.0,0.0,0.0,0.0,0.0,0.0,0.0,0.0,-3.4572,-3.5852,-3.7033,-3.9191,-4.1206,-4.2652,-4.3856,-4.4749,-4.5212,-4.5578,-4.5777,-4.5774,-4.6389,-4.7126,-4.8046,-4.824,-4.8321,-4.8311,-4.8917,-4.9116,-4.8947,-4.8766,-4.8949,-4.9558,-4.9332,-4.9035,-4.8615,-4.8831,-4.8615,-4.8061,-4.8913,-4.9638,-5.0197,-5.1102,-5.0709,-4.9552,-4.9483,-4.8904,-4.8029,-4.7088,-4.6885,-4.7156,0.0,0.0,0.0,0.0,0.0,0.0,-2.4525,-2.5875,-2.7613,-2.9619,-3.7012,-4.3486,-4.7275,-5.2833,-5.6381,-5.6704,-5.3028,-4.9603,-4.7046,-4.168,-3.8647,-3.8861,-4.3966,-4.7869,-5.0207,-5.3078,-5.5414,-5.7173,-5.726,-5.7719,-5.853,-5.8116,-5.8254,-5.8875,-5.8875,-5.8428,-5.7637,-5.6699,-5.5587,-5.3971,-4.9015,-4.559,-4.3142,-3.9755,-3.7966,-3.6907,-3.4321,-3.4229,-3.5028,-3.2844,0.0,0.0,0.0,0.0,0.0,0.0,0.0,0.0,0.0,0.0,0.0,0.0,0.0,0.0,0.0,0.0,0.0,0.0,0.0,0.0,0.0,0.0,0.0,0.0,-3.6154,-3.7763,-3.9352,-4.1113,-4.2821,-4.4366,-4.5514,-4.6292,-4.6681,-4.7249,-4.7339,-4.677,-4.7848,-4.8356,-4.7908,-4.8248,-4.8412,-4.8311,-4.8127,-4.814,-4.8267,-4.8027,-4.8109,-4.8596,-4.8596,-4.8596,-4.8615,-4.8198,-4.7976,-4.7849,-4.8366,-4.8872,-4.9327,-4.991,-4.9646,-4.8983,0.0,0.0,0.0,0.0,-4.7039,-4.6912,0.0,0.0,0.0,0.0,0.0,0.0,-2.4525,-2.5875,-2.7798,-3.0288,-3.7867,-4.4144,-4.6989,-5.2508,-5.5446,-5.4018,-5.0755,-4.726,-4.3729,-4.166,-4.1324,-4.3001,-4.7451,-5.0535,-5.19,-5.5476,-5.7092,-5.6586,-5.7352,-5.7821,-5.8047,-5.8116,-5.8909,-6.0185,-6.0185,-6.0254,-6.0254,-5.8968,-5.7712,-5.6382,-5.4494,-5.1869,-4.8649,-4.4693,-4.3036,-4.2458,-3.9064,-3.7646,-3.7153,-3.5614,0.0,0.0,0.0,0.0,0.0,0.0,0.0,0.0,0.0,0.0,0.0,0.0,0.0,0.0,0.0,0.0,0.0,0.0,0.0,0.0,0.0,0.0,0.0,0.0,-3.8362,-4.0367,-4.244,-4.3269,-4.4377,-4.607,-4.689,-4.7309,-4.7309,-4.8356,-4.8566,-4.7399,-4.8985,-4.9209,-4.7519,-4.7967,0.0,0.0,0.0,-4.7578,-4.8177,-4.7608,-4.7309,-4.7309,-4.7309,-4.7709,-4.8407,-4.7666,-4.7709,-4.8449,-4.8573,-4.8615,-4.8636,-4.8844,-4.8821,-4.8707,-4.8735,-4.785,-4.6702,-4.7416,-4.7268,-4.6679,0.0,0.0,0.0,0.0,0.0,0.0,-2.4517,-2.5875,-2.7798,-3.0288,-3.6208,-4.1396,-4.452,-4.7867,-5.0771,-5.2911,-4.8461,-4.4942,-4.3586,-4.425,-4.5641,-4.7831,-5.1596,-5.4371,-5.5943,-5.7919,-5.8924,-5.8923,-5.9951,-5.9894,-5.8806,-5.9461,-5.9909,-6.0185,-6.0185,-6.053,-6.1046,-6.0301,-5.9502,-5.8724,-5.78,-5.46,-5.0039,-4.7183,-4.551,-4.4351,-4.111,-4.1278,-4.2571,-3.9554,-3.9123,-3.9277,-3.6261,-3.3706,0.0,0.0,0.0,0.0,0.0,0.0,0.0,0.0,0.0,0.0,0.0,0.0,0.0,0.0,0.0,0.0,0.0,0.0,0.0,-3.7674,-3.9709,-4.1863,-4.4377,-4.5334,-4.5903,-4.6249,-4.689,-4.7309,-4.7309,-4.7549,-4.7578,-4.7339,-4.8147,-4.8506,-4.8117,-4.8207,-4.8297,-4.8297,-4.7638,-4.7369,-4.7489,-4.7369,-4.7309,-4.7309,-4.7309,0.0,-4.7538,-4.7396,-4.7366,-4.7581,-4.8282,-4.8615,-4.8677,-4.9426,-4.9098,-4.8035,-4.7435,-4.6713,-4.6074,-4.6726,-4.6249,-4.5375,0.0,0.0,0.0,0.0,0.0,0.0,-2.4517,-2.5875,-2.765,-2.9731,-3.4421,-3.8511,-4.0996,-4.3272,-4.4963,-4.5784,-4.2573,-4.1002,-4.2216,-4.4856,-4.8139,-5.2101,-5.5114,-5.7626,-5.9645,-6.0457,-6.0817,-6.0701,-6.1441,-6.1142,-5.9839,-6.0082,-6.0599,-6.1323,-6.0944,-6.1392,-6.2427,-6.1723,-6.1109,-6.0401,-5.9003,-5.6672,-5.3792,-5.1275,-4.9047,-4.6989,-4.4738,-4.4421,-4.4664,-4.1986,-4.1309,-4.1124,-3.8385,-3.6107,-3.4044,0.0,0.0,0.0,0.0,0.0,0.0,0.0,0.0,0.0,0.0,0.0,0.0,0.0,0.0,-3.2318,-3.3304,0.0,-3.7704,-4.0044,-4.1773,-4.3539,-4.5514,-4.6381,-4.68,-4.68,-4.71,-4.7309,-4.7309,-4.7608,-4.7788,-4.7788,-4.8716,-4.8985,-4.8327,-4.864,-4.8476,-4.7818,-4.7489,-4.7309,-4.7309,-4.7309,-4.7309,-4.7309,-4.7309,-4.7538,-4.7934,-4.7495,-4.7538,-4.7934,-4.7934,-4.7934,-4.7958,-4.8078,-4.7401,-4.6161,-4.5718,-4.5634,-4.5789,-4.6141,-4.5373,-4.4356,0.0,0.0,0.0,0.0,0.0,0.0,0.0,-2.5726,-2.7204,-2.8728,-3.2397,-3.5457,-3.6958,-3.869,-3.9254,-3.8005,-3.7541,-3.8719,-4.2037,-4.5927,-5.0602,-5.6133,-5.8281,-6.038,-6.2449,-6.2199,-6.2047,-6.199,-6.2337,-6.1973,-6.0909,-6.067,-6.1222,-6.2461,-6.1668,-6.2151,-6.3565,-6.2944,-6.2301,-6.1486,-5.9602,-5.8241,-5.7051,-5.4737,-5.2082,-4.9452,-4.8028,-4.6439,-4.4787,-4.331,-4.2171,-4.1124,-3.9585,-3.7984,-3.6199,-3.3706,-3.2136,0.0,0.0,0.0,0.0,0.0,0.0,0.0,0.0,-2.8697,-2.9535,-3.0193,-3.2018,-3.3963,-3.5579,-3.7674,-3.9888,-4.2231,-4.3748,-4.5125,-4.6352,-4.686,-4.713,-4.713,-4.7219,-4.7309,-4.7309,-4.7788,-4.8087,-4.8087,-4.9194,-4.9344,-4.8147,-4.876,-4.8536,-4.7339,-4.7309,-4.7309,-4.7309,-4.7309,-4.7309,-4.7309,-4.7309,-4.7666,-4.8324,-4.7624,-4.7709,-4.8282,-4.7624,-4.7306,-4.7327,-4.6786,-4.592,-4.4909,-4.4834,-4.5133,-4.5697,-4.5697,-4.4823,-4.3761,0.0,0.0,0.0,0.0,0.0,0.0,0.0,0.0,-2.6172,-2.7055,-2.9782,-3.196,-3.2861,-3.4123,-3.4829,-3.465,-3.829,-4.2216,-4.607,-5.0055,-5.467,-6.0201,-6.1379,-6.2307,-6.3234,-6.195,-6.1763,-6.2769,-6.2811,-6.2486,-6.1744,-6.1709,-6.2022,-6.2461,-6.1668,-6.2151,-6.36,-6.3496,-6.2791,-6.1595,-6.0717,-5.8859,-5.6473,-5.4924,-5.2845,-5.0587,-4.8835,-4.5911,-4.3002,-4.334,-4.2202,-4.0689,-4.1124,-3.9462,-3.7092,-3.5584,-3.2936,-3.0202,-2.8756,-2.7361,-2.6394,-2.6645,-2.7165,-2.7914,0.0,-3.0761,-3.2258,-3.2916,-3.507,-3.6926,-3.7165,-3.9768,-4.2261,-4.309,-4.4814,-4.6352,-4.71,-4.6741,-4.6399,-4.6399,-4.695,-4.7309,-4.7309,-4.7369,-4.7429,-4.7429,-4.8087,-4.8177,-4.7459,-4.8027,-4.8057,-4.7339,-4.7309,-4.7309,-4.7309,-4.7309,-4.7309,-4.7309,-4.7309,-4.7352,-4.7409,-4.7352,-4.7352,-4.7409,-4.7352,-4.7377,-4.7507,-4.7456,-4.7052,-4.6465,-4.6485,-4.615,-4.5697,-4.5697,-4.4851,-4.3945,0.0,0.0,0.0,0.0,0.0,0.0,0.0,0.0,0.0,-2.6163,-2.7517,-2.8772,-2.9478,-3.0218,-3.0674,-3.0674,-3.4955,-3.9539,-4.3986,-4.9698,-5.5348,-6.0843,-6.2735,-6.4234,-6.5447,-6.4412,-6.385,-6.3871,-6.3486,-6.2877,-6.2121,-6.171,-6.2087,-6.3082,-6.2324,-6.2599,-6.36,-6.36,-6.3268,-6.2676,-6.1109,-5.9108,-5.6795,-5.4835,-5.1136,-4.6907,-4.6008,-4.3725,0.0,-4.03,-3.9739,-3.9462,-4.017,-3.8785,-3.6569,-3.4783,-3.2444,-3.0176,-2.9042,-2.7972,-2.7364,-2.8145,-2.8816,-2.9624,-3.0971,-3.2228,-3.3484,-3.4951,-3.6716,-3.8332,-3.9499,-4.1474,-4.315,-4.3808,-4.5233,-4.6249,-4.6142,-4.5903,-4.5454,-4.4635,-4.4784,-4.5454,-4.6621,-4.6741,-4.704,-4.7818,-4.8117,-4.8177,-4.7908,-4.8147,-4.7967,-4.7339,-4.7309,-4.7309,-4.7309,-4.7309,-4.7309,-4.7309,-4.7309,-4.7309,-4.7309,-4.7309,-4.7309,-4.7309,-4.7309,-4.6894,-4.6293,-4.708,-4.6346,-4.488,-4.6114,-4.5964,-4.5073,-4.5515,-4.5119,-4.4479,0.0,0.0,0.0,0.0,0.0,0.0,0.0,0.0,0.0,0.0,-2.5901,-2.6591,-2.7427,-2.7926,-2.8213,-2.8213,-3.2117,-3.6684,-4.1645,-4.8211,-5.4456,-6.0201,-6.2699,-6.4626,-6.5982,-6.5447,-6.4951,-6.4468,-6.3981,-6.3439,-6.2783,-6.2092,-6.2432,-6.3565,-6.2806,-6.291,-6.36,-6.36,-6.3388,-6.2859,-6.0873,-5.8626,-5.6087,-5.3194,-4.8426,-4.3266,-4.3163,-4.083,-3.7623,-3.6477,-3.6045,-3.6199,-3.743,-3.6569,-3.4783,-3.3275,-3.1305,-2.9438,-2.8697,-2.8434,-2.8541,-2.9429,-3.0546,-3.1687,-3.2796,-3.3844,-3.504,-3.6686,-3.8033,-3.9379,-4.0846,-4.2342,-4.3439,-4.3917,-4.5155,-4.5873,-4.5364,-4.4825,-4.4137,-4.318,-4.2542,-4.2931,-4.4796,-4.5454,-4.6322,-4.7638,-4.7758,-4.7818,-4.7997,-4.8027,-4.7788,-4.7309,-4.7309,-4.7309,-4.7309,-4.7309,-4.7309,-4.7309,-4.7309,-4.7309,-4.7309,-4.7309,-4.7309,-4.7309,-4.71,-4.6471,-4.5633,-4.6411,-4.5728,-4.4327,-4.5681,-4.5766,-4.5135,-4.5541,-4.5254,-4.4791,0.0,0.0,0.0,0.0,0.0,0.0,0.0,0.0,0.0,0.0,0.0,0.0,0.0,-2.7834,-2.8213,-2.8213,-3.1118,-3.531,-4.0788,-4.6333,-5.2218,-5.8495,-6.1093,-6.2735,-6.3484,-6.3484,-6.3685,-6.4114,-6.4114,-6.4103,-6.4041,-6.331,-6.3167,-6.3565,-6.2806,-6.291,-6.36,-6.36,-6.2819,-6.1439,-5.9942,-5.713,-5.3461,-4.9425,-4.4976,-4.0939,-4.1322,-3.739,-3.2111,-3.2461,-3.1274,-3.0109,-3.2782,-3.2659,-3.1547,-3.1486,-2.9581,-2.7465,-2.7286,-2.8186,-2.9266,-2.9679,-3.1768,-3.3818,-3.4325,-3.5908,-3.7494,-3.8182,-3.9409,-4.0367,-4.0427,-4.2013,-4.329,-4.3319,-4.4466,-4.5304,-4.5304,-4.3698,-4.247,-4.244,-4.0696,-4.0068,-4.1414,-4.324,-4.4945,-4.6249,-4.6339,-4.6608,-4.7309,-4.7339,-4.7339,-4.7309,-4.7309,-4.7309,-4.7309,-4.7309,-4.7309,-4.7309,-4.7309,-4.7309,-4.7309,-4.7309,-4.7309,-4.7279,-4.6621,-4.6322,-4.619,-4.5603,-4.5768,-4.6339,-4.5764,-4.5988,-4.6539,-4.595,-4.5218,-4.4713,0.0,0.0,0.0,0.0,0.0,0.0,0.0,0.0,0.0,0.0,0.0,0.0,0.0,0.0,0.0,0.0,-3.0582,-3.3758,-3.7719,-4.3643,-4.8615,-5.2289,-5.7774,-6.0594,-6.0308,-6.1843,-6.246,-6.2088,-6.1153,-6.0663,-6.0616,-5.9939,-5.9979,-6.053,-6.0289,-6.0599,-6.1323,-6.0771,-5.9736,-5.8221,-5.6712,-5.3479,-4.9286,-4.6787,-4.209,-3.6734,0.0,-3.2894,-2.9804,-2.9274,-2.8627,-2.8381,-3.0197,-2.9827,-2.8565,-2.7642,-2.7057,-2.7003,-2.8204,-2.9526,-3.0853,-3.2155,-3.3759,-3.5294,-3.6211,-3.6926,-3.7734,-3.8841,-3.8392,-3.7913,-3.8332,-3.896,-3.9709,-4.0569,-4.2192,-4.3399,-4.3399,-4.315,-4.2192,-4.0014,-3.9559,-3.9409,-3.9409,-4.1205,-4.309,-4.4855,-4.5394,-4.5933,-4.6621,-4.707,-4.7309,-4.7309,-4.7309,-4.7309,-4.7309,-4.7309,-4.7309,-4.7309,-4.7309,-4.7309,-4.7309,-4.7309,-4.7309,-4.7279,-4.6621,-4.6279,-4.6262,-4.5574,-4.544,-4.5707,-4.5568,-4.5331,-4.5114,-4.4946,-4.4394,-4.3899,0.0,0.0,0.0,0.0,0.0,0.0,0.0,0.0,0.0,0.0,0.0,0.0,0.0,0.0,0.0,0.0,0.0,-3.2174,-3.4989,-3.9718,-4.375,-4.6676,-5.1993,-5.4741,-5.4501,-5.6311,-5.6934,-5.6261,-5.5812,-5.5664,-5.5793,-5.5822,-5.6115,-5.6598,-5.6598,-5.7012,-5.7736,-5.6909,-5.5736,-5.4218,-5.239,-4.8836,-4.4378,-4.2012,-3.7719,0.0,-3.061,-2.8761,-2.727,-2.6523,-2.6287,-2.6441,-2.7303,-2.7149,-2.6534,-2.5834,-2.6349,-2.7526,-2.9449,-3.1167,-3.2739,-3.4213,-3.5723,-3.6957,-3.7323,-3.7584,-3.7734,-3.7674,-3.6836,-3.6028,-3.5729,-3.6237,-3.7015,-3.7883,-3.9649,-4.1153,-4.1632,-4.1833,-4.1324,-3.9649,-3.9439,-3.932,-3.914,-4.0277,-4.1833,-4.3808,-4.4796,-4.5603,-4.6249,-4.695,-4.7309,-4.7309,-4.7309,-4.7309,-4.7309,-4.7309,-4.7309,-4.7309,-4.7309,-4.7309,-4.7309,-4.7309,-4.7309,-4.7249,-4.6352,-4.5963,-4.5903,-4.5214,-4.4945,-4.4926,-4.5041,-4.4769,-4.4267,-4.4131,-4.3732,-4.3448,0.0,0.0,0.0,0.0,0.0,0.0,0.0,0.0,0.0,0.0,0.0,0.0,0.0,0.0,0.0,0.0,0.0,0.0,-3.2577,-3.4917,-3.7898,-4.1665,-4.4178,-4.5856,-4.6569,-4.7449,-4.7713,-4.7353,-4.8598,-4.9396,-4.9805,-5.103,-5.1632,-5.1632,-5.1632,-5.208,-5.277,-5.1977,-5.0769,-4.9217,-4.7044,-4.3398,-3.8986,-3.5497,-3.2211,-2.9165,-2.6867,-2.5424,-2.4584,-2.438,-2.4317,-2.4379,-2.441,-2.4872,-2.5527,-2.6265,-2.7465,-2.9027,-3.0997,-3.3088,-3.4877,-3.5762,-3.7488,-3.8663,-3.7627,-3.7764,-3.7434,-3.4923,-3.4801,-3.4562,-3.2647,-3.3963,-3.534,-3.5429,-3.7135,-3.8931,-4.0307,-4.0008,-4.0098,-4.1294,-4.0367,-3.9858,-4.0457,-4.0516,-4.1354,-4.32,-4.4526,-4.5574,-4.6249,-4.695,-4.7309,-4.7309,-4.7309,-4.7309,-4.7309,-4.7309,-4.7309,-4.7309,-4.7309,-4.7309,-4.7309,-4.7309,-4.7279,-4.7189,-4.5873,-4.5304,-4.5244,-4.4556,-4.4317,-4.4347,-4.4287,-4.4287,-4.4227,-4.3529,-4.329,-4.329,0.0,0.0,0.0,0.0,0.0,0.0,0.0,0.0,0.0,0.0,0.0,0.0,0.0,0.0,0.0,0.0,0.0,0.0,-3.024,-3.2489,-3.4239,-3.5238,-3.9218,-4.1232,-4.0895,-4.2787,-4.3765,-4.3657,-4.3726,-4.3862,-4.3945,-4.3934,-4.3919,-4.3919,-4.3819,-4.4182,-4.4837,-4.4078,-4.2906,-4.1388,-4.0284,-3.7775,-3.4542,-3.3131,-3.0986,-2.8597,-2.7307,-2.5864,-2.4584,-2.438,-2.4635,-2.5127,-2.5703,-2.6318,-2.7088,-2.8288,-2.995,-3.1705,-3.3303,-3.5213,-3.6906,-3.7541,-3.7986,-3.8001,-3.7104,-3.5767,-3.4412,-3.3245,-3.1599,-3.0193,-2.9684,-3.1182,-3.3005,-3.4502,-3.7225,-3.9798,-4.1632,-4.2551,-4.2821,-4.2231,-4.2252,-4.2222,-4.1931,-4.2312,-4.2961,-4.3988,-4.4377,-4.5095,-4.6219,-4.695,-4.7309,-4.7309,-4.7309,-4.7309,-4.7309,-4.7309,-4.7309,-4.7309,-4.7309,-4.7309,-4.7309,-4.7309,-4.704,-4.6531,-4.5663,-4.5304,-4.5214,-4.4047,-4.4167,-4.4945,-4.3917,-4.3858,-4.4227,-4.3529,-4.329,-4.329,0.0,0.0,0.0,0.0,0.0,0.0,0.0,0.0,0.0,0.0,0.0,0.0,0.0,0.0,0.0,0.0,0.0,0.0,0.0,-3.0118,-3.0975,-3.1332,-3.3901,-3.524,-3.5169,-3.6114,-3.6792,-3.7113,-3.7192,-3.7376,-3.7729,-3.8007,-3.8109,-3.8109,-3.7992,-3.8341,-3.8996,-3.8237,-3.7215,0.0,0.0,-3.3102,-3.0891,-2.9916,-2.8727,-2.7427,-2.6238,-2.5095,-2.4273,-2.4966,-2.5672,-2.6349,-2.7057,-2.8134,-2.9366,-3.0412,-3.2167,-3.3983,-3.509,-3.6846,-3.8444,-3.8647,-3.8605,-3.8041,-3.6267,-3.4722,-3.2916,-3.043,-2.8966,-2.7979,-2.738,-2.8906,-3.0791,-3.2467,-3.5519,-3.8392,-4.0374,-4.2252,-4.3389,-4.324,-4.3778,-4.4047,-4.3728,-4.3988,-4.4466,-4.5155,-4.5185,-4.5502,-4.6249,-4.695,-4.7309,-4.7309,-4.7309,-4.7309,-4.7309,-4.7309,-4.7309,-4.7309,-4.701,-4.686,-4.686,-4.6561,-4.6232,-4.5843,-4.5155,-4.4855,-4.4796,-4.3708,-4.3738,-4.4377,-4.3589,-4.3529,-4.3838,-4.3439,-4.329,-4.329,0.0,0.0,0.0,0.0,0.0,0.0,0.0,0.0,0.0,0.0,0.0,0.0,0.0,0.0,0.0,0.0,0.0,0.0,0.0,0.0,-2.8392,-2.9226,-2.9262,-2.9547,-3.0175,-2.9583,-2.9533,-3.016,-3.0725,-3.1303,-3.1922,-3.2966,-3.3429,-3.3429,-3.3275,-3.3559,-3.4111,-3.3475,-3.28,-3.2041,-3.0627,-2.9265,-2.7908,0.0,-2.6082,-2.5895,-2.4525,-2.3847,-2.3928,-2.579,-2.6903,-2.7673,-2.8535,-3.0104,-3.1828,-3.269,-3.426,-3.5953,-3.6692,-3.8262,-3.9548,-3.9321,-3.9008,-3.8055,-3.5212,-3.3759,-3.1769,-2.737,-2.6866,-2.6896,-2.5794,-2.7171,-2.8966,-3.0522,-3.3365,-3.6178,-3.8452,-4.0973,-4.3069,-4.4407,-4.5155,-4.5574,-4.5574,-4.5574,-4.5813,-4.6369,-4.6399,-4.6399,-4.6399,-4.698,-4.7309,-4.7309,-4.7309,-4.7309,-4.7309,-4.7309,-4.7309,-4.7309,-4.6741,-4.6369,-4.6249,-4.5693,-4.5334,-4.5125,-4.4556,-4.4257,-4.4137,-4.3529,-4.329,-4.329,-4.329,-4.329,-4.329,-4.329,-4.329,-4.329,0.0,0.0,0.0,0.0,0.0,0.0,0.0,0.0,0.0,0.0,-2.5915,-2.4511,0.0,0.0,0.0,0.0,0.0,0.0,0.0,0.0,0.0,-2.8356,-2.8427,-2.8463,-2.8606,-2.8463,-2.8421,-2.8415,-2.8664,-2.8742,-2.8782,-2.882,-2.8833,-2.8817,-2.8601,-2.8574,-2.8661,-2.8523,-2.8402,-2.8178,-2.7282,-2.6589,-2.6059,-2.4975,0.0,0.0,-2.3408,-2.3436,-2.4104,-2.5803,-2.7211,-2.8535,-3.032,-3.1859,-3.3398,-3.5245,-3.6445,-3.743,-3.8662,-3.9613,-4.0197,-3.9579,-3.8067,-3.6134,-3.3847,-3.1003,-2.8247,-2.6207,-2.5435,-2.5202,-2.5555,-2.6782,-2.8753,-3.1689,-3.3574,-3.6151,-4.0277,-4.2222,-4.3898,-4.5753,-4.6561,-4.695,-4.695,-4.695,-4.701,-4.713,-4.713,-4.713,-4.713,-4.7249,-4.7309,-4.7309,-4.7309,-4.7309,-4.7309,-4.7309,-4.7309,-4.7309,-4.7189,-4.686,-4.6279,-4.6202,-4.5544,-4.4466,-4.4377,-4.4018,-4.3439,-4.3349,-4.329,-4.329,-4.329,-4.329,-4.329,-4.329,-4.329,-4.329,0.0,0.0,0.0,0.0,0.0,0.0,0.0,-2.7401,-2.8587,-3.174,-3.0661,-2.8919,-2.7287,-2.5832,0.0,0.0,0.0,0.0,0.0,0.0,0.0,0.0,-2.8213,-2.8213,-2.8213,-2.8213,-2.8109,-2.7996,0.0,-2.8053,-2.7982,-2.7736,-2.7627,-2.7686,-2.7404,-2.7075,-2.6695,-2.7109,-2.6833,-2.6109,-2.6109,-2.5792,-2.5278,0.0,0.0,0.0,-2.3042,-2.2903,-2.3122,-2.5279,-2.6593,-2.795,-3.1366,-3.3614,-3.5276,-3.663,-3.7492,-3.8323,-3.9677,-4.0259,-4.0413,-4.0105,-3.792,-3.5156,-3.2597,-2.9598,-2.6868,-2.4942,-2.4298,-2.4365,-2.5405,-2.6393,-2.7944,-3.0552,-3.2677,-3.522,-3.8811,-4.1354,-4.3569,-4.5544,-4.6681,-4.7309,-4.7309,-4.7309,-4.7309,-4.7309,-4.7309,-4.7309,-4.7309,-4.7309,-4.7309,-4.7309,-4.7309,-4.7309,-4.7309,-4.7309,-4.713,-4.68,-4.6441,-4.5903,-4.5274,-4.4874,-4.4366,-4.3768,-4.3768,-4.3589,-4.329,-4.329,-4.329,-4.329,-4.329,-4.329,-4.329,-4.329,-4.329,-4.329,0.0,0.0,0.0,0.0,0.0,0.0,0.0,-2.9672,-3.1054,-3.533,-3.5337,-3.369,-3.0463,-2.7586,-2.5482,0.0,0.0,0.0,0.0,0.0,0.0,0.0,0.0,0.0,-2.8213,0.0,0.0,-2.794,-2.7968,0.0,0.0,0.0,0.0,0.0,-2.7215,-2.6695,-2.6128,-2.6626,-2.6109,0.0,0.0,-2.5267,-2.4686,0.0,0.0,0.0,0.0,-2.2342,-2.2199,-2.4436,-2.565,-2.6941,-3.0869,-3.3737,-3.5768,-3.6599,-3.7554,-3.86,-3.992,-4.0382,-4.0413,-4.0136,-3.7554,-3.4294,-3.1525,-2.8672,-2.6023,-2.4056,-2.3631,-2.3969,-2.5166,-2.5824,-2.6871,-2.9052,-3.121,-3.3664,-3.6596,-3.9738,-4.256,-4.4646,-4.6202,-4.716,-4.7309,-4.7309,-4.7309,-4.7309,-4.7309,-4.7309,-4.7309,-4.7309,-4.7309,-4.7309,-4.7309,-4.7309,-4.7309,-4.7309,-4.698,-4.6279,-4.5933,-4.5244,-4.4317,-4.3888,-4.3559,-4.329,-4.329,-4.329,-4.329,-4.329,-4.3379,-4.3499,-4.3349,-4.3379,-4.3499,-4.3349,-4.329,-4.329,0.0,0.0,0.0,0.0,0.0,0.0,0.0,-3.0023,-3.2819,-3.8121,-3.7011,-3.525,-3.4096,-3.0981,-2.7527,0.0,0.0,0.0,0.0,0.0,0.0,0.0,0.0,0.0,0.0,0.0,0.0,-2.773,-2.7911,0.0,0.0,0.0,0.0,0.0,0.0,-2.6178,-2.6059,-2.5454,0.0,0.0,0.0,0.0,0.0,0.0,0.0,0.0,0.0,-2.1631,-2.2232,-2.3418,-2.4687,-2.6025,-2.7496,-3.0166,-3.3029,-3.4382,-3.6107,-3.7892,-3.9247,-4.0043,-4.0197,-3.9,-3.6138,-3.3031,-3.0781,-2.7655,-2.4901,-2.3984,-2.3674,-2.3819,-2.4545,-2.4754,-2.5651,-2.8278,-2.9385,-3.13,-3.513,-3.8003,-4.0666,-4.3269,-4.5244,-4.6651,-4.7249,-4.7309,-4.7309,-4.7309,-4.7309,-4.7309,-4.7309,-4.7309,-4.7309,-4.7309,-4.7309,-4.7309,-4.7309,-4.7309,-4.698,-4.6279,-4.686,-4.6142,-4.4317,-4.4855,-4.4466,-4.329,-4.329,-4.329,-4.329,-4.329,-4.3648,-4.4167,-4.3529,-4.3648,-4.4137,-4.3499,-4.329,-4.329,0.0,0.0,0.0,0.0,0.0,0.0,-3.0021,-3.0552,-3.2883,-3.9751,-3.986,-3.8793,-3.7455,-3.467,-3.0353,-2.404,0.0,0.0,0.0,0.0,0.0,0.0,0.0,0.0,0.0,0.0,-2.7741,-2.7034,-2.7461,0.0,0.0,0.0,0.0,0.0,0.0,-2.5577,-2.4715,-2.4922,0.0,0.0,0.0,0.0,0.0,0.0,0.0,0.0,0.0,0.0,-2.1447,-2.2254,-2.2742,-2.3223,-2.4051,-2.5795,-2.835,-3.2598,-3.4999,-3.6846,-3.9398,-3.9982,-3.9644,-3.8754,-3.5337,-3.174,-3.0011,-2.6893,-2.4264,-2.3863,-2.3696,-2.3819,-2.4485,-2.4933,-2.5681,-2.7141,-2.8278,-3.0103,-3.3245,-3.528,-3.8033,-4.2321,-4.3808,-4.5203,-4.713,-4.7309,-4.713,-4.6741,-4.6711,-4.6531,-4.6112,-4.686,-4.7309,-4.7309,-4.692,-4.6711,-4.6711,-4.6292,-4.5753,-4.5125,-4.5783,-4.5274,-4.3708,-4.4407,-4.4197,-4.329,-4.329,-4.329,-4.3319,-4.3738,-4.4077,-4.4287,-4.4018,-4.4317,-4.4766,-4.3678,-4.3559,-4.3888,0.0,0.0,0.0,0.0,0.0,-2.5567,-3.0512,-3.0853,-3.2871,-3.9536,-4.0201,-3.9697,-3.8815,-3.5393,-3.0995,-2.5717,-2.4183,0.0,0.0,0.0,0.0,0.0,0.0,0.0,0.0,0.0,-2.7296,-2.6598,-2.7188,-2.7481,0.0,0.0,-2.6945,-2.6288,0.0,0.0,0.0,0.0,0.0,0.0,0.0,0.0,0.0,0.0,0.0,0.0,0.0,0.0,0.0,0.0,0.0,-2.1073,-2.1565,-2.249,-2.441,-2.952,-3.2567,-3.4876,-3.7677,-3.8662,-3.8723,-3.7831,-3.4475,-3.0966,-2.9357,-2.6421,-2.4024,-2.3897,-2.3739,-2.3803,-2.4216,-2.4993,-2.5764,-2.6213,-2.759,-2.9385,-3.1599,-3.3215,-3.5881,-4.0404,-4.1654,-4.326,-4.6142,-4.695,-4.704,-4.6339,-4.6279,-4.6022,-4.5334,-4.6202,-4.6711,-4.6711,-4.6262,-4.6022,-4.6022,-4.5544,-4.4975,-4.4317,-4.4975,-4.4616,-4.3319,-4.3977,-4.3917,-4.329,-4.329,-4.329,-4.3319,-4.3798,-4.4257,-4.4586,-4.4377,-4.4855,-4.5454,-4.4317,-4.4197,-4.4616,0.0,0.0,0.0,0.0,0.0,0.0,-2.9012,-3.0786,-3.3132,-3.7131,-3.6952,-3.6738,-3.7523,-3.2045,-2.857,-2.9298,-2.5752,0.0,0.0,0.0,0.0,0.0,0.0,0.0,0.0,0.0,-2.6717,-2.6598,-2.7188,-2.7419,-2.7297,-2.7282,-2.6868,-2.6059,0.0,0.0,0.0,0.0,0.0,0.0,0.0,0.0,0.0,0.0,0.0,0.0,0.0,0.0,0.0,0.0,0.0,0.0,0.0,-2.0795,-2.1874,-2.4594,-2.8258,-3.1763,-3.309,-3.546,-3.7184,-3.5861,-3.3457,-3.0874,-2.8873,-2.6198,-2.416,-2.4024,-2.3897,-2.376,-2.3631,-2.4717,-2.5615,-2.5615,-2.729,-2.9056,-3.0342,-3.2258,-3.4502,-3.7135,-3.8631,-4.0756,-4.4018,-4.6142,-4.704,-4.6339,-4.6279,-4.6022,-4.5334,-4.5304,-4.5304,-4.5304,-4.5304,-4.5304,-4.5304,-4.5304,-4.4975,-4.4317,-4.4975,-4.4616,-4.3319,-4.3977,-4.3917,-4.329,-4.329,-4.329,-4.329,-4.329,-4.4107,-4.5214,-4.4556,-4.5125,-4.619,-4.5544,-4.5274,-4.5274,0.0,0.0,0.0,0.0,0.0,0.0,0.0,-2.6946,-2.8334,-3.2224,-3.2545,-3.308,-3.5007,-3.151,-2.9119,-2.9369,-2.5788,0.0,0.0,0.0,0.0,0.0,0.0,0.0,0.0,0.0,-2.6598,-2.6391,-2.7561,-2.8089,-2.804,-2.804,-2.7075,-2.535,-2.5109,-2.4281,0.0,0.0,0.0,0.0,0.0,0.0,-2.2474,0.0,0.0,0.0,0.0,0.0,0.0,0.0,0.0,0.0,0.0,0.0,0.0,-2.1627,-2.48,-2.8381,-3.0197,-3.1305,-3.1859,-3.1428,-2.9643,-2.7819,-2.718,-2.5575,-2.416,-2.4024,-2.3897,-2.376,-2.3631,-2.4717,-2.5764,-2.6213,-2.759,-2.9056,-3.0313,-3.1839,-3.4143,-3.7674,-4.1654,-4.4515,-4.5603,-4.6262,-4.6172,-4.5035,-4.4945,-4.4646,-4.3947,-4.3917,-4.4377,-4.5274,-4.4855,-4.4616,-4.4616,-4.4167,-4.3798,-4.3618,-4.4317,-4.4167,-4.3319,-4.3977,-4.3917,-4.329,-4.329,-4.329,-4.3349,-4.4317,-4.4915,-4.5304,-4.5574,-4.6232,-4.686,-4.5723,-4.5603,-4.5992,0.0,0.0,0.0,0.0,0.0,0.0,0.0,-2.5229,-2.6086,-2.8834,-2.8941,-2.9869,-3.2866,-2.9583,-2.7763,-2.9262,-2.5788,0.0,0.0,0.0,0.0,0.0,0.0,0.0,-2.3318,-2.5103,-2.6281,-2.6755,-2.8451,-2.9248,-2.9282,-2.9558,-2.8316,-2.5868,-2.5557,-2.4543,0.0,0.0,0.0,0.0,0.0,0.0,-2.2217,0.0,0.0,0.0,0.0,0.0,0.0,0.0,0.0,0.0,0.0,0.0,0.0,0.0,-2.2089,-2.4585,-2.6872,-2.8042,-2.8596,-2.8295,-2.7119,-2.5857,-2.5333,-2.4522,-2.3825,-2.366,-2.3758,-2.3803,-2.3631,-2.4717,-2.5734,-2.6153,-2.735,-2.8667,-2.9983,-3.13,-3.3573,-3.7554,-4.2043,-4.4825,-4.4825,-4.5514,-4.5484,-4.4407,-4.4317,-4.3977,-4.3319,-4.329,-4.3678,-4.4526,-4.4167,-4.3917,-4.3917,-4.3499,-4.329,-4.329,-4.3708,-4.3678,-4.329,-4.3708,-4.3678,-4.329,-4.329,-4.329,0.0,-4.4496,-4.5065,-4.5364,-4.6052,-4.6741,-4.7189,-4.6352,-4.6322,-4.6681,0.0,0.0,0.0,0.0,0.0,0.0,0.0,-2.5194,-2.5908,-2.6657,-2.6086,-2.7049,-3.0725,-2.655,-2.4968,-2.8655,0.0,0.0,0.0,0.0,0.0,0.0,0.0,0.0,-2.3353,-2.4576,-2.597,-2.7554,-2.9661,-3.0748,-3.0765,-3.1524,-3.0248,-2.7263,-2.6523,-2.5267,-2.3681,-2.2992,-2.2596,-2.2391,-2.2377,-2.2203,0.0,0.0,0.0,0.0,0.0,0.0,0.0,0.0,0.0,0.0,0.0,0.0,0.0,0.0,0.0,0.0,0.0,-2.5426,-2.6749,-2.6111,-2.5465,-2.4697,-2.3486,-2.3271,0.0,-2.3041,-2.3548,-2.3919,-2.3713,-2.4747,-2.5644,-2.5734,-2.6901,-2.8274,-2.9535,-3.1061,-3.3394,-3.7255,-4.0583,-4.253,-4.247,-4.4137,-4.4945,-4.4287,-4.4257,-4.3958,-4.326,-4.323,-4.323,-4.323,-4.323,-4.323,-4.323,-4.323,-4.323,-4.323,-4.323,-4.326,-4.329,-4.326,-4.326,-4.329,-4.329,-4.329,-4.3349,-4.4077,-4.4736,-4.5364,-4.6112,-4.677,-4.7309,-4.7309,-4.7309,-4.7309,0.0,0.0,0.0,0.0,0.0,0.0,0.0,0.0,0.0,0.0,-2.4147,-2.4397,-2.5324,-2.4254,-2.3862,0.0,0.0,0.0,0.0,0.0,0.0,0.0,0.0,0.0,-2.385,-2.4725,-2.6189,-2.8193,-2.9886,-3.0972,-3.1558,-3.2283,-3.0731,-2.7282,-2.7109,-2.5523,-2.2957,-2.2785,-2.2596,-2.2377,-2.2189,-2.194,0.0,0.0,0.0,0.0,-2.1541,-2.1262,0.0,0.0,0.0,0.0,0.0,0.0,0.0,0.0,-2.032,-2.0443,-2.1073,0.0,-2.2058,-2.2397,-2.2347,-2.2305,0.0,-2.2932,-2.3242,-2.3041,-2.3548,-2.407,-2.432,-2.5023,-2.5944,-2.6956,-2.8637,-3.0103,-3.0943,-3.4382,-3.7674,-4.0157,-4.2462,-4.3658,-4.315,-4.3988,-4.4287,-4.3589,-4.3529,-4.3269,-4.2611,-4.262,-4.262,-4.262,-4.262,-4.262,-4.262,-4.262,-4.262,-4.262,-4.262,-4.2851,-4.326,-4.2821,-4.2851,-4.329,-4.329,-4.329,-4.3379,-4.4586,-4.5155,-4.5424,-4.6621,-4.716,-4.7309,-4.7309,-4.7309,-4.7309,0.0,0.0,0.0,0.0,0.0,0.0,0.0,0.0,0.0,0.0,0.0,0.0,0.0,0.0,0.0,0.0,0.0,0.0,0.0,0.0,0.0,0.0,0.0,-2.3377,-2.3989,-2.4733,-2.653,-2.9455,-3.0627,-3.1938,-3.3352,-3.3421,-3.18,-2.8765,-2.704,-2.4936,-2.2716,-2.2716,-2.2508,-2.2203,-2.2056,0.0,0.0,0.0,0.0,0.0,-2.1371,-2.1103,0.0,-2.0662,-2.0494,-2.032,0.0,0.0,0.0,0.0,-2.032,-2.032,-2.032,-2.0518,-2.0857,-2.1196,-2.1288,-2.1455,-2.2075,-2.2524,-2.2854,-2.2899,-2.3506,-2.413,-2.453,-2.4903,-2.5674,-2.7345,-2.8727,-3.0402,-3.2587,-3.5549,-3.8362,-4.0666,-4.2132,-4.294,-4.288,-4.3479,-4.3439,-4.2521,-4.2961,-4.291,-4.1991,-4.2231,-4.2261,-4.1961,-4.1662,-4.1782,-4.2381,-4.2641,-4.2491,-4.1961,-4.2261,-4.244,-4.2432,-4.244,-4.259,-4.291,-4.317,-4.329,-4.3379,-4.4766,-4.5304,-4.5424,-4.677,-4.7309,-4.7309,-4.7309,-4.7309,-4.7309,0.0,0.0,0.0,0.0,0.0,0.0,0.0,0.0,0.0,0.0,0.0,0.0,0.0,0.0,0.0,0.0,0.0,0.0,0.0,0.0,0.0,0.0,-2.3177,-2.3537,-2.4483,-2.4959,-2.6937,-3.0524,-3.1489,-3.3007,-3.5028,-3.4752,-3.3164,-3.0351,-2.6764,-2.4247,-2.2716,-2.2676,-2.2412,-2.1998,-2.1969,0.0,0.0,0.0,0.0,0.0,0.0,0.0,0.0,-2.051,-2.0409,-2.032,-2.032,0.0,0.0,0.0,0.0,0.0,-2.032,-2.0857,-2.1411,-2.1196,-2.1288,-2.1529,-2.1877,-2.2191,-2.2478,-2.2758,-2.3504,-2.426,-2.468,-2.4993,-2.58,-2.7615,-2.8786,-3.0851,-3.4713,-3.6297,-3.7913,-4.0127,-4.1145,-4.1773,-4.2081,-4.2731,-4.2671,-4.1474,-4.2402,-4.2491,-4.1294,-4.1811,-4.1841,-4.1302,-4.0696,-4.0935,-4.2081,-4.2611,-4.2342,-4.1235,-4.1841,-4.1871,-4.1422,-4.1901,-4.2201,-4.244,-4.294,-4.32,-4.3379,-4.4646,-4.5214,-4.5424,-4.6651,-4.7219,-4.7309,-4.7309,-4.7309,-4.7309,0.0,0.0,0.0,0.0,0.0,0.0,0.0,0.0,0.0,0.0,0.0,0.0,0.0,0.0,0.0,0.0,0.0,0.0,0.0,0.0,0.0,-2.3881,-2.3841,-2.4767,-2.6726,-2.6212,-2.7178,-2.9696,-3.1731,-3.3248,-3.4303,-3.6132,-3.4372,-2.9558,-2.704,-2.4715,-2.2703,-2.2528,-2.2274,-2.1984,-2.1827,0.0,0.0,0.0,0.0,0.0,0.0,0.0,0.0,-2.051,-2.0409,-2.032,-2.032,0.0,0.0,0.0,0.0,0.0,-2.032,-2.1196,-2.1874,-2.0734,-2.1319,-2.199,-2.1387,-2.2133,-2.2929,-2.2828,-2.3812,-2.4822,-2.5345,-2.6841,-2.8278,-2.9172,-3.1718,-3.4771,-3.8182,-3.932,-3.9948,-4.0337,-4.1953,-4.2402,-4.0846,-4.1841,-4.2231,-4.1482,-4.1564,-4.1354,-4.0576,-4.0636,-4.0666,-4.0546,-4.0457,-4.0487,-4.0696,-4.0816,-4.0756,-4.0546,-4.0666,-4.0935,-4.1354,-4.0905,-4.1362,-4.241,-4.25,-4.2821,-4.3349,-4.4137,-4.4796,-4.5364,-4.6172,-4.68,-4.7309,-4.7309,-4.7309,-4.7309,0.0,0.0,0.0,0.0,0.0,0.0,0.0,0.0,0.0,0.0,0.0,0.0,0.0,0.0,0.0,0.0,0.0,0.0,0.0,0.0,-2.3753,-2.568,-2.5369,-2.5996,-2.7833,-2.7937,-2.9455,-3.2593,-3.3628,-3.4973,-3.649,-3.549,-3.2743,-2.8579,-2.6302,-2.4174,-2.2329,-2.2231,-2.2061,-2.1842,0.0,0.0,0.0,0.0,0.0,0.0,0.0,0.0,0.0,0.0,-2.034,-2.032,-2.032,0.0,0.0,0.0,0.0,0.0,-2.032,-2.1011,-2.1578,-2.0909,-2.1787,-2.2801,-2.2685,-2.3193,-2.365,-2.3747,-2.4619,-2.5491,-2.6057,-2.7171,-2.8846,-3.13,-3.3904,-3.6207,-3.8063,-3.8901,-3.9439,-3.9828,-4.0995,-4.1384,-4.0487,-4.1265,-4.1414,-4.0397,-4.0965,-4.0935,-3.9918,-4.0217,-4.0247,-3.9888,-3.9858,-3.9858,-3.9858,-3.9858,-3.9858,-3.9858,-4.0217,-4.0367,-4.0337,-4.0367,-4.0726,-4.1354,-4.2081,-4.256,-4.288,-4.3898,-4.4706,-4.5364,-4.6052,-4.6741,-4.7309,-4.7309,-4.7309,-4.7309,0.0,0.0,0.0,0.0,0.0,0.0,0.0,0.0,0.0,0.0,0.0,0.0,0.0,0.0,0.0,0.0,0.0,0.0,0.0,0.0,-2.4206,-2.6642,-2.6695,-2.7627,-2.9696,-2.9937,-3.1731,-3.518,-3.5559,-3.6676,-3.8413,-3.494,-3.1473,-2.8064,-2.5978,-2.3906,-2.1998,-2.1911,-2.1764,-2.1617,0.0,0.0,0.0,0.0,0.0,0.0,0.0,0.0,0.0,0.0,0.0,0.0,0.0,0.0,0.0,-2.032,-2.032,-2.032,-2.032,-2.0795,-2.1301,-2.1326,-2.2332,-2.3457,-2.4064,-2.4359,-2.4702,-2.5182,-2.5805,-2.6393,-2.6956,-2.8124,-3.0131,-3.3634,-3.5729,-3.7195,-3.8003,-3.8542,-3.905,-3.9589,-4.0217,-4.0516,-4.0217,-4.0756,-4.0666,-3.9499,-4.0337,-4.0487,-3.9433,-3.9888,-3.9948,-3.9439,-3.9373,-3.9373,-3.9373,-3.9373,-3.9373,-3.9439,-3.9918,-3.9918,-3.9439,-3.9948,-4.0337,-4.0696,-4.1722,-4.2351,-4.271,-4.3658,-4.4556,-4.5334,-4.5873,-4.6591,-4.7309,-4.7309,-4.7309,-4.7309,0.0,0.0,0.0,0.0,0.0,0.0,0.0,0.0,0.0,0.0,0.0,0.0,0.0,0.0,0.0,0.0,0.0,0.0,0.0,0.0,-2.4178,-2.5109,-2.7144,-2.9937,-3.3613,-3.2317,-3.28,-3.518,-3.665,-3.7612,-3.808,-3.5761,-3.2496,-2.8498,-2.7024,-2.4725,-2.1984,-2.16,-2.1416,-2.1402,-2.1023,0.0,0.0,0.0,0.0,0.0,0.0,0.0,0.0,0.0,0.0,0.0,0.0,0.0,-2.032,-2.032,-2.032,-2.032,-2.032,-2.0795,-2.1424,-2.1907,-2.267,-2.3539,-2.4511,-2.5319,-2.6159,-2.7185,-2.7435,-2.7675,-2.8338,-3.0971,-3.3784,-3.5908,-3.7375,-3.8691,-4.0008,-4.0217,-4.0277,-4.0337,-4.0905,-4.0816,-3.9619,-4.0098,-4.0187,-3.9433,-3.9499,-3.9529,-3.9439,-3.9433,-3.9433,-3.9373,-3.9373,-3.9373,-3.9373,-3.9373,-3.9373,-3.9373,-3.9433,-3.9433,-3.9373,-3.9433,-4.0157,-4.1324,-4.1452,-4.2132,-4.323,-4.3319,-4.4137,-4.5304,-4.5334,-4.6172,-4.7309,-4.7309,-4.7309,-4.7309,0.0,0.0,0.0,0.0,0.0,0.0,0.0,0.0,0.0,0.0,0.0,0.0,0.0,0.0,0.0,0.0,0.0,0.0,0.0,-2.3405,-2.4577,-2.635,-2.7696,-2.9937,-3.3283,-3.418,-3.5572,-3.765,-3.7986,-3.7787,-3.6969,-3.4317,-3.151,-2.8565,-2.5996,-2.4183,-2.2931,-2.1713,-2.1392,-2.1596,-2.1018,-2.0728,0.0,0.0,0.0,0.0,0.0,0.0,0.0,0.0,-2.032,-2.032,-2.032,-2.032,-2.032,-2.032,-2.032,-2.032,-2.032,-2.0795,-2.1436,-2.1892,-2.2661,-2.3662,-2.5115,-2.6324,-2.7376,-2.806,-2.9175,-3.0253,-3.0911,-3.2377,-3.4143,-3.6148,-3.7554,-3.8721,-3.9649,-4.0157,-4.0247,-3.9828,-4.0367,-4.0427,-3.9499,-3.9649,-3.9679,-3.9403,-3.9373,-3.9373,-3.9373,-3.9373,-3.9373,-3.9373,-3.9373,-3.9373,-3.9373,-3.9373,-3.9373,-3.9373,-3.9373,-3.9373,-3.9373,-3.9373,-3.9679,-4.0217,-4.1025,-4.1654,-4.2192,-4.2961,-4.4107,-4.5364,-4.6232,-4.686,-4.7309,-4.7309,-4.7309,-4.7309,0.0,0.0,0.0,0.0,0.0,0.0,0.0,0.0,0.0,0.0,0.0,0.0,0.0,0.0,0.0,0.0,0.0,0.0,-2.2716,-2.3405,-2.4646,-2.6488,-2.7649,-2.9471,-3.1979,-3.4405,-3.6546,-3.8404,-3.8268,-3.7309,-3.5509,-3.3115,-3.081,-2.8614,-2.5837,-2.4424,-2.4029,-2.2129,-2.1479,-2.1652,-2.0927,-2.0561,0.0,0.0,0.0,0.0,0.0,0.0,0.0,0.0,-2.032,-2.032,-2.032,-2.032,-2.032,-2.032,-2.032,-2.032,-2.032,-2.0795,-2.1418,-2.1885,-2.2786,-2.409,-2.6193,-2.7484,-2.8505,-2.9619,-3.0883,-3.1959,-3.2437,-3.3215,-3.4382,-3.6207,-3.7554,-3.8631,-3.932,-3.9798,-3.9918,-3.9433,-3.9798,-3.9918,-3.9433,-3.9373,-3.9373,-3.9373,-3.9373,-3.9373,-3.9373,-3.9373,-3.9373,-3.9373,-3.9373,-3.932,-3.911,-3.908,-3.908,-3.908,-3.908,-3.92,-3.9373,-3.9373,-3.9529,-3.9798,-4.0905,-4.1542,-4.1811,-4.288,-4.3988,-4.5125,-4.6471,-4.698,-4.701,-4.7219,-4.7309,-4.7309,0.0,0.0,0.0,0.0,0.0,0.0,0.0,0.0,0.0,0.0,0.0,0.0,0.0,0.0,0.0,0.0,0.0,0.0,-2.2716,-2.3405,-2.4163,-2.4971,-2.6888,-2.8678,-3.0125,-3.2778,-3.5049,-3.6887,-3.7211,-3.6095,-3.3641,-3.2505,-3.0829,-2.8713,-2.6902,-2.5789,-2.515,-2.2847,-2.175,-2.1441,-2.0619,-2.032,-2.032,0.0,0.0,0.0,0.0,0.0,0.0,0.0,-2.032,-2.032,-2.032,-2.032,-2.032,-2.032,-2.032,-2.032,-2.032,-2.0795,-2.1418,-2.1885,-2.3061,-2.4906,-2.7935,-2.8763,-2.9592,-3.2018,-3.2497,-3.2497,-3.2527,-3.3604,-3.4953,-3.6267,-3.7554,-3.8631,-3.932,-3.9373,-3.9373,-3.9409,-3.9409,-3.9409,-3.9409,-3.9409,-3.9409,-3.9409,-3.9409,-3.9409,-3.9409,-3.9409,-3.9409,-3.9409,-3.9409,-3.908,-3.8392,-3.8392,-3.8392,-3.8392,-3.8392,-3.8751,-3.9373,-3.9373,-3.9768,-4.0427,-4.1085,-4.1782,-4.244,-4.306,-4.3678,-4.4436,-4.5783,-4.6279,-4.6411,-4.707,-4.7309,-4.7309,0.0,0.0,0.0,0.0,0.0,0.0,0.0,0.0,0.0,0.0,0.0,0.0,0.0,0.0,0.0,0.0,0.0,0.0,-2.2716,-2.3405,-2.3852,-2.3949,-2.6007,-2.7046,-2.6826,-2.9343,-3.2232,-3.5347,-3.5161,-3.3671,-3.1022,-3.0686,-2.9484,-2.7565,-2.6646,-2.5941,-2.5214,-2.2704,-2.1802,-2.196,-2.08,-2.032,-2.032,0.0,0.0,0.0,0.0,0.0,0.0,0.0,0.0,0.0,-2.032,-2.032,-2.032,-2.032,-2.032,-2.032,-2.032,-2.108,-2.198,-2.2495,-2.4043,-2.6122,-2.8715,-2.9012,-2.9606,-3.2587,-3.3215,-3.3335,-3.3814,-3.4622,-3.5489,-3.6357,-3.7554,-3.8452,-3.8661,-3.8691,-3.8512,-3.8063,-3.8003,-3.8003,-3.8003,-3.8003,-3.8003,-3.8003,-3.8003,-3.8003,-3.8003,-3.8003,-3.8003,-3.8003,-3.8003,-3.7913,-3.7704,-3.7704,-3.7704,-3.7704,-3.8153,-3.8751,-3.9373,-3.9373,-3.9493,-3.9738,-4.0397,-4.1055,-4.1841,-4.3359,-4.4137,-4.4436,-4.5783,-4.6279,-4.6411,-4.707,-4.7309,-4.7309,0.0,0.0,0.0,0.0,0.0,0.0,0.0,0.0,0.0,0.0,-2.2716,-2.2716,0.0,0.0,0.0,0.0,0.0,0.0,0.0,-2.3129,-2.3591,-2.4081,-2.5164,-2.595,-2.6315,-2.8115,-2.9987,-3.1931,-3.2535,-3.151,-2.9038,-2.9924,-2.9491,-2.8017,-2.7685,-2.7273,-2.6565,-2.3594,-2.2487,-2.2563,-2.0949,-2.0474,-2.069,0.0,0.0,0.0,0.0,0.0,0.0,0.0,0.0,0.0,-2.032,-2.032,-2.0272,-2.0237,-2.022,-2.0202,-2.0198,-2.1094,-2.225,-2.308,-2.4994,-2.7357,-2.9798,-3.0698,-3.1656,-3.3814,-3.4083,-3.4083,-3.4771,-3.5011,-3.54,-3.6327,-3.7135,-3.7734,-3.7973,-3.8003,-3.7853,-3.7464,-3.7404,-3.7404,-3.7404,-3.7404,-3.7404,-3.7404,-3.7404,-3.7404,-3.7404,-3.7404,-3.7404,-3.7404,-3.7404,-3.7285,-3.7045,-3.7045,-3.7045,-3.7045,-3.7434,-3.8123,-3.902,-3.929,-3.9373,-3.9433,-4.0397,-4.1294,-4.2282,-4.3718,-4.4317,-4.4436,-4.5484,-4.5753,-4.5633,-4.6561,-4.692,-4.695,0.0,0.0,-2.2838,-2.2708,0.0,0.0,0.0,0.0,0.0,0.0,-2.2716,-2.2716,0.0,0.0,0.0,0.0,0.0,0.0,0.0,0.0,-2.3336,-2.4701,-2.4363,-2.5222,-2.7462,-2.8174,-2.8174,-2.7527,-2.9642,-2.961,-2.7559,-2.9794,-3.0222,-2.9138,-2.9333,-2.9053,-2.8217,-2.4874,-2.3355,-2.2932,-2.1042,-2.069,-2.1134,-2.0518,0.0,0.0,0.0,0.0,0.0,0.0,0.0,0.0,-2.032,-2.032,-2.0272,-2.015,-2.0115,-2.0098,-2.0102,-2.1068,-2.2394,-2.3661,-2.6139,-2.8854,-3.115,-3.3185,-3.4711,-3.522,-3.4921,-3.4803,-3.54,-3.504,-3.5102,-3.6297,-3.6537,-3.6746,-3.7255,-3.7315,-3.7315,-3.7255,-3.7195,-3.7135,-3.7135,-3.7135,-3.7105,-3.7045,-3.7105,-3.7135,-3.7135,-3.7135,-3.7165,-3.7225,-3.7225,-3.6956,-3.6387,-3.6387,-3.6387,-3.6387,-3.6447,-3.7135,-3.8332,-3.902,-3.9313,-3.9463,-4.0756,-4.2013,-4.317,-4.3928,-4.4257,-4.4377,-4.5035,-4.4915,-4.4556,-4.5801,-4.6279,-4.6369,0.0,0.0,-2.2721,-2.2729,0.0,0.0,0.0,0.0,0.0,0.0,0.0,0.0,0.0,0.0,0.0,0.0,0.0,0.0,0.0,0.0,-2.2787,-2.2951,-2.3543,-2.4572,-2.6037,-2.6212,-2.6212,-2.605,-2.8207,-2.8142,-2.6115,-2.8598,-2.8756,-2.7008,-2.8356,-2.7651,-2.5373,-2.3409,-2.225,-2.1658,-2.069,-2.0381,-2.0505,-2.035,-2.032,0.0,0.0,0.0,0.0,0.0,0.0,0.0,-2.032,-2.032,-2.0272,-2.0254,-2.0185,-2.019,-2.0721,-2.1736,-2.3079,-2.4905,-2.8471,-3.1778,-3.2826,-3.4233,-3.504,-3.4113,-3.4651,-3.534,-3.5489,-3.5818,-3.6148,-3.6447,-3.6896,-3.7075,-3.6746,-3.6686,-3.6507,-3.5968,-3.5429,-3.51,-3.51,-3.51,-3.4923,-3.4382,-3.4831,-3.51,-3.51,-3.51,-3.534,-3.5908,-3.5908,-3.5848,-3.5729,-3.5729,-3.5729,-3.5729,-3.6237,-3.6896,-3.7644,-3.8302,-3.8901,-3.9433,-4.0277,-4.1055,-4.1893,-4.3021,-4.3798,-4.4377,-4.5035,-4.5214,-4.5185,-4.6022,-4.6279,-4.6369,0.0,0.0,0.0,0.0,0.0,0.0,0.0,0.0,0.0,0.0,0.0,0.0,0.0,0.0,0.0,0.0,0.0,0.0,0.0,0.0,-2.2706,-2.2709,-2.3561,-2.4165,-2.4598,-2.4903,-2.5065,-2.5065,-2.6555,-2.6717,-2.5629,-2.7412,-2.7656,-2.6682,-2.7686,-2.6953,-2.4833,-2.3372,-2.2397,-2.1689,-2.0703,-2.0505,-2.0734,-2.0443,-2.032,-2.032,-2.032,0.0,0.0,0.0,0.0,0.0,0.0,0.0,-2.0272,-2.022,-2.015,-2.0142,-2.0418,-2.1367,-2.3098,-2.6339,-2.9592,-3.2258,-3.3275,-3.4053,-3.4352,-3.3634,-3.4562,-3.54,-3.507,-3.531,-3.5462,-3.51,-3.534,-3.5549,-3.5519,-3.5519,-3.54,-3.504,-3.4713,-3.4384,-3.4023,-3.3993,-3.3873,-3.3514,-3.3814,-3.3993,-3.3993,-3.3993,-3.4173,-3.4532,-3.4532,-3.4532,-3.4532,-3.4861,-3.5011,-3.5011,-3.5699,-3.6507,-3.7434,-3.8422,-3.908,-3.9469,-4.0127,-4.0756,-4.1474,-4.2751,-4.3499,-4.3858,-4.4556,-4.4646,-4.4436,-4.5125,-4.5574,-4.5933,0.0,0.0,0.0,0.0,0.0,0.0,0.0,0.0,0.0,0.0,0.0,0.0,0.0,0.0,0.0,0.0,0.0,0.0,0.0,0.0,0.0,-2.3024,-2.3628,-2.3819,-2.3513,-2.4047,-2.4371,-2.45,-2.5098,-2.5468,-2.5573,-2.6533,-2.6924,-2.6786,-2.7086,-2.638,-2.485,-2.364,-2.2655,-2.1874,-2.0734,-2.061,-2.1073,-2.0505,-2.032,-2.032,-2.032,-2.032,-2.032,-2.032,0.0,0.0,0.0,0.0,-2.0272,-2.0168,-2.0115,-2.0076,-2.0056,-2.1159,-2.3318,-2.7405,-2.9894,-3.163,-3.2886,-3.3335,-3.3484,-3.3484,-3.4382,-3.4981,-3.4444,-3.4324,-3.4174,-3.3574,-3.3484,-3.3694,-3.4264,-3.4324,-3.4324,-3.4324,-3.4234,-3.3933,-3.3365,-3.3335,-3.3275,-3.3155,-3.3275,-3.3335,-3.3335,-3.3335,-3.3365,-3.3484,-3.3484,-3.3484,-3.3484,-3.4174,-3.4503,-3.4503,-3.531,-3.6297,-3.7464,-3.8691,-3.932,-3.9439,-4.0008,-4.0606,-4.1324,-4.2611,-4.32,-4.3349,-4.4047,-4.3947,-4.3529,-4.4107,-4.4646,-4.5244,0.0,0.0,0.0,0.0,0.0,0.0,0.0,0.0,0.0,0.0,-2.2716,-2.2716,0.0,0.0,0.0,0.0,0.0,0.0,0.0,0.0,0.0,-2.2746,-2.2862,-2.3096,-2.3481,-2.3593,-2.3917,-2.45,-2.4598,-2.4895,-2.5349,-2.6471,-2.6608,-2.5883,-2.6337,-2.5426,-2.3517,-2.2767,-2.172,-2.0566,-2.0381,-2.035,-2.0443,-2.035,-2.032,-2.032,-2.032,-2.032,-2.032,-2.032,-2.032,0.0,0.0,0.0,-2.032,-2.0272,-2.0163,-2.0162,-2.0764,-2.2637,-2.4942,-2.719,-2.9175,-3.0851,-3.16,-3.2677,-3.3484,-3.3484,-3.3634,-3.3724,-3.3634,-3.3634,-3.3604,-3.3514,-3.3484,-3.3514,-3.3604,-3.3634,-3.3634,-3.3634,-3.3125,-3.2736,-3.2647,-3.2647,-3.2378,-3.1809,-3.2317,-3.2647,-3.2647,-3.2647,-3.2916,-3.3484,-3.3484,-3.3484,-3.3484,-3.4174,-3.4503,-3.4533,-3.5791,-3.6716,-3.7434,-3.8182,-3.8841,-3.9373,-3.9463,-3.9918,-4.0636,-4.1991,-4.2821,-4.3349,-4.4047,-4.4257,-4.4197,-4.4287,-4.4377,-4.4616,0.0,0.0,0.0,0.0,0.0,0.0,0.0,0.0,0.0,0.0,0.0,-2.2716,0.0,0.0,0.0,0.0,0.0,0.0,0.0,0.0,0.0,-2.2154,-2.2139,-2.2179,-2.2264,-2.2686,-2.3237,-2.395,-2.4213,-2.4612,-2.5155,-2.5496,-2.5457,-2.5093,-2.5172,-2.4502,-2.324,-2.2563,-2.175,-2.0826,-2.0443,-2.032,-2.032,-2.032,-2.032,-2.032,-2.032,-2.032,-2.032,-2.032,-2.032,-2.032,-2.032,0.0,0.0,0.0,-2.0168,-2.018,-2.0776,-2.2264,-2.4004,-2.5525,-2.741,-2.9056,-2.9744,-3.0342,-3.0941,-3.1659,-3.0941,-3.076,-3.2617,-3.2946,-3.2826,-3.2467,-3.2407,-3.2497,-3.2886,-3.2946,-3.2946,-3.2946,-3.2348,-3.1929,-3.1929,-3.16,-3.1391,-3.1481,-3.178,-3.1929,-3.1929,-3.1929,-3.2079,-3.2348,-3.2407,-3.2587,-3.2946,-3.3604,-3.4292,-3.507,-3.5639,-3.6447,-3.7434,-3.7704,-3.8422,-3.9373,-3.9373,-3.9589,-3.9918,-4.0876,-4.1444,-4.1803,-4.2821,-4.321,-4.3269,-4.3629,-4.3988,-4.4407,0.0,0.0,0.0,0.0,0.0,0.0,0.0,0.0,0.0,0.0,0.0,0.0,0.0,0.0,0.0,0.0,0.0,0.0,0.0,0.0,0.0,0.0,0.0,-2.1495,-2.1293,-2.1859,-2.2475,-2.3204,-2.3686,-2.4188,-2.4732,-2.4632,-2.4584,-2.4523,-2.438,-2.3917,-2.324,-2.2563,-2.1904,-2.1227,-2.0549,-2.032,-2.032,-2.032,-2.032,-2.032,-2.032,-2.032,-2.032,-2.032,-2.032,-2.032,-2.032,-2.032,0.0,0.0,0.0,-2.021,-2.0858,-2.1744,-2.2813,-2.4246,-2.5734,-2.7076,-2.7889,-2.8218,-2.8667,-2.9804,-2.8846,-2.8603,-3.1061,-3.139,-3.127,-3.1241,-3.1122,-3.1301,-3.2108,-3.2228,-3.2228,-3.2228,-3.166,-3.1301,-3.1481,-3.0883,-3.0791,-3.1451,-3.1511,-3.1511,-3.1511,-3.1511,-3.1511,-3.1511,-3.1511,-3.175,-3.2228,-3.3095,-3.4173,-3.5519,-3.5519,-3.6178,-3.7404,-3.7404,-3.8153,-3.9373,-3.9373,-3.9373,-3.9499,-4.0307,-4.0636,-4.0786,-4.2102,-4.274,-4.295,-4.321,-4.3708,-4.4317,0.0,0.0,0.0,0.0,0.0,0.0,0.0,0.0,0.0,0.0,0.0,0.0,-2.2716,-2.2542,-2.2405,-2.2405,0.0,0.0,0.0,0.0,0.0,0.0,0.0,0.0,-2.1293,-2.1325,-2.1714,-2.2442,-2.2931,-2.3438,-2.3967,-2.4413,-2.4503,-2.4317,-2.4317,-2.3917,-2.324,-2.2563,-2.1904,-2.1227,-2.0549,-2.032,-2.032,-2.032,-2.032,-2.032,-2.032,-2.032,-2.032,-2.032,-2.032,-2.032,-2.032,-2.032,-2.0272,0.0,0.0,0.0,-2.1334,-2.1744,-2.2274,-2.4148,-2.4694,-2.5083,-2.6393,-2.7195,-2.7854,-2.8547,-2.8607,-2.8607,-2.8757,-2.8304,-2.8453,-3.0253,-3.0073,-3.0133,-3.1391,-3.154,-3.154,-3.154,-3.0943,-3.0821,-3.1451,-3.0883,-3.0791,-3.1451,-3.1511,-3.1511,-3.1511,-3.1511,-3.1511,-3.1511,-3.1511,-3.1511,-3.154,-3.2856,-3.4173,-3.5519,-3.5519,-3.6178,-3.7404,-3.7404,-3.8153,-3.9373,-3.9373,-3.9373,-3.9529,-4.0816,-4.1324,-4.1444,-4.2761,-4.3618,-4.4137,-4.3499,-4.3708,-4.4317,0.0,0.0,0.0,0.0,0.0,0.0,0.0,0.0,0.0,0.0,0.0,0.0,0.0,-2.338,-2.3347,-2.2887,-2.2863,0.0,0.0,0.0,0.0,0.0,0.0,0.0,0.0,-2.1293,-2.1601,-2.2195,-2.2246,-2.2749,-2.3713,-2.3747,-2.3947,-2.4317,-2.4317,-2.4164,-2.3917,-2.324,-2.2778,-2.2551,-2.1843,-2.1596,-2.1535,-2.1103,-2.1196,-2.1535,-2.1103,-2.1227,-2.1504,-2.1073,-2.1227,-2.1442,-2.0549,-2.0545,-2.0684,-2.0079,-1.9887,-1.9954,-2.0325,-2.0756,-2.1374,-2.2473,-2.337,-2.4088,-2.4567,-2.5196,-2.5884,-2.6542,-2.6309,-2.6452,-2.7735,-2.7764,-2.7824,-2.8543,-2.8816,-2.9116,-2.9567,-3.0013,-3.0283,-3.0283,-3.0073,-3.0163,-3.0821,-3.0642,-3.0791,-3.1451,-3.1511,-3.1511,-3.1511,-3.1511,-3.1511,-3.1511,-3.1511,-3.1899,-3.2796,-3.3694,-3.4592,-3.5519,-3.5519,-3.6178,-3.7404,-3.7404,-3.8153,-3.9373,-3.9373,-3.9373,-3.9463,-4.0397,-4.0756,-4.0876,-4.2192,-4.2851,-4.309,-4.3269,-4.3439,-4.3648,0.0,0.0,0.0,0.0,0.0,-2.2689,-2.2623,-2.2609,-2.2651,-2.2808,0.0,0.0,0.0,0.0,-2.403,-2.3619,-2.3408,-2.3471,-2.3805,-2.3172,0.0,0.0,0.0,0.0,0.0,-2.1601,-2.1729,-2.2094,-2.209,-2.2491,-2.3254,-2.3308,-2.3671,-2.4317,-2.4317,-2.4194,-2.3948,-2.3486,-2.3179,-2.2932,-2.249,-2.2305,-2.2274,-2.2058,-2.212,-2.2255,-2.2058,-2.212,-2.2224,-2.1781,-2.1935,-2.2101,-2.0944,-2.0605,-2.0552,-1.9954,-1.978,-1.9834,-2.0247,-2.0528,-2.0957,-2.2054,-2.2652,-2.3071,-2.349,-2.3939,-2.4455,-2.5113,-2.4903,-2.5083,-2.6632,-2.6722,-2.6871,-2.7794,-2.8098,-2.8397,-2.8876,-2.9295,-2.9621,-2.9621,-2.9621,-2.9861,-3.0432,-3.0492,-3.0791,-3.1451,-3.1511,-3.1511,-3.1511,-3.1511,-3.1511,-3.1511,-3.172,-3.2348,-3.3484,-3.4174,-3.4863,-3.5519,-3.5729,-3.6387,-3.7434,-3.7644,-3.8362,-3.9373,-3.9373,-3.9373,-3.9463,-4.0367,-4.0726,-4.0876,-4.2162,-4.2821,-4.303,-4.3269,-4.3439,-4.3589,0.0,-2.2716,-2.2716,-2.2716,-2.2716,-2.2684,-2.2466,-2.2473,-2.2626,-2.31,0.0,0.0,0.0,0.0,0.0,-2.4504,-2.4533,-2.4533,-2.4533,-2.3885,0.0,0.0,0.0,0.0,-2.241,-2.221,-2.2126,-2.2109,-2.242,-2.2611,-2.2624,-2.3072,-2.3671,-2.4317,-2.4317,-2.3917,-2.3302,-2.3332,-2.2932,-2.2347,-2.2347,-2.2347,-2.2428,-2.3055,-2.2902,-2.2459,-2.3055,-2.2902,-2.2366,-2.2336,-2.2336,-2.2205,-2.1418,-2.0552,-1.9827,-1.9858,-1.9804,-2.0037,0.0,0.0,0.0,-2.3101,-2.2622,-2.2054,-2.3281,-2.358,-2.3789,-2.4425,-2.4575,-2.4814,-2.5442,-2.5053,-2.5501,-2.8128,-2.8004,-2.8034,-2.9322,-2.9532,-2.9562,-2.9562,-2.9592,-2.9831,-3.0432,-3.0522,-3.0821,-3.1451,-3.1511,-3.1511,-3.1511,-3.1511,-3.1511,-3.1511,-3.2138,-3.2826,-3.3484,-3.4174,-3.4863,-3.5519,-3.6148,-3.6806,-3.7464,-3.8093,-3.8751,-3.9439,-3.9403,-3.9373,-3.9529,-4.0846,-4.1422,-4.1504,-4.2821,-4.3678,-4.4197,-4.3529,-4.3708,-4.4197,-2.2716,-2.2716,-2.2716,-2.2716,-2.3129,-2.3481,-2.3426,-2.3907,-2.4267,0.0,0.0,0.0,-2.4728,-2.454,-2.4643,-2.5227,-2.4806,-2.4727,-2.526,-2.4612,-2.4144,-2.395,-2.3065,-2.2704,-2.2914,-2.272,-2.256,-2.2465,-2.2542,-2.2773,-2.3103,-2.3229,-2.3671,-2.4317,-2.4317,-2.3917,-2.3332,-2.3825,-2.3917,-2.3763,-2.3763,-2.3763,-2.3702,-2.3425,-2.3486,-2.3702,-2.3425,-2.3486,-2.3671,-2.3179,-2.3363,-2.362,-2.2746,-2.1254,0.0,-2.0895,-2.0816,0.0,-2.1455,0.0,0.0,0.0,0.0,0.0,-2.2882,-2.3302,-2.352,-2.3281,-2.3947,-2.4664,-2.4844,-2.5113,-2.5711,-2.6961,-2.7016,-2.7016,-2.738,-2.7854,-2.8154,-2.8154,-2.9022,-2.9681,-2.9834,-3.0702,-3.1301,-3.1481,-3.1511,-3.1511,-3.1511,-3.1511,-3.1511,-3.1511,-3.2138,-3.2826,-3.3484,-3.4174,-3.4863,-3.5519,-3.5699,-3.6596,-3.8093,-3.7823,-3.8571,-4.0098,-3.9619,-3.9373,-3.9529,-4.0846,-4.1422,-4.1504,-4.2821,-4.3409,-4.3529,-4.3349,-4.3409,-4.3529,-2.2716,-2.2957,-2.3164,-2.3164,-2.3701,-2.4115,-2.3979,-2.4264,-2.4516,0.0,0.0,0.0,-2.5778,-2.5849,-2.5907,-2.6069,-2.5681,-2.5454,-2.5597,-2.4903,-2.4446,-2.4388,-2.3569,-2.3205,-2.3419,-2.3235,-2.3099,-2.3035,-2.2909,-2.303,-2.3302,-2.3302,-2.3671,-2.4317,-2.4317,-2.4102,-2.3733,-2.3856,-2.3887,-2.3917,-2.4194,-2.4317,-2.4266,-2.4153,-2.4163,-2.4255,-2.407,-2.408,-2.4131,-2.3713,-2.3631,-2.36,-2.3081,-2.1842,-2.0734,-2.1475,-2.1425,0.0,0.0,0.0,0.0,-2.2853,0.0,0.0,-2.3032,-2.334,-2.349,-2.3152,-2.367,-2.4276,-2.4545,-2.4933,-2.5472,-2.6452,-2.6602,-2.6602,-2.6602,-2.6956,-2.7195,-2.7195,-2.8393,-2.9292,-2.9592,-3.0761,-3.1511,-3.1511,-3.1511,-3.1511,-3.1511,-3.1511,-3.1511,-3.1511,-3.2407,-3.3095,-3.3484,-3.4442,-3.51,-3.5519,-3.5789,-3.6776,-3.8392,-3.8302,-3.902,-4.0367,-4.0008,-3.9828,-3.9918,-4.0935,-4.1422,-4.1504,-4.2821,-4.3469,-4.3678,-4.3379,-4.3469,-4.3678,0.0,-2.3343,-2.3812,-2.4012,-2.4443,-2.4726,-2.4673,-2.4364,-2.4329,0.0,-2.5095,-2.5727,-2.7005,-2.7492,-2.7462,-2.6847,-2.6749,-2.6426,-2.5759,-2.5033,-2.4539,-2.4369,-2.3706,-2.3551,-2.4018,-2.3807,-2.369,-2.367,-2.3493,-2.3425,-2.3425,-2.3425,-2.3733,-2.4317,-2.4317,-2.4317,-2.4256,-2.3671,-2.3425,-2.3456,-2.3979,-2.4235,-2.4337,-2.4866,-2.4722,-2.4242,-2.4715,-2.452,-2.4003,-2.4003,-2.3464,-2.2817,-2.2877,-2.2344,-2.1724,-2.1874,-2.1844,0.0,0.0,0.0,0.0,-2.331,-2.3212,0.0,-2.346,-2.361,-2.361,-2.361,-2.361,-2.3789,-2.4365,-2.4425,-2.4814,-2.6153,-2.6363,-2.6452,-2.6686,-2.6692,-2.6662,-2.6602,-2.7859,-2.8906,-2.9442,-3.0703,-3.1511,-3.1511,-3.1511,-3.1511,-3.1511,-3.1511,-3.1511,-3.1511,-3.2796,-3.3484,-3.3484,-3.4831,-3.5519,-3.5519,-3.6088,-3.7135,-3.8512,-3.905,-3.9738,-4.0516,-4.0427,-4.0397,-4.0457,-4.1115,-4.1414,-4.1624,-4.2811,-4.3708,-4.4227,-4.3529,-4.3708,-4.4227,-2.3474,-2.3548,-2.3955,-2.5409,-2.5571,-2.5939,-2.7362,-2.6807,-2.6589,-2.7663,-2.7413,-2.725,-2.7542,-2.7644,-2.7656,-2.7527,-2.7008,-2.662,-2.649,-2.581,-2.5371,-2.5314,-2.5034,-2.4831,-2.4796,-2.4527,-2.4326,-2.4143,-2.4123,-2.4102,-2.4102,-2.4102,-2.4164,-2.4317,-2.4317,-2.4317,-2.4287,-2.4164,-2.4102,-2.4071,-2.3671,-2.3784,-2.4223,-2.4355,-2.4231,-2.4055,-2.4155,-2.4125,-2.4003,-2.4003,-2.3464,-2.2908,-2.342,-2.2725,-2.1904,-2.2921,-2.2912,-2.2643,-2.3251,-2.334,-2.3281,-2.355,-2.352,0.0,-2.358,-2.361,-2.361,-2.361,-2.361,-2.364,-2.3759,-2.34,-2.349,-2.4784,-2.4993,-2.5555,-2.7195,-2.7405,-2.7195,-2.6662,-2.8248,-2.9235,-2.8816,-3.0434,-3.1511,-3.1511,-3.1511,-3.1511,-3.1511,-3.1511,-3.1511,-3.1511,-3.2796,-3.3484,-3.3484,-3.4831,-3.5519,-3.5519,-3.5639,-3.6926,-3.92,-3.8781,-3.9529,-4.1145,-4.0636,-4.0397,-4.0457,-4.1115,-4.1722,-4.2291,-4.303,-4.3708,-4.4227,-4.3529,-4.3708,-4.4227,-2.4232,-2.4579,-2.5015,-2.5941,0.0,-2.6911,-2.781,-2.7559,-2.7476,-2.8089,-2.8217,-2.8239,-2.8239,-2.8563,-2.8649,-2.8271,-2.7948,-2.7591,-2.7235,-2.676,-2.6306,-2.5822,-2.5604,-2.5244,-2.4666,-2.4523,-2.4421,-2.4317,-2.4317,-2.4317,-2.4317,-2.4317,-2.4317,-2.4317,-2.4317,-2.4317,-2.4287,-2.3948,-2.3989,-2.4204,-2.3866,-2.3938,-2.4202,-2.4046,-2.3961,-2.3897,-2.3803,-2.4023,-2.4264,-2.3902,-2.398,-2.4184,-2.4184,-2.3953,-2.3699,-2.4007,-2.3857,-2.364,-2.361,-2.3849,-2.4007,-2.3699,-2.3849,0.0,0.0,-2.361,-2.361,-2.361,-2.361,-2.361,-2.361,-2.334,-2.346,-2.4455,-2.4605,-2.5173,-2.6866,-2.7106,-2.6986,-2.6632,-2.7794,-2.8723,-2.9056,-3.0253,-3.1122,-3.1481,-3.1511,-3.1511,-3.1511,-3.1511,-3.166,-3.1989,-3.2976,-3.3664,-3.3993,-3.5011,-3.5519,-3.5519,-3.6148,-3.7494,-3.9403,-3.9738,-4.0643,-4.1871,-4.1175,-4.1085,-4.1422,-4.1422,-4.1953,-4.288,-4.317,-4.3888,-4.4676,-4.3648,-4.3958,-4.4676,-2.5074,-2.565,-2.6136,-2.6473,0.0,0.0,0.0,-2.7929,-2.7895,-2.7903,-2.853,-2.9005,-2.9005,-2.9524,-2.9718,-2.9243,-2.8909,-2.8532,-2.808,-2.7592,-2.6988,-2.623,-2.6041,-2.5539,-2.4596,-2.4565,-2.4482,-2.4317,-2.4317,-2.4317,-2.4317,-2.4317,-2.4317,-2.4266,-2.4164,-2.4194,-2.4256,-2.3733,-2.3825,-2.4386,-2.4487,-2.4395,-2.4139,-2.4048,-2.3902,-2.3812,-2.3803,-2.4216,-2.4724,-2.4178,-2.4717,-2.5525,-2.4963,-2.5143,-2.5495,-2.4963,-2.4784,-2.4664,-2.4148,-2.4365,-2.4664,-2.4118,-2.4365,-2.4605,0.0,0.0,0.0,-2.364,-2.361,-2.361,-2.361,-2.352,-2.364,-2.4306,-2.4425,-2.4874,-2.6213,-2.6512,-2.6602,-2.6602,-2.7315,-2.8214,-2.9295,-3.0193,-3.0913,-3.1451,-3.1511,-3.1511,-3.1511,-3.1511,-3.1809,-3.2497,-3.3155,-3.3814,-3.4503,-3.516,-3.5519,-3.5519,-3.6806,-3.8123,-3.9433,-4.0786,-4.1782,-4.2351,-4.1692,-4.1722,-4.2171,-4.1632,-4.2073,-4.311,-4.323,-4.4137,-4.5125,-4.3768,-4.4167,-4.5095,-2.5971,-2.5857,-2.6241,-2.787,0.0,0.0,0.0,0.0,-2.8555,-2.8647,-2.9329,-2.9783,-2.9783,-2.9848,-3.0107,-3.0613,-2.9305,-2.8682,-2.9281,-2.7868,-2.702,-2.6882,-2.6861,-2.6439,-2.557,-2.5539,-2.5123,-2.4317,-2.4317,-2.4317,-2.4317,-2.4317,-2.4317,-2.4287,-2.3671,-2.3733,-2.4317,-2.4225,-2.448,-2.5046,-2.5567,-2.5089,-2.4064,-2.4519,-2.4324,-2.3872,-2.432,-2.4903,-2.5472,-2.5405,-2.5465,-2.5585,-2.5501,-2.5555,-2.5585,-2.5501,-2.5495,-2.5465,-2.5382,-2.5435,-2.5465,-2.5405,-2.5435,-2.5292,-2.4634,0.0,-2.4306,-2.3729,0.0,-2.361,-2.361,0.0,0.0,-2.361,-2.3699,-2.4178,-2.5525,-2.6213,-2.6602,-2.6602,-2.7709,-2.8547,-2.8697,-3.0315,-3.1421,-3.1481,-3.1511,-3.1511,-3.1511,-3.1511,-3.1809,-3.2497,-3.3155,-3.3814,-3.4503,-3.516,-3.5519,-3.5519,-3.6806,-3.8123,-3.9433,-4.0786,-4.1782,-4.2351,-4.1692,-4.1452,-4.1542,-4.1414,-4.1841,-4.256,-4.312,-4.4137,-4.5125,-4.3768,-4.4167,-4.5095,-2.6695,-2.6705,-2.6879,-2.7645,0.0,0.0,0.0,0.0,-2.9365,-2.9437,-2.9718,-2.988,-2.988,-3.0247,-3.0441,-3.0312,-2.9949,-2.9653,-2.9493,-2.8568,-2.7816,-2.7409,-2.7297,-2.6851,-2.6081,-2.6081,-2.5914,-2.5518,-2.5087,-2.4902,-2.4902,-2.4902,-2.4902,-2.4881,-2.5025,-2.5241,-2.5518,-2.5453,-2.5487,-2.5628,-2.5819,-2.5538,-2.5055,-2.522,-2.5085,-2.4875,-2.5106,-2.5615,-2.6123,-2.5734,-2.6123,-2.6716,-2.6303,-2.6452,-2.6662,-2.6303,-2.6183,-2.6093,-2.5704,-2.5884,-2.6093,-2.5704,-2.5884,-2.6004,-2.5322,-2.4874,-2.4515,-2.4246,0.0,0.0,0.0,0.0,0.0,0.0,-2.361,-2.3939,-2.4874,-2.5615,-2.6303,-2.7106,-2.7675,-2.8334,-2.9086,-3.0584,-3.1511,-3.1511,-3.1511,-3.1511,-3.1511,-3.1511,-3.1989,-3.3066,-3.3335,-3.3993,-3.507,-3.537,-3.5699,-3.6088,-3.7764,-3.908,-4.0038,-4.1743,-4.2671,-4.288,-4.1833,-4.1803,-4.2462,-4.1683,-4.1983,-4.3,-4.3658,-4.4466,-4.5125,-4.3768,-4.4167,-4.5095,-2.7457,-2.7356,-2.7239,-2.7445,-2.7656,0.0,0.0,-2.9538,-2.988,-2.988,-2.988,-2.9977,-3.0139,-3.0797,-3.1089,-3.0788,-3.101,-3.0846,-3.0041,-2.9344,-2.8654,-2.793,-2.7767,-2.7334,-2.6603,-2.6657,-2.6565,-2.6402,-2.5857,-2.561,-2.561,-2.561,-2.561,-2.5641,-2.5949,-2.6195,-2.6335,-2.6244,-2.6222,-2.6213,-2.6307,-2.632,-2.6242,-2.5835,-2.5848,-2.6123,-2.5944,-2.6303,-2.6806,-2.6303,-2.6806,-2.7525,-2.7046,-2.7225,-2.7495,-2.7016,-2.6896,-2.6776,-2.6273,-2.6482,-2.6752,-2.6273,-2.6512,-2.6692,-2.6033,-2.5525,-2.5083,-2.4903,-2.4507,0.0,0.0,0.0,-2.3879,-2.3879,0.0,-2.3849,-2.4515,-2.5173,-2.6033,-2.7195,-2.7645,-2.8274,-2.9205,-3.0492,-3.1212,-3.1212,-3.1391,-3.1511,-3.1511,-3.166,-3.2288,-3.3455,-3.3664,-3.4322,-3.5489,-3.5519,-3.5848,-3.6507,-3.8482,-3.9768,-4.0457,-4.2393,-4.32,-4.3,-4.1863,-4.1833,-4.2423,-4.1713,-4.1953,-4.291,-4.3928,-4.4706,-4.5155,-4.4018,-4.4317,-4.5095,-2.8235,-2.7468,0.0,-2.7742,-2.8257,-2.8948,-3.0075,-3.0032,-2.988,-2.988,-2.988,-3.0139,-3.0807,-3.1519,-3.2255,-3.2959,-3.2747,-3.2212,-3.1209,-3.0277,-2.9353,-2.8436,-2.8381,-2.8042,-2.7365,-2.7365,-2.7057,-2.6402,-2.6402,-2.6371,-2.6371,-2.6371,-2.6371,-2.6318,-2.5641,-2.5667,-2.6191,-2.6191,-2.6427,-2.6826,-2.7459,-2.7655,-2.743,-2.6266,-2.6543,-2.7435,-2.6806,-2.7016,-2.7555,-2.7525,-2.7555,-2.7585,-2.7555,-2.7585,-2.7585,-2.7555,-2.7555,-2.7555,-2.7525,-2.7555,-2.7555,-2.7525,-2.7555,-2.7375,-2.6722,-2.6542,-2.6333,-2.5704,-2.5555,-2.5555,-2.5555,-2.4993,-2.4575,-2.4575,-2.4007,0.0,0.0,-2.5173,-2.5854,-2.6542,-2.7769,-2.8577,-2.8637,-2.9774,-3.0522,-3.0522,-3.1122,-3.1511,-3.1511,-3.2108,-3.2796,-3.3484,-3.4144,-3.4771,-3.5489,-3.5519,-3.5848,-3.6507,-3.8482,-3.9768,-4.0457,-4.2393,-4.3,-4.2381,-4.1722,-4.1055,-4.0546,-4.1145,-4.1414,-4.1624,-4.3569,-4.4706,-4.5214,-4.4526,-4.4706,-4.5095,-2.8767,-2.849,-2.83,-2.887,-2.8557,-2.8385,-2.8726,-2.9106,-2.9754,-3.0867,-3.1019,-3.154,-3.2878,-3.348,-3.3508,-3.2826,-3.2806,-3.23,-3.1005,-3.0447,-2.9842,-2.9089,-2.9033,-2.875,-2.8073,-2.8073,-2.795,-2.7734,-2.7272,-2.7057,-2.7057,-2.7057,-2.7057,-2.7057,-2.7272,-2.7418,-2.7514,-2.7418,-2.7394,-2.7459,-2.7625,-2.7665,-2.7555,-2.7155,-2.722,-2.7555,-2.7345,-2.7405,-2.7585,-2.7585,-2.7585,-2.7585,-2.7585,-2.7585,-2.7585,-2.7585,-2.7585,-2.7585,-2.7585,-2.7585,-2.7585,-2.7585,-2.7585,-2.7525,-2.7315,-2.6926,-2.6542,-2.6303,-2.5914,-2.5615,-2.5615,-2.5412,-2.5262,-2.5262,-2.5053,-2.5016,0.0,-2.5854,-2.6512,-2.7195,-2.8038,-2.8607,-2.8607,-2.9385,-3.0073,-3.0462,-3.0731,-3.1032,-3.1481,-3.2138,-3.2826,-3.3484,-3.4174,-3.4801,-3.5489,-3.5519,-3.6058,-3.7105,-3.8661,-3.9978,-4.1085,-4.2641,-4.297,-4.2351,-4.1692,-4.1265,-4.1055,-4.1294,-4.1662,-4.2261,-4.4197,-4.5095,-4.5214,-4.4556,-4.4736,-4.5095,-2.9447,-2.9607,-2.9597,-2.9437,-2.8867,-2.8575,-2.8933,-2.946,-3.0267,-3.1635,-3.2042,-3.2666,-3.3995,-3.4606,-3.4536,-3.3646,-3.3702,-3.3146,-3.1633,-3.114,-3.0552,-2.9797,-2.974,-2.9433,-2.8781,-2.875,-2.8658,-2.8411,-2.798,-2.7765,-2.7765,-2.7765,-2.7765,-2.7765,-2.8227,-2.8314,-2.8113,-2.8044,-2.789,-2.7715,-2.761,-2.7585,-2.7585,-2.7585,-2.7585,-2.7585,-2.7585,-2.7585,-2.7585,-2.7585,-2.7585,-2.7585,-2.7585,-2.7585,-2.7585,-2.7585,-2.7585,-2.7645,-2.7884,-2.7794,-2.7645,-2.7914,-2.7794,-2.7585,-2.7585,-2.7255,-2.6956,-2.6956,-2.6602,-2.6303,-2.6303,-2.6123,-2.5944,0.0,0.0,-2.5704,0.0,-2.6333,-2.6866,-2.7525,-2.7974,-2.8218,-2.8218,-2.8846,-2.9505,-3.0133,-3.0372,-3.0791,-3.1481,-3.2348,-3.3066,-3.3484,-3.4382,-3.507,-3.5519,-3.5729,-3.6387,-3.7434,-3.902,-4.0337,-4.1414,-4.2731,-4.2851,-4.2021,-4.1602,-4.1235,-4.1055,-4.1294,-4.1811,-4.259,-4.4526,-4.5304,-4.5244,-4.4825,-4.4646,-4.4496,-3.0221,-3.0755,-3.0771,-2.9506,-2.9187,-2.9466,-3.0583,-3.0959,-3.1394,-3.2157,-3.2877,-3.354,-3.4234,-3.4932,-3.531,-3.5279,-3.537,-3.4719,-3.3037,-3.2293,-3.1446,-3.0505,-3.0448,-3.014,-2.9464,-2.9427,-2.9089,-2.8442,-2.8411,-2.8411,0.0,0.0,0.0,0.0,-2.8411,-2.8266,-2.7995,-2.7995,-2.784,-2.7585,-2.7585,-2.7585,-2.7585,-2.7585,-2.7585,-2.7585,-2.7585,-2.7585,-2.7585,-2.7585,-2.7585,-2.7615,-2.7645,-2.7645,-2.7645,-2.7675,-2.7705,-2.7854,-2.8457,-2.8158,-2.7854,-2.8487,-2.8184,-2.7705,-2.7705,-2.7705,-2.7675,-2.7645,-2.7645,-2.7645,-2.7615,-2.7076,-2.6632,0.0,0.0,-2.5914,-2.6542,-2.6632,-2.6896,-2.7525,-2.7585,-2.7585,-2.7585,-2.8188,-2.8876,-2.9562,-3.0163,-3.0791,-3.1481,-3.2766,-3.3484,-3.3484,-3.4801,-3.5519,-3.5549,-3.6178,-3.6806,-3.7494,-3.9439,-4.0756,-4.1414,-4.2701,-4.2611,-4.1482,-4.1392,-4.0995,-4.0487,-4.1115,-4.1811,-4.259,-4.4526,-4.5304,-4.5304,-4.5304,-4.4466,-4.3379,-3.0823,-3.0933,-3.0805,-3.0455,-2.9707,-2.9327,-2.9692,-3.0595,-3.176,-3.3266,-3.4016,-3.4776,-3.5739,-3.5765,-3.5558,-3.5026,-3.529,-3.4835,-3.3357,-3.311,-3.2434,-3.1182,-3.112,-3.0843,-3.0171,-2.9648,-2.9335,-2.915,-2.8658,-2.8411,-2.8411,0.0,0.0,0.0,0.0,-2.8266,-2.7995,-2.7995,-2.784,-2.7585,-2.7585,-2.7585,-2.7585,-2.7585,-2.7585,-2.7585,-2.7585,-2.7585,-2.7585,-2.7585,-2.7585,-2.7675,-2.8188,-2.8338,-2.8427,-2.8963,-2.9082,-2.9142,-2.9322,-2.9232,-2.9142,-2.9295,-2.9232,-2.9082,-2.9082,-2.9082,-2.8963,-2.8427,-2.8338,-2.8188,-2.7675,-2.7465,-2.7345,-2.7345,-2.7195,-2.7165,-2.7315,-2.7345,-2.7405,-2.7585,-2.7585,-2.7585,-2.7585,-2.8188,-2.8876,-2.9562,-3.0163,-3.0791,-3.1481,-3.2766,-3.3484,-3.3484,-3.4801,-3.5729,-3.6237,-3.6387,-3.7045,-3.8153,-3.9679,-4.0756,-4.1452,-4.2222,-4.247,-4.2081,-4.1085,-4.0816,-4.1145,-4.1362,-4.1811,-4.259,-4.4526,-4.5304,-4.5304,-4.5304,-4.4466,-4.3379,-3.1549,-3.145,-3.1292,-3.1292,-3.0622,-3.0188,-3.0516,-3.1279,-3.2248,-3.3494,-3.4519,-3.5348,-3.5933,-3.585,-3.5576,-3.5203,-3.4809,-3.4229,-3.346,-3.3121,-3.2628,-3.1859,-3.1828,-3.152,-3.0843,-3.0171,-2.9679,-2.9402,-2.875,-2.8411,-2.8411,0.0,0.0,0.0,0.0,-2.8266,-2.7995,-2.7865,-2.774,-2.7585,-2.7585,-2.7585,0.0,-2.7585,-2.7585,-2.7585,-2.7585,-2.7585,-2.7585,-2.7585,-2.7585,-2.7735,-2.8397,-2.8607,-2.8727,-2.9412,-2.9621,-2.9681,-2.9924,-2.9774,-2.9681,-2.9924,-2.9801,-2.9621,-2.9621,-2.9621,-2.9502,-2.9116,-2.9026,-2.8906,-2.8543,-2.8244,-2.8034,-2.8034,-2.8034,-2.8154,-2.8423,-2.8483,-2.8483,-2.8483,-2.8483,-2.8364,-2.8094,-2.8368,-2.8876,-2.9562,-3.0163,-3.0791,-3.1481,-3.2766,-3.3484,-3.3484,-3.4801,-3.5818,-3.6477,-3.6746,-3.7404,-3.8422,-4.0038,-4.1025,-4.1414,-4.2111,-4.241,-4.2321,-4.0965,-4.0756,-4.1422,-4.1422,-4.1991,-4.3039,-4.4975,-4.5574,-4.5304,-4.5304,-4.4466,-4.3439,-3.2212,-3.2177,-3.2028,-3.2028,-3.1782,-3.1754,-3.2183,-3.2467,-3.2853,-3.3457,-3.4594,-3.5334,-3.5244,-3.5214,-3.5214,-3.5214,-3.4198,-3.349,-3.3398,-3.2844,-3.2475,-3.2382,-3.2382,-3.2105,-3.1547,-3.0812,-3.0109,-2.9525,-2.8781,-2.8411,0.0,0.0,0.0,0.0,0.0,0.0,-2.797,-2.7831,-2.776,-2.7735,-2.7735,-2.7794,-2.7854,-2.7764,-2.7794,-2.7854,-2.7854,-2.7735,-2.7585,-2.7585,-2.7645,-2.7854,-2.8517,-2.8786,-2.8996,-2.9654,-2.9834,-2.9953,-3.0492,-3.0253,-2.9953,-3.0492,-3.0253,-2.9834,-2.9834,-2.9834,-2.9804,-2.9741,-2.9741,-2.9711,-2.9621,-2.9116,-2.8727,-2.8727,-2.8727,-2.8936,-2.9532,-2.9621,-2.9621,-2.9621,-2.9621,0.0,-2.8786,-2.8816,-2.9056,-2.9562,-3.0253,-3.0913,-3.16,-3.2826,-3.3544,-3.3634,-3.4861,-3.5848,-3.6596,-3.7135,-3.7793,-3.8542,-4.0457,-4.1422,-4.1414,-4.2111,-4.244,-4.244,-4.0995,-4.0876,-4.1624,-4.1444,-4.2282,-4.3808,-4.5633,-4.5903,-4.5304,-4.5394,-4.4586,-4.3589,-3.2572,-3.2685,-3.2749,-3.2797,-3.3316,-3.3615,-3.3087,-3.3483,-3.3921,-3.4251,-3.4438,-3.4332,-3.3825,-3.3767,-3.3767,-3.3767,-3.4104,-3.4073,-3.3429,-3.3306,-3.2967,-3.2413,-3.2382,-3.2351,-3.2228,-3.1028,-3.0325,-3.0233,-2.8996,-2.8411,-2.8411,-2.8411,0.0,0.0,0.0,0.0,-2.7846,-2.8363,-2.8527,-2.8427,-2.8427,-2.8757,-2.9202,-2.8637,-2.8757,-2.9262,-2.9262,-2.8543,-2.7585,-2.7585,-2.7974,-2.8547,-2.9205,-2.9774,-3.0313,-3.0972,-3.1152,-3.1182,-3.1301,-3.1241,-3.1182,-3.1301,-3.1241,-3.1152,-3.1152,-3.1152,-3.1002,-3.0462,-3.0342,-3.0193,-2.9711,-2.9502,-2.9415,-2.9415,-2.9415,-2.9472,-2.9592,-2.9621,-2.9621,-2.9621,-2.9621,-2.9562,-2.9442,-2.9864,-3.0013,-2.9651,-3.0672,-3.16,-3.2288,-3.3066,-3.3754,-3.4324,-3.51,-3.6058,-3.7225,-3.7345,-3.8033,-3.926,-4.0696,-4.1422,-4.1414,-4.2111,-4.2641,-4.306,-4.1205,-4.1384,-4.2871,-4.1833,-4.2791,-4.5065,-4.5963,-4.5903,-4.5364,-4.5933,-4.5304,-4.4257,-3.3604,-3.3766,-3.4038,-3.448,-3.4904,-3.5208,-3.5332,-3.5168,-3.4658,-3.3562,-3.39,-3.4038,-3.3455,-3.3398,-3.3398,-3.3398,-3.3398,-3.3244,-3.2906,-3.2875,-3.2721,-3.2413,-3.2382,-3.2382,-3.2382,-3.1089,-3.0386,-3.0386,-2.9033,-2.8411,-2.8411,-2.8411,-2.8411,-2.8387,0.0,-2.8014,-2.7951,-2.8463,-2.8655,-2.8637,-2.8966,-2.9295,-2.9562,-2.9235,-2.9295,-2.9621,-2.9621,-2.9202,-2.8633,-2.8633,-2.8843,-2.9235,-2.9864,-3.0253,-3.0642,-3.1301,-3.1511,-3.1511,-3.1511,-3.1511,-3.1511,-3.1511,-3.1511,-3.1511,-3.1511,-3.1511,-3.1421,-3.1092,-3.1002,-3.0793,-3.0193,-3.0073,-3.0073,-3.0073,-3.0073,-3.0193,-3.0552,-3.0582,-3.0582,-3.0582,-3.0582,-3.0462,-3.0103,-3.0642,-3.0761,-3.0103,-3.0943,-3.163,-3.1959,-3.2946,-3.3634,-3.3963,-3.4981,-3.6118,-3.7404,-3.7404,-3.8093,-3.9439,-4.0756,-4.1422,-4.1414,-4.2111,-4.2731,-4.32,-4.1624,-4.1444,-4.2312,-4.2372,-4.3329,-4.4915,-4.6292,-4.6202,-4.5364,-4.6082,-4.5693,-4.4915,-3.4945,-3.4877,-3.5138,-3.6213,-3.633,-3.6472,-3.7149,-3.6909,-3.5825,-3.3536,-3.3701,-3.3822,-3.3424,-3.3275,-3.3183,-3.3183,-3.269,-3.2382,-3.2382,-3.2382,-3.2382,-3.2382,-3.2382,-3.2382,-3.2382,-3.1089,-3.0386,-3.0386,-2.9033,-2.8411,-2.8411,-2.8411,-2.8387,-2.8363,-2.8295,-2.8232,-2.8213,-2.8798,-2.9022,-2.9056,-2.9564,-2.9864,-2.9983,-2.9834,-2.9864,-2.9983,-2.9983,-2.9983,-2.9983,-2.9983,-2.9894,-2.9864,-3.0342,-3.0612,-3.0821,-3.1361,-3.1511,-3.1511,-3.1511,-3.1511,-3.1511,-3.1511,-3.1511,-3.1511,-3.1511,-3.1511,-3.1511,-3.1511,-3.1511,-3.1331,-3.0821,-3.0731,-3.0731,-3.0731,-3.0731,-3.0883,-3.1421,-3.1511,-3.1511,-3.1511,-3.1511,-3.1301,-3.0733,-3.1182,-3.1271,-3.0761,-3.1182,-3.163,-3.1899,-3.2946,-3.3634,-3.3903,-3.4951,-3.6118,-3.7404,-3.7404,-3.8093,-3.9439,-4.0756,-4.1422,-4.1452,-4.2261,-4.2851,-4.323,-4.1953,-4.1422,-4.1504,-4.294,-4.3888,-4.4706,-4.6591,-4.6471,-4.5394,-4.6232,-4.6022,-4.5424,-3.6457,-3.5636,-3.5424,-3.7374,-3.7318,-3.7028,-3.711,-3.8037,-3.8077,-3.626,-3.4419,-3.3316,-3.3393,-3.2844,-3.2475,-3.2475,-3.2444,-3.2382,-3.2382,-3.2382,-3.2382,-3.2382,-3.2382,-3.2382,-3.2382,-3.1089,-3.0386,-3.0386,-2.9033,-2.8411,-2.8411,-2.8411,-2.8363,-2.8241,-2.8828,-2.8951,-2.8781,-2.9994,-3.0426,-3.0342,-3.0402,-3.0791,-3.1241,-3.0642,-3.0791,-3.1331,-3.1331,-3.1331,-3.1331,-3.1331,-3.0913,-3.0432,-3.0492,-3.0913,-3.1421,-3.1481,-3.1511,-3.1511,-3.1511,-3.1511,-3.1511,-3.1511,-3.1511,-3.1511,-3.1511,-3.1511,-3.1511,-3.1511,-3.1511,-3.1481,-3.1421,-3.1421,-3.1421,-3.1421,-3.1421,-3.1421,-3.1481,-3.1511,-3.1511,-3.1511,-3.1511,-3.1481,-3.1421,-3.1481,-3.1481,-3.1421,-3.1481,-3.2019,-3.3245,-3.3425,-3.4053,-3.528,-3.5429,-3.6118,-3.7404,-3.7404,-3.8093,-3.9439,-4.0756,-4.1422,-4.1414,-4.2671,-4.323,-4.323,-4.1953,-4.1422,-4.1534,-4.3419,-4.4616,-4.5334,-4.677,-4.6471,-4.5454,-4.6741,-4.6411,-4.5484,-3.6829,-3.671,-3.7076,-3.8338,-3.836,-3.8371,-3.8833,-3.8949,-3.8757,-3.8155,-3.6613,-3.5297,-3.4666,-3.4288,-3.3926,-3.3521,-3.3119,-3.2895,-3.2895,-3.2574,-3.2382,-3.2382,-3.2382,-3.2382,-3.2382,-3.149,-3.0812,-3.0386,-2.9863,-2.9371,-2.9027,-2.9402,-2.9561,-2.9536,-2.9735,-2.9703,-2.958,-3.0407,-3.0661,-3.0552,-3.0941,-3.1241,-3.1481,-3.1182,-3.1271,-3.1511,-3.1511,-3.1511,-3.1511,-3.1511,-3.1331,-3.1092,-3.1092,-3.1271,-3.1511,-3.1511,-3.1511,-3.1511,-3.1511,-3.1511,-3.1511,-3.1511,-3.1511,-3.1511,-3.1511,-3.1511,-3.1511,-3.1511,-3.1511,-3.1511,-3.1511,-3.1511,-3.1511,-3.1511,-3.1511,-3.1511,-3.1511,-3.1511,-3.1511,-3.1511,-3.1511,-3.1511,-3.1511,-3.1511,-3.166,-3.2079,-3.172,-3.1899,-3.2856,-3.3275,-3.3933,-3.4861,-3.5669,-3.6507,-3.7404,-3.7793,-3.8482,-3.9403,-4.0337,-4.0995,-4.1414,-4.2342,-4.2761,-4.2731,-4.2231,-4.1782,-4.1534,-4.3509,-4.4466,-4.4885,-4.6621,-4.6741,-4.6022,-4.695,-4.6711,-4.6052,-3.7506,-3.7686,-3.8193,-3.914,-3.914,-3.9242,-4.0011,-3.9673,-3.9354,-3.9473,-3.8587,-3.747,-3.6121,-3.5723,-3.5174,-3.4311,-3.3809,-3.335,-3.2975,-3.2629,-3.2382,-3.2382,-3.2382,-3.2382,-3.2382,-3.1763,-3.1151,-3.0694,-3.0479,-3.0171,-2.9679,-3.0171,-3.0386,-3.0417,-3.047,-3.043,-3.0327,-3.0857,-3.099,-3.0851,-3.1301,-3.1511,-3.1511,-3.1511,-3.1511,-3.1511,-3.1511,-3.1511,-3.1511,-3.1511,-3.1511,-3.1511,-3.1511,-3.1511,-3.1511,-3.1511,-3.1511,-3.1511,-3.1511,-3.1511,-3.1511,-3.1511,-3.1511,-3.1511,-3.1511,-3.1511,-3.1511,-3.1511,-3.1511,-3.1511,-3.1511,-3.1511,-3.1511,-3.1511,-3.1511,-3.1511,-3.1511,-3.1511,-3.1511,-3.1511,-3.1511,-3.157,-3.178,-3.178,-3.2079,-3.2736,-3.2377,-3.2407,-3.3066,-3.3544,-3.4083,-3.4771,-3.5699,-3.6596,-3.7404,-3.7883,-3.8542,-3.9403,-4.0098,-4.0756,-4.1414,-4.2111,-4.2291,-4.2111,-4.1901,-4.1662,-4.1534,-4.3299,-4.4257,-4.4796,-4.6591,-4.689,-4.6411,-4.707,-4.689,-4.6369,-3.8836,-3.8396,-3.8362,-3.9842,-3.9503,-3.9242,-4.0011,-4.0079,-4.0079,-4.0113,-4.0054,-3.9368,-3.7498,-3.6669,-3.5743,-3.4428,-3.4279,-3.3751,-3.2499,-3.2382,-3.2382,-3.2382,-3.2382,-3.2382,-3.2382,-3.1763,-3.1424,-3.1393,-3.0694,-3.0386,-3.0386,-3.0386,-3.0386,-3.0417,-3.093,-3.1101,-3.1025,-3.1554,-3.1683,-3.1481,-3.1511,-3.1511,-3.1511,-3.1511,-3.1511,-3.1511,-3.1511,-3.1511,-3.1511,-3.1511,-3.1511,-3.1511,-3.1511,-3.1511,-3.1511,-3.1511,-3.1511,-3.1511,-3.1511,-3.1511,-3.1511,-3.1511,-3.1511,-3.1511,-3.1511,-3.1511,-3.1511,-3.1511,-3.1511,-3.1511,-3.1511,-3.1511,-3.1511,-3.1511,-3.1511,-3.1511,-3.1511,-3.1511,-3.1511,-3.1511,-3.1511,-3.175,-3.2407,-3.2497,-3.2766,-3.3425,-3.3484,-3.3754,-3.4444,-3.4503,-3.4771,-3.5459,-3.5519,-3.6118,-3.7404,-3.7434,-3.8093,-3.9403,-4.0098,-4.0756,-4.1414,-4.2111,-4.2051,-4.1392,-4.0696,-4.0786,-4.1474,-4.2751,-4.4107,-4.5424,-4.677,-4.689,-4.6411,-4.707,-4.689,-4.6369,-3.9039,-3.9208,-3.9571,-4.0011,-3.991,-3.9842,-4.0079,-4.0113,-4.0113,-4.0113,-4.0113,-3.9885,-3.9283,-3.8589,-3.7793,-3.696,-3.6108,-3.5209,-3.4287,-3.3533,-3.2875,-3.2413,-3.2382,-3.2382,-3.2382,-3.2167,-3.1859,-3.1424,-3.1643,-3.1767,-3.1767,-3.1767,-3.1767,-3.1767,-3.1927,-3.1913,-3.1693,-3.1849,-3.1769,-3.1511,-3.1511,-3.1511,-3.1511,-3.1511,-3.1511,-3.1511,-3.1511,-3.1511,-3.1511,-3.1511,-3.1511,-3.1511,-3.1511,-3.1511,-3.1511,-3.1511,-3.1511,-3.1511,-3.1511,-3.1511,-3.1511,-3.1511,-3.1511,-3.1511,-3.1511,-3.1839,-3.2288,-3.2766,-3.2856,-3.2856,-3.2856,-3.2856,-3.2856,-3.2856,-3.2856,-3.2706,-3.2228,-3.2168,-3.2168,-3.2168,-3.2168,-3.2437,-3.3125,-3.3185,-3.3455,-3.4113,-3.4173,-3.4294,-3.4503,-3.4503,-3.4801,-3.5489,-3.6357,-3.6985,-3.7404,-3.8332,-3.899,-3.9373,-3.9619,-4.0307,-4.1414,-4.2111,-4.2051,-4.1422,-4.1145,-4.1175,-4.1474,-4.2751,-4.4107,-4.5394,-4.6292,-4.677,-4.701,-4.7219,-4.716,-4.701,-3.9503,-3.9774,-4.0113,-4.0113,-4.0113,-4.0113,-4.0113,-4.0113,-4.0113,-4.0113,-4.0113,-4.0113,-4.0113,-3.9706,-3.9076,-3.8207,-3.7413,-3.6535,-3.5604,-3.441,-3.3547,-3.3142,-3.2674,-3.2382,-3.2382,-3.2382,-3.2198,-3.1794,-3.2198,-3.2382,-3.2382,-3.2382,-3.2382,-3.2382,-3.2382,-3.2274,-3.2081,-3.2025,-3.1855,-3.1597,-3.1539,-3.1511,-3.1511,-3.1511,-3.1511,-3.1511,-3.1511,-3.1511,-3.1511,-3.1511,-3.1511,-3.1511,-3.1511,-3.1511,-3.1511,-3.1511,-3.1511,-3.1511,-3.1511,-3.1511,-3.1511,-3.1511,-3.1511,-3.157,-3.1809,-3.2378,-3.3006,-3.3395,-3.3305,-3.3215,-3.3455,-3.3305,-3.3215,-3.3455,-3.3484,-3.3275,-3.2587,-3.2736,-3.2796,-3.2527,-3.2736,-3.3155,-3.3814,-3.3873,-3.4143,-3.4831,-3.4861,-3.4861,-3.4861,-3.4861,-3.507,-3.5489,-3.6537,-3.7165,-3.7404,-3.8482,-3.917,-3.9373,-3.9679,-4.0217,-4.1025,-4.1482,-4.1414,-4.0995,-4.0995,-4.1145,-4.1474,-4.2751,-4.3958,-4.5035,-4.5963,-4.6561,-4.695,-4.7219,-4.7309,-4.7309,-4.0113,-4.0113,-4.0113,-4.0113,-4.0113,-4.0113,-4.0113,-4.0113,-4.0113,-4.0113,-4.0113,-4.0113,-4.0113,-4.0113,-3.9632,-3.8443,-3.8299,-3.7734,-3.645,-3.5102,-3.4311,-3.4216,-3.3049,-3.2382,-3.2382,-3.2382,-3.2382,-3.2382,-3.2382,-3.2382,-3.2382,-3.2382,-3.2382,-3.2382,-3.2382,-3.233,-3.2191,-3.2081,-3.1912,-3.1799,-3.1568,-3.1511,-3.1511,-3.1511,-3.1511,-3.1511,-3.1511,-3.1511,-3.1511,-3.1511,-3.1511,-3.1511,-3.1511,-3.1511,-3.1511,-3.1511,-3.1511,-3.1511,-3.1511,-3.1511,-3.1511,-3.1511,-3.154,-3.175,-3.2437,-3.3095,-3.3574,-3.3634,-3.3155,-3.2916,-3.3514,-3.3095,-3.2856,-3.3514,-3.3604,-3.3335,-3.2736,-3.3185,-3.3335,-3.2706,-3.3185,-3.3814,-3.4503,-3.4563,-3.4831,-3.5459,-3.5519,-3.5519,-3.5519,-3.5519,-3.5519,-3.5579,-3.6207,-3.6836,-3.7464,-3.8123,-3.8781,-3.9403,-4.0098,-4.0397,-4.0397,-4.0397,-4.0427,-4.0457,-4.0427,-4.0816,-4.1534,-4.2761,-4.3648,-4.4436,-4.5753,-4.6249,-4.6411,-4.707,-4.7309,-4.7309,-4.0113,-4.0113,-4.0113,-4.0113,-4.0113,-4.0113,-4.0113,-4.0113,-4.0113,-4.0113,-4.0113,-4.0113,-4.0113,-4.0113,-3.9995,-3.9665,-3.922,-3.8368,-3.7008,-3.5803,-3.4659,-3.3525,-3.2773,-3.2382,-3.2382,-3.2382,-3.2382,-3.2382,-3.2382,-3.2382,-3.2382,-3.2382,-3.2382,-3.2382,-3.2382,-3.233,-3.2191,-3.2081,-3.1912,-3.1799,-3.1568,-3.1511,-3.1511,-3.1511,-3.1511,-3.1511,-3.1511,-3.1511,-3.1511,-3.1511,-3.1511,-3.1511,-3.1511,-3.1511,-3.1511,-3.1511,-3.1511,-3.1511,-3.1511,-3.1511,-3.1511,-3.1511,-3.1869,-3.2467,-3.3125,-3.3784,-3.4414,-3.4921,-3.4921,-3.4861,-3.5011,-3.4472,-3.4233,-3.4921,-3.4592,-3.4234,-3.4023,-3.4174,-3.4204,-3.4023,-3.4174,-3.4533,-3.519,-3.525,-3.534,-3.5489,-3.5519,-3.5519,-3.5519,-3.5519,-3.5729,-3.6237,-3.6866,-3.7494,-3.8153,-3.8841,-3.926,-3.9403,-4.0098,-4.0397,-4.0397,-4.0397,-4.0666,-4.1115,-4.0606,-4.1055,-4.2201,-4.25,-4.3269,-4.4407,-4.5214,-4.5873,-4.6411,-4.707,-4.7309,-4.7309,-4.0113,-4.0113,-4.0113,-4.0113,-4.0113,-4.0113,-4.0113,-4.0113,-4.0113,-4.0113,-4.0113,-4.0113,-4.0113,-4.0113,-4.0113,-4.0113,-3.9496,-3.8781,-3.8037,-3.6521,-3.5338,-3.4529,-3.3372,-3.2761,-3.2761,-3.252,-3.2382,-3.2382,-3.2382,-3.2382,-3.2382,-3.2382,-3.2382,-3.2382,-3.2382,-3.2355,-3.2274,-3.2135,-3.2025,-3.1855,-3.1712,-3.1568,-3.1511,-3.1511,-3.1511,-3.1511,-3.1511,-3.1511,-3.1511,-3.1511,-3.1511,-3.1511,-3.1511,-3.1511,-3.1511,-3.1511,-3.1511,-3.1511,-3.1511,-3.1511,-3.157,-3.1869,-3.2706,-3.3514,-3.3873,-3.4503,-3.504,-3.5429,-3.525,-3.513,-3.5459,-3.4951,-3.4623,-3.4981,-3.4743,-3.4384,-3.4114,-3.4324,-3.4503,-3.4503,-3.4773,-3.51,-3.5459,-3.5519,-3.5519,-3.5519,-3.5519,-3.5519,-3.5519,-3.5519,-3.5669,-3.6028,-3.6926,-3.7584,-3.7943,-3.8931,-3.9373,-3.9373,-3.9798,-3.9948,-3.9948,-3.9948,-4.0157,-4.0487,-4.0756,-4.1265,-4.1991,-4.2551,-4.324,-4.3888,-4.4586,-4.5244,-4.5933,-4.6621,-4.704,-4.7309,-4.0113,-4.0113,-4.0113,-4.0113,-4.0113,-4.0113,-4.0113,-4.0113,-4.0113,-4.0113,-4.0113,-4.0113,-4.0113,-4.0113,-4.0113,-4.0113,-3.9436,-3.8937,-3.8836,-3.7084,-3.5958,-3.5801,-3.42,-3.3261,-3.3182,-3.2652,-3.2382,-3.2382,-3.2382,-3.2382,-3.2382,-3.2382,-3.2382,-3.2382,-3.2382,-3.2382,-3.2382,-3.2274,-3.2107,-3.1996,-3.1826,-3.1655,-3.1511,-3.1511,-3.1511,-3.1511,-3.1511,-3.1511,-3.1511,-3.1511,-3.1511,-3.1511,-3.1511,-3.1511,-3.1511,-3.1511,-3.157,-3.163,-3.154,-3.157,-3.178,-3.2348,-3.3514,-3.4503,-3.4503,-3.5011,-3.5519,-3.5519,-3.504,-3.4801,-3.54,-3.4951,-3.4503,-3.4503,-3.4503,-3.4324,-3.3724,-3.4234,-3.4653,-3.4653,-3.516,-3.5519,-3.5519,-3.5519,-3.5519,-3.5519,-3.5519,-3.5519,-3.5519,-3.5519,-3.5549,-3.5639,-3.6806,-3.7494,-3.7704,-3.8805,-3.9373,-3.9373,-3.9373,-3.9373,-3.9373,-3.9373,-3.9469,-3.9649,-4.0846,-4.1482,-4.1662,-4.2821,-4.329,-4.3349,-4.4047,-4.4706,-4.5364,-4.6082,-4.6741,-4.7309,-4.0113,-4.0113,-4.0113,-4.0113,-4.0113,-4.0113,-4.0113,-4.0113,-4.0113,-4.0113,-4.0113,-4.0113,-4.0113,-4.0113,-4.0113,-4.0113,-3.9436,-3.8734,-3.8125,-3.6759,-3.5702,-3.5024,-3.4243,-3.3649,-3.3209,-3.2652,-3.2382,-3.2382,-3.2382,-3.2382,-3.2382,-3.2382,-3.2382,-3.2382,-3.2382,-3.2382,-3.2382,-3.2274,-3.2107,-3.1996,-3.1826,-3.1655,-3.1511,-3.1511,-3.1511,-3.1511,-3.1511,-3.1511,-3.1511,-3.1511,-3.1511,-3.1511,-3.1511,-3.1511,-3.1511,-3.1511,-3.1899,-3.2198,-3.166,-3.1899,-3.2348,-3.2467,-3.3514,-3.4503,-3.4503,-3.5011,-3.5519,-3.5519,-3.5429,-3.537,-3.5489,-3.4951,-3.4503,-3.4503,-3.4503,-3.4474,-3.4384,-3.4921,-3.534,-3.534,-3.5429,-3.5519,-3.5519,-3.5519,-3.5519,-3.5519,-3.5519,-3.5519,-3.5519,-3.5519,-3.5759,-3.6327,-3.7045,-3.7943,-3.9074,-3.932,-3.9373,-3.9373,-3.9373,-3.9373,-3.9373,-3.9373,-3.9738,-4.0277,-4.1055,-4.1722,-4.2321,-4.303,-4.329,-4.3349,-4.4047,-4.4706,-4.5364,-4.6082,-4.6741,-4.7309,-4.0113,-4.0113,-4.0113,-4.0113,-4.0113,-4.0113,-4.0113,-4.0113,-4.0113,-4.0113,-4.0113,-4.0113,-4.0113,-4.0113,-4.0113,-4.0113,-3.9436,-3.887,-3.8497,-3.7191,-3.6075,-3.5258,-3.4721,-3.4185,-3.3624,-3.3108,-3.2841,-3.2841,-3.2547,-3.2382,-3.2382,-3.2382,-3.2382,-3.2382,-3.2382,-3.2382,-3.2413,-3.2358,-3.2247,-3.2109,-3.1968,-3.1798,-3.1655,-3.1539,-3.1511,-3.1511,-3.1511,-3.1511,-3.1511,-3.1511,-3.1511,-3.1511,-3.1511,-3.1511,-3.1511,-3.1511,-3.1959,-3.2497,-3.2587,-3.3066,-3.3574,-3.3574,-3.4292,-3.504,-3.504,-3.528,-3.5519,-3.5519,-3.5519,-3.5519,-3.5519,-3.525,-3.4921,-3.4563,-3.4503,-3.4503,-3.4503,-3.4773,-3.51,-3.5459,-3.5519,-3.5519,-3.5519,-3.5519,-3.5519,-3.5519,-3.5519,-3.5519,-3.5519,-3.5848,-3.6327,-3.6956,-3.7614,-3.8422,-3.9373,-3.9373,-3.9373,-3.9373,-3.9373,-3.9373,-3.9373,-3.9373,-3.9768,-4.0427,-4.1085,-4.1782,-4.244,-4.306,-4.329,-4.3319,-4.3618,-4.4407,-4.5334,-4.5663,-4.6411,-4.7309,-4.0113,-4.0113,-4.0113,-4.0113,-4.0113,-4.0113,-4.0113,-4.0113,-4.0113,-4.0113,-4.0113,-4.0113,-4.0113,-4.0113,-4.0113,-4.0113,-3.9605,-3.9174,-3.9005,-3.7946,-3.6941,-3.6174,-3.5475,-3.479,-3.421,-3.3649,-3.3313,-3.3182,-3.2788,-3.252,-3.2382,-3.2382,-3.2382,-3.2382,-3.2382,-3.2382,-3.2382,-3.2382,-3.233,-3.2191,-3.2109,-3.194,-3.1799,-3.1626,-3.1539,-3.1511,-3.1511,-3.1511,-3.1511,-3.1511,-3.1511,-3.154,-3.169,-3.172,-3.175,-3.1929,-3.2467,-3.3036,-3.3395,-3.3963,-3.4503,-3.4503,-3.4981,-3.5519,-3.5519,-3.5519,-3.5519,-3.5519,-3.5519,-3.5519,-3.5519,-3.5519,-3.528,-3.4623,-3.4653,-3.4683,-3.4533,-3.4653,-3.4921,-3.5429,-3.5519,-3.5519,-3.5519,-3.5519,-3.5519,-3.5519,-3.5519,-3.5519,-3.5519,-3.5998,-3.6626,-3.7375,-3.8212,-3.8871,-3.9373,-3.9373,-3.9373,-3.9373,-3.9373,-3.9373,-3.9373,-3.9373,-3.9768,-4.0427,-4.1085,-4.1667,-4.2129,-4.2942,-4.317,-4.305,-4.321,-4.4007,-4.5095,-4.5244,-4.6052,-4.71,-4.0113,-4.0113,-4.0113,-4.0113,-4.0113,-4.0113,-4.0113,-4.0113,-4.0113,-4.0113,-4.0113,-4.0113,-4.0113,-4.0113,-4.0113,-4.0113,-4.0045,-3.974,-3.9039,-3.8903,-3.8497,-3.7753,-3.6534,-3.5545,-3.4778,-3.4235,-3.3707,-3.3182,-3.3156,-3.2895,-3.2382,-3.2382,-3.2382,-3.2382,-3.2382,-3.2382,-3.2382,-3.2382,-3.233,-3.2191,-3.2191,-3.2053,-3.1799,-3.1799,-3.1655,-3.1511,-3.1511,-3.1511,-3.1511,-3.1511,-3.1511,-3.16,-3.2228,-3.2437,-3.2557,-3.3185,-3.3814,-3.4234,-3.3634,-3.3963,-3.4503,-3.4503,-3.4981,-3.5519,-3.5519,-3.5519,-3.5519,-3.5519,-3.5519,-3.5519,-3.5519,-3.5519,-3.528,-3.4623,-3.5011,-3.522,-3.4593,-3.5011,-3.5459,-3.5489,-3.5519,-3.5519,-3.5519,-3.5519,-3.5519,-3.5519,-3.5519,-3.5519,-3.5519,-3.5549,-3.6148,-3.7375,-3.8661,-3.9343,-3.9373,-3.9373,-3.9373,-3.9373,-3.9373,-3.9373,-3.9373,-3.9373,-3.9768,-4.0427,-4.1085,-4.129,-4.1226,-4.2703,-4.282,-4.217,-4.301,-4.3738,-4.4466,-4.5065,-4.5753,-4.6429,-4.0113,-4.0113,-4.0113,-4.0113,-4.0113,-4.0113,-4.0113,-4.0113,-4.0113,-4.0113,-4.0113,-4.0113,-4.0113,-4.0113,-4.0113,-4.0113,-4.0113,-3.9977,-3.9706,-3.9673,-3.8962,-3.728,-3.6744,-3.6122,-3.5327,-3.4769,-3.4407,-3.4178,-3.3521,-3.3108,-3.2895,-3.2895,-3.2707,-3.241,-3.2734,-3.2707,-3.2382,-3.2382,-3.2355,-3.233,-3.2247,-3.2135,-3.2025,-3.1885,-3.1771,-3.1655,-3.1539,-3.1511,-3.1511,-3.1511,-3.178,-3.2138,-3.2407,-3.2796,-3.3245,-3.3903,-3.4324,-3.4563,-3.4711,-3.4921,-3.513,-3.513,-3.531,-3.5519,-3.5519,-3.5519,-3.5519,-3.5519,-3.5519,-3.5519,-3.5519,-3.5519,-3.5429,-3.516,-3.534,-3.54,-3.516,-3.534,-3.5519,-3.5519,-3.5519,-3.5519,-3.5519,-3.5519,-3.5519,-3.5519,-3.5519,-3.5519,-3.5519,-3.6267,-3.7285,-3.8601,-3.914,-3.9156,-3.8649,-3.9156,-3.887,-3.7881,-3.8397,-3.8649,-3.8649,-3.8649,-3.9207,-4.0167,-4.0441,-4.0948,-4.1616,-4.1612,-4.2099,-4.278,-4.2578,-4.3234,-4.4377,-4.5035,-4.5723,-4.6369,-4.0113,-4.0113,-4.0113,-4.0113,-4.0138,-4.0163,-4.0163,-4.0163,-4.0188,-4.0238,-4.0163,-4.0113,-4.0163,-4.0138,-4.0113,-4.0113,-4.0113,-4.0113,-4.0113,-4.0113,-3.9334,-3.7574,-3.7506,-3.711,-3.6343,-3.5951,-3.569,-3.5512,-3.4533,-3.4002,-3.382,-3.3571,-3.3266,-3.2922,-3.3293,-3.3266,-3.2868,-3.2707,-3.2625,-3.2656,-3.2547,-3.2382,-3.2191,-3.2163,-3.2025,-3.1829,-3.1866,-3.1839,-3.1839,-3.2049,-3.2407,-3.2856,-3.3066,-3.3574,-3.4233,-3.4651,-3.4801,-3.4891,-3.537,-3.5519,-3.5519,-3.5519,-3.5519,-3.5519,-3.5519,-3.5519,-3.5519,-3.5519,-3.5519,-3.5519,-3.5519,-3.5519,-3.5519,-3.5519,-3.5519,-3.5519,-3.5519,-3.5519,-3.5519,-3.5519,-3.5519,-3.5519,-3.5519,-3.5519,-3.5519,-3.5519,-3.5519,-3.5579,-3.5789,-3.6836,-3.7943,-3.905,-3.932,-3.901,-3.8202,-3.901,-3.8833,-3.7663,-3.8285,-3.8427,-3.8202,-3.8202,-3.887,-4.0031,-4.0031,-4.0625,-4.1561,-4.1491,-4.1823,-4.2426,-4.2415,-4.3046,-4.4107,-4.4975,-4.5603,-4.6112,-4.0113,-4.0113,-4.0113,-4.0113,-4.0213,-4.0288,-4.0288,-4.0288,-4.0337,-4.0485,-4.0288,-4.0163,-4.0288,-4.0188,-4.0113,-4.0113,-4.0113,-4.0113,-4.0113,-4.0113,-3.9774,-3.9039,-3.9005,-3.8633,-3.7922,-3.7922,-3.7648,-3.7119,-3.639,-3.572,-3.5182,-3.4392,-3.4011,-3.4011,-3.4011,-3.4011,-3.396,-3.3449,-3.3209,-3.3209,-3.3209,-3.2815,-3.2274,-3.2788,-3.252,-3.1918,-3.2493,-3.2616,-3.2617,-3.3275,-3.3514,-3.3604,-3.4324,-3.4951,-3.5519,-3.5519,-3.5519,-3.5519,-3.5519,-3.5519,-3.5519,-3.5519,-3.5519,-3.5519,-3.5519,-3.5519,-3.5519,-3.5519,-3.5519,-3.5519,-3.5519,-3.5519,-3.5519,-3.5519,-3.5519,-3.5519,-3.5519,-3.5519,-3.5519,-3.5519,-3.5519,-3.5519,-3.5519,-3.5519,-3.5519,-3.5519,-3.5519,-3.5789,-3.6447,-3.7075,-3.7704,-3.8392,-3.905,-3.901,-3.8202,-3.901,-3.9373,-3.9373,-3.9373,-3.8973,-3.8202,-3.8202,-3.887,-4.0099,-4.0099,-4.0273,-4.0731,-4.2508,-4.2222,-4.0817,-4.2548,-4.329,-4.3439,-4.4796,-4.5274,-4.5484,-4.0113,-4.0113,-4.0138,-4.0213,-4.0263,-4.0313,-4.0436,-4.0436,-4.0461,-4.051,-4.0436,-4.0412,-4.0436,-4.0412,-4.0387,-4.0387,-4.0387,-4.0337,-4.0238,-4.0337,-4.0211,-3.9774,-3.9276,-3.8633,-3.7922,-3.7922,-3.7817,-3.7672,-3.7061,-3.6423,-3.5745,-3.5515,-3.5218,-3.4864,-3.5242,-3.5193,-3.4839,-3.4684,-3.4259,-3.3783,-3.3783,-3.397,-3.4229,-3.4308,-3.4521,-3.475,-3.4719,-3.4449,-3.4049,-3.4116,-3.4152,-3.4324,-3.4981,-3.534,-3.5519,-3.5519,-3.5519,-3.5519,-3.5519,-3.5519,-3.5519,-3.5519,-3.5519,-3.5519,-3.5519,-3.5519,-3.5519,-3.5519,-3.5519,-3.5519,-3.5519,-3.5519,-3.5519,-3.5519,-3.5519,-3.5519,-3.5519,-3.5519,-3.5519,-3.5519,-3.5519,-3.5519,-3.5519,-3.5519,-3.5519,-3.5519,-3.5519,-3.5998,-3.7075,-3.7315,-3.7943,-3.908,-3.932,-3.9265,-3.9046,-3.8723,-3.7985,-3.6805,-3.7386,-3.751,-3.7281,-3.7281,-3.7923,-3.8993,-3.8449,-3.9145,-4.056,-3.9809,-4.0717,-4.2426,-4.1699,-4.2181,-4.3409,-4.4287,-4.4616,-4.4796,-4.0263,-4.0263,-4.0288,-4.0362,-4.0412,-4.0485,-4.0558,-4.0583,-4.0607,-4.0655,-4.0583,-4.0534,-4.0558,-4.0534,-4.051,-4.051,-4.051,-4.0461,-4.0387,-4.0461,-4.0436,-4.0288,-3.9821,-3.9331,-3.8768,-3.8768,-3.8768,-3.8768,-3.8136,-3.7619,-3.7184,-3.6883,-3.6579,-3.6274,-3.6603,-3.6579,-3.6249,-3.6022,-3.5658,-3.5241,-3.5241,-3.5368,-3.5571,-3.5733,-3.5857,-3.598,-3.5832,-3.5508,-3.5169,-3.4971,-3.4909,-3.4951,-3.537,-3.5519,-3.5519,-3.5519,-3.5519,-3.5519,-3.5519,-3.5519,-3.5519,-3.5519,-3.5519,-3.5519,-3.5519,-3.5519,-3.5519,-3.5519,-3.5519,-3.5519,-3.5519,-3.5519,-3.5519,-3.5519,-3.5519,-3.5519,-3.5519,-3.5519,-3.5519,-3.5519,-3.5519,-3.5519,-3.5519,-3.5519,-3.5519,-3.5519,-3.5519,-3.5968,-3.6985,-3.7285,-3.7883,-3.899,-3.8934,-3.8936,-3.8936,-3.7796,-3.7193,-3.7155,-3.7347,-3.7242,-3.6894,-3.6894,-3.7569,-3.8695,-3.8159,-3.8977,-4.0518,-3.9414,-4.026,-4.2181,-4.1407,-4.2017,-4.3379,-4.4077,-4.4317,-4.4496,-4.0485,-4.051,-4.051,-4.051,-4.0607,-4.068,-4.0738,-4.0738,-4.0786,-4.0871,-4.068,-4.0583,-4.068,-4.0607,-4.0534,-4.0534,-4.0534,-4.0534,-4.0534,-4.0534,-4.0534,-4.051,-4.051,-4.0412,-4.0138,-4.0138,-4.0138,-4.0138,-3.9436,-3.9097,-3.8971,-3.8328,-3.799,-3.799,-3.799,-3.799,-3.7966,-3.7469,-3.7236,-3.717,-3.717,-3.6916,-3.6587,-3.7084,-3.688,-3.6367,-3.6409,-3.6319,-3.6121,-3.5889,-3.5686,-3.5522,-3.5522,-3.5522,-3.5522,-3.5489,-3.5519,-3.5519,-3.5519,-3.5519,-3.5519,-3.5519,-3.5519,-3.5519,-3.5519,-3.5519,-3.5519,-3.5519,-3.5519,-3.5519,-3.5519,-3.5519,-3.5519,-3.5519,-3.5519,-3.5519,-3.5519,-3.5519,-3.5519,-3.5519,-3.5519,-3.5519,-3.5519,-3.5519,-3.5519,-3.5519,-3.5519,-3.5818,-3.6537,-3.7105,-3.7734,-3.8452,-3.8363,-3.8315,-3.8315,-3.6727,-3.7,-3.9053,-3.8352,-3.7539,-3.6816,-3.6816,-3.7501,-3.8693,-3.857,-3.9229,-4.0391,-4.0391,-4.0462,-4.0689,-4.1645,-4.2496,-4.327,-4.3977,-4.4227,-4.4407,-4.051,-4.051,-4.0534,-4.0631,-4.069,-4.0762,-4.0823,-4.0847,-4.0847,-4.0894,-4.0847,-4.0823,-4.0847,-4.0823,-4.0799,-4.0799,-4.0799,-4.0752,-4.0655,-4.0752,-4.0728,-4.051,-4.0583,-4.0583,-4.0412,-4.0412,-4.0362,-4.0238,-4.0102,-3.9645,-3.9005,-3.8836,-3.8768,-3.8768,-3.8768,-3.8768,-3.8768,-3.8636,-3.8226,-3.772,-3.772,-3.8008,-3.8438,-3.8538,-3.8849,-3.9201,-3.9109,-3.871,-3.8075,-3.6993,-3.6321,-3.5846,-3.5718,-3.5686,-3.5653,-3.5522,-3.5519,-3.5519,-3.5519,-3.5519,-3.5519,-3.5519,-3.5519,-3.5519,-3.5519,-3.5519,-3.5519,-3.5519,-3.5519,-3.5519,-3.5519,-3.5519,-3.5519,-3.5519,-3.5519,-3.5519,-3.5519,-3.5519,-3.5519,-3.5519,-3.5519,-3.5519,-3.5519,-3.5519,-3.5519,-3.5519,-3.5519,-3.5998,-3.7135,-3.7345,-3.7943,-3.917,-3.9169,-3.9156,-3.9156,-3.8136,-3.7271,-3.6492,-3.6334,-3.6136,-3.5976,-3.5976,-3.6347,-3.6989,-3.6308,-3.7133,-3.8906,-3.8906,-3.9542,-4.0689,-4.1645,-4.2129,-4.2374,-4.3199,-4.3499,-4.3708,-4.068,-4.068,-4.0704,-4.0776,-4.081,-4.0799,-4.0871,-4.0894,-4.0894,-4.0894,-4.0894,-4.0894,-4.0894,-4.0894,-4.0894,-4.0894,-4.0894,-4.0847,-4.0776,-4.0847,-4.0823,-4.0704,-4.0752,-4.0752,-4.0704,-4.068,-4.0583,-4.0387,-4.0387,-4.0109,-3.9611,-3.9611,-3.9587,-3.9512,-3.9512,-3.9512,-3.9512,-3.9512,-3.93,-3.8937,-3.8937,-3.9174,-3.9512,-3.9512,-3.9774,-4.0062,-3.967,-3.8887,-3.7933,-3.7235,-3.6538,-3.5973,-3.5878,-3.5784,-3.5688,-3.5621,-3.5554,-3.5519,-3.5519,-3.5519,-3.5519,-3.5519,-3.5519,-3.5519,-3.5519,-3.5519,-3.5519,-3.5519,-3.5519,-3.5519,-3.5519,-3.5519,-3.5519,-3.5519,-3.5519,-3.5519,-3.5519,-3.5519,-3.5519,-3.5519,-3.5519,-3.5522,-3.5589,-3.5589,-3.5589,-3.5589,-3.5589,-3.6007,-3.6926,-3.6956,-3.7584,-3.8901,-3.8542,-3.8509,-3.8797,-3.8023,-3.6961,-3.5696,-3.5696,-3.5896,-3.6267,-3.5896,-3.6224,-3.7125,-3.6246,-3.6833,-3.8369,-3.7889,-3.8869,-4.0603,-4.0646,-4.1449,-4.2618,-4.2659,-4.3148,-4.3917,-4.0871,-4.0894,-4.0894,-4.0894,-4.0894,-4.0894,-4.0894,-4.0894,-4.0894,-4.0894,-4.0894,-4.0894,-4.0894,-4.0894,-4.0894,-4.0894,-4.0894,-4.0894,-4.0894,-4.0894,-4.0894,-4.0894,-4.0894,-4.0894,-4.0894,-4.0894,-4.0776,-4.0534,-4.0534,-4.0461,-4.0337,-4.0288,-4.0238,-4.0138,-4.0113,-4.0113,-4.0113,-4.0113,-4.0113,-4.0113,-4.0113,-4.0113,-4.0113,-4.0113,-4.0113,-4.0003,-3.954,-3.853,-3.7442,-3.7354,-3.6845,-3.6226,-3.6068,-3.5911,-3.5784,-3.572,-3.5621,-3.5522,-3.5519,-3.5519,-3.5519,-3.5519,-3.5519,-3.5519,-3.5519,-3.5519,-3.5519,-3.5519,-3.5519,-3.5519,-3.5519,-3.5519,-3.5519,-3.5519,-3.5519,-3.5519,-3.5519,-3.5519,-3.5519,-3.5519,-3.5519,-3.5554,-3.5686,-3.5655,-3.5655,-3.5688,-3.5688,-3.5892,-3.6514,-3.663,-3.7195,-3.8362,-3.7876,-3.7835,-3.8389,-3.7539,-3.6777,-3.6136,-3.5976,-3.6068,-3.6464,-3.5936,-3.629,-3.7242,-3.647,-3.6787,-3.7812,-3.7307,-3.8253,-3.9963,-3.977,-4.0873,-4.2548,-4.214,-4.2931,-4.4227,-4.0894,-4.0894,-4.0894,-4.0894,-4.0894,-4.0894,-4.0894,-4.0894,-4.0894,-4.0894,-4.0894,-4.0894,-4.0894,-4.0894,-4.0894,-4.0894,-4.0894,-4.0894,-4.0894,-4.0894,-4.0894,-4.0894,-4.0894,-4.0894,-4.0894,-4.0894,-4.0823,-4.0655,-4.0655,-4.0583,-4.0485,-4.0337,-4.0288,-4.0263,-4.0163,-4.0113,-4.0113,-4.0113,-4.0113,-4.0113,-4.0113,-4.0113,-4.0113,-4.0113,-4.0113,-4.0087,-4.0037,-3.954,-3.8838,-3.8306,-3.7738,-3.7088,-3.6383,-3.6133,-3.607,-3.5784,-3.5688,-3.5653,-3.5522,-3.5519,-3.5519,-3.5519,-3.5519,-3.5519,-3.5519,-3.5519,-3.5519,-3.5519,-3.5519,-3.5519,-3.5519,-3.5519,-3.5519,-3.5519,-3.5519,-3.5519,-3.5519,-3.5519,-3.5519,-3.5519,-3.5519,-3.5519,-3.5522,-3.5522,-3.5587,-3.5688,-3.5589,-3.5887,-3.6616,-3.7053,-3.7614,-3.8362,-3.8853,-3.9139,-3.9228,-3.8427,-3.7947,-3.7834,-3.7088,-3.6029,-3.4744,-3.544,-3.5386,-3.4876,-3.4752,-3.5063,-3.5805,-3.6941,-3.7461,-3.7767,-4.0534,-4.0859,-3.9929,-4.1407,-4.2596,-4.3529,-4.0894,-4.0894,-4.0894,-4.0894,-4.0894,-4.0894,-4.0894,-4.0894,-4.0894,-4.0894,-4.0894,-4.0894,-4.0894,-4.0894,-4.0894,-4.0894,-4.0894,-4.0894,-4.0894,-4.0894,-4.0894,-4.0894,-4.0894,-4.0894,-4.0894,-4.0894,-4.0847,-4.0799,-4.0799,-4.0728,-4.0607,-4.0461,-4.0362,-4.0288,-4.0163,-4.0113,-4.0113,-4.0113,-4.0113,-4.0113,-4.0113,-4.0113,-4.0113,-4.0113,-4.0113,-4.0113,-4.0113,-3.9722,-3.9109,-3.8502,-3.7911,-3.7268,-3.66,-3.6289,-3.6164,-3.6006,-3.5911,-3.5846,-3.5812,-3.5686,-3.5621,-3.5621,-3.5554,-3.5519,-3.5519,-3.5519,-3.5519,-3.5519,-3.5789,-3.6058,-3.6058,-3.6058,-3.6058,-3.6058,-3.5759,-3.5519,-3.5519,-3.5519,-3.5519,-3.5519,-3.5587,-3.5621,-3.5621,-3.5686,-3.575,-3.5688,-3.575,-3.6051,-3.6649,-3.6884,-3.7481,-3.8502,-3.8762,-3.902,-3.9373,-3.9046,-3.8649,-3.8202,-3.8248,-3.7396,-3.5789,-3.5736,-3.5521,-3.5114,-3.5114,-3.5171,-3.5424,-3.6849,-3.7842,-3.8569,-3.9415,-3.9809,-4.0189,-4.2058,-4.297,-4.3379]},{"header":{"parameterUnit":"m.s-1","parameterCategory":1,"la1":30.6,"la2":28.766,"lo1":-90.7593,"lo2":-88.6598,"dy":0.0162,"dx":0.0183,"nx":116,"ny":114,"refTime":"2024-02-07T18:00:00:Z","depth":0,"parameterNumber":3,"parameterNumberName":"V-component_of_WINDS"},"data":[0.0,0.0,0.0,0.0,0.0,0.0,0.0,0.0,0.0,0.0,0.0,0.0,0.0,0.0,0.0,0.0,0.0,0.0,0.0,0.0,0.0,0.0,0.0,0.0,0.0,0.0,0.0,0.0,0.0,0.0,0.0,0.0,0.0,0.0,0.0,0.0,0.0,0.0,0.0,0.0,0.0,0.0,0.0,0.0,0.0,0.0,0.0,0.0,0.0,0.0,0.0,0.0,0.0,0.0,0.0,0.0,0.0,0.0,0.0,0.0,0.0,0.0,0.0,0.0,0.0,0.0,0.0,0.0,0.0,0.0,0.0,0.0,0.0,0.0,0.0,0.0,0.0,0.0,0.0,0.0,0.0,0.0,0.0,0.0,0.0,0.0,0.0,0.0,0.0,0.0,0.0,0.0,0.0,0.0,0.0,0.0,0.0,0.0,0.0,0.0,0.0,0.0,0.0,0.0,0.0,0.0,0.0,0.0,0.0,0.0,0.0,0.0,0.0,0.0,0.0,0.0,0.0,0.0,0.0,0.0,0.0,0.0,0.0,0.0,0.0,0.0,0.0,0.0,0.0,0.0,0.0,0.0,0.0,0.0,0.0,0.0,0.0,0.0,0.0,0.0,0.0,0.0,0.0,0.0,0.0,0.0,0.0,0.0,0.0,0.0,0.0,0.0,0.0,0.0,0.0,0.0,0.0,0.0,0.0,0.0,0.0,0.0,0.0,0.0,0.0,0.0,0.0,0.0,0.0,0.0,0.0,0.0,0.0,0.0,0.0,0.0,0.0,0.0,0.0,0.0,0.0,0.0,0.0,0.0,0.0,0.0,0.0,0.0,0.0,0.0,0.0,0.0,0.0,0.0,0.0,0.0,0.0,0.0,0.0,0.0,0.0,0.0,0.0,0.0,0.0,0.0,0.0,0.0,0.0,0.0,0.0,0.0,0.0,0.0,0.0,0.0,0.0,0.0,0.0,0.0,0.0,0.0,0.0,0.0,0.0,0.0,0.0,0.0,0.0,0.0,0.0,0.0,0.0,0.0,0.0,0.0,0.0,0.0,0.0,0.0,0.0,0.0,0.0,0.0,0.0,0.0,0.0,0.0,0.0,0.0,0.0,0.0,0.0,0.0,0.0,0.0,0.0,0.0,0.0,0.0,0.0,0.0,0.0,0.0,0.0,0.0,0.0,0.0,0.0,0.0,0.0,0.0,0.0,0.0,0.0,0.0,0.0,0.0,0.0,0.0,0.0,0.0,0.0,0.0,0.0,0.0,0.0,0.0,0.0,0.0,0.0,0.0,0.0,0.0,0.0,0.0,0.0,0.0,0.0,0.0,0.0,0.0,0.0,0.0,0.0,0.0,0.0,0.0,0.0,0.0,0.0,0.0,0.0,0.0,0.0,0.0,0.0,0.0,0.0,0.0,0.0,0.0,0.0,0.0,0.0,0.0,0.0,0.0,0.0,0.0,0.0,0.0,0.0,0.0,0.0,0.0,0.0,0.0,0.0,0.0,0.0,0.0,0.0,0.0,0.0,0.0,0.0,0.0,0.0,0.0,0.0,0.0,0.0,0.0,0.0,0.0,0.0,0.0,0.0,0.0,0.0,0.0,0.0,0.0,0.0,0.0,0.0,0.0,0.0,0.0,0.0,0.0,0.0,0.0,0.0,0.0,0.0,0.0,0.0,0.0,0.0,0.0,0.0,0.0,0.0,0.0,0.0,0.0,0.0,0.0,0.0,0.0,0.0,0.0,0.0,0.0,0.0,0.0,0.0,0.0,0.0,0.0,0.0,0.0,0.0,0.0,0.0,0.0,0.0,0.0,0.0,0.0,0.0,0.0,0.0,0.0,0.0,0.0,0.0,0.0,0.0,0.0,0.0,0.0,0.0,0.0,0.0,0.0,0.0,0.0,0.0,0.0,0.0,0.0,0.0,0.0,0.0,0.0,0.0,0.0,0.0,0.0,0.0,0.0,0.0,0.0,0.0,0.0,0.0,0.0,0.0,0.0,0.0,0.0,0.0,0.0,0.0,0.0,0.0,0.0,0.0,0.0,0.0,0.0,0.0,0.0,0.0,0.0,0.0,0.0,0.0,0.0,0.0,0.0,0.0,0.0,0.0,0.0,0.0,0.0,0.0,0.0,0.0,0.0,0.0,0.0,0.0,0.0,0.0,0.0,0.0,0.0,0.0,0.0,0.0,0.0,0.0,0.0,0.0,0.0,0.0,0.0,0.0,0.0,0.0,0.0,0.0,0.0,0.0,0.0,0.0,0.0,0.0,0.0,0.0,0.0,0.0,0.0,0.0,0.0,0.0,0.0,0.0,0.0,0.0,0.0,0.0,0.0,0.0,0.0,0.0,0.0,0.0,0.0,0.0,0.0,0.0,0.0,0.0,0.0,0.0,0.0,0.0,0.0,0.0,0.0,0.0,0.0,0.0,0.0,0.0,0.0,0.0,0.0,0.0,0.0,0.0,0.0,0.0,0.0,0.0,0.0,0.0,0.0,0.0,0.0,0.0,0.0,0.0,0.0,0.0,0.0,0.0,0.0,0.0,0.0,0.0,0.0,0.0,0.0,0.0,0.0,0.0,0.0,0.0,0.0,0.0,0.0,0.0,0.0,0.0,0.0,0.0,0.0,0.0,0.0,0.0,0.0,0.0,0.0,0.0,0.0,0.0,0.0,0.0,0.0,0.0,0.0,0.0,0.0,0.0,0.0,0.0,0.0,0.0,0.0,0.0,0.0,0.0,0.0,0.0,0.0,0.0,0.0,0.0,0.0,0.0,0.0,0.0,0.0,0.0,0.0,0.0,0.0,0.0,0.0,0.0,0.0,0.0,0.0,0.0,0.0,0.0,0.0,0.0,0.0,0.0,0.0,0.0,0.0,0.0,0.0,0.0,0.0,0.0,0.0,0.0,0.0,0.0,0.0,0.0,0.0,0.0,0.0,0.0,0.0,0.0,0.0,0.0,0.0,0.0,0.0,0.0,0.0,0.0,0.0,0.0,0.0,0.0,0.0,0.0,0.0,0.0,0.0,0.0,0.0,0.0,0.0,0.0,0.0,0.0,0.0,0.0,0.0,0.0,0.0,0.0,0.0,0.0,0.0,0.0,0.0,0.0,0.0,0.0,0.0,0.0,0.0,0.0,0.0,0.0,0.0,0.0,0.0,0.0,0.0,0.0,0.0,0.0,0.0,0.0,0.0,0.0,0.0,0.0,0.0,0.0,0.0,0.0,0.0,0.0,0.0,0.0,0.0,0.0,0.0,0.0,0.0,0.0,0.0,0.0,0.0,0.0,0.0,0.0,0.0,0.0,0.0,0.0,0.0,0.0,0.0,0.0,0.0,0.0,0.0,0.0,0.0,0.0,0.0,0.0,0.0,0.0,0.0,0.0,0.0,0.0,0.0,0.0,0.0,0.0,0.0,0.0,0.0,0.0,0.0,0.0,0.0,0.0,0.0,0.0,0.0,0.0,0.0,0.0,0.0,0.0,0.0,0.0,0.0,0.0,0.0,0.0,0.0,0.0,0.0,0.0,0.0,0.0,0.0,0.0,0.0,0.0,0.0,0.0,0.0,0.0,0.0,0.0,0.0,0.0,0.0,0.0,0.0,0.0,0.0,0.0,0.0,0.0,0.0,0.0,0.0,0.0,0.0,0.0,0.0,0.0,0.0,0.0,0.0,0.0,0.0,0.0,0.0,0.0,0.0,0.0,0.0,0.0,0.0,0.0,0.0,0.0,0.0,0.0,0.0,0.0,0.0,0.0,0.0,0.0,0.0,0.0,0.0,0.0,0.0,0.0,0.0,0.0,0.0,0.0,0.0,0.0,0.0,0.0,0.0,0.0,0.0,0.0,0.0,0.0,0.0,0.0,0.0,0.0,0.0,0.0,0.0,0.0,0.0,0.0,0.0,0.0,0.0,0.0,0.0,0.0,0.0,0.0,0.0,0.0,0.0,0.0,0.0,0.0,0.0,0.0,0.0,0.0,0.0,0.0,0.0,0.0,0.0,0.0,0.0,0.0,0.0,0.0,0.0,0.0,0.0,0.0,0.0,0.0,0.0,0.0,0.0,0.0,0.0,0.0,0.0,0.0,0.0,0.0,0.0,0.0,0.0,0.0,0.0,0.0,0.0,0.0,0.0,0.0,0.0,0.0,0.0,0.0,0.0,0.0,0.0,0.0,0.0,0.0,0.0,0.0,0.0,0.0,0.0,0.0,0.0,0.0,0.0,0.0,0.0,0.0,0.0,0.0,0.0,0.0,0.0,0.0,0.0,0.0,0.0,0.0,0.0,0.0,0.0,0.0,0.0,0.0,0.0,0.0,0.0,0.0,0.0,0.0,0.0,0.0,0.0,0.0,0.0,0.0,0.0,0.0,0.0,0.0,0.0,0.0,0.0,0.0,0.0,0.0,0.0,0.0,0.0,0.0,0.0,0.0,0.0,0.0,0.0,0.0,0.0,0.0,0.0,0.0,0.0,0.0,0.0,0.0,0.0,0.0,0.0,0.0,0.0,0.0,0.0,0.0,0.0,0.0,0.0,0.0,0.0,0.0,0.0,0.0,0.0,0.0,0.0,0.0,0.0,0.0,0.0,0.0,0.0,0.0,0.0,0.0,0.0,0.0,0.0,0.0,0.0,0.0,0.0,0.0,0.0,0.0,0.0,0.0,0.0,0.0,0.0,0.0,0.0,0.0,0.0,0.0,0.0,0.0,0.0,0.0,0.0,0.0,0.0,0.0,0.0,0.0,0.0,0.0,0.0,0.0,0.0,0.0,0.0,0.0,0.0,0.0,0.0,0.0,0.0,0.0,0.0,0.0,0.0,0.0,0.0,0.0,0.0,0.0,0.0,0.0,0.0,0.0,0.0,0.0,0.0,0.0,0.0,0.0,0.0,0.0,0.0,0.0,0.0,0.0,0.0,0.0,0.0,0.0,0.0,0.0,0.0,0.0,0.0,0.0,0.0,0.0,0.0,0.0,0.0,0.0,0.0,0.0,0.0,0.0,0.0,0.0,0.0,0.0,0.0,0.0,0.0,0.0,0.0,0.0,0.0,0.0,0.0,0.0,0.0,0.0,0.0,0.0,0.0,0.0,0.0,0.0,0.0,0.0,0.0,0.0,0.0,0.0,0.0,0.0,0.0,0.0,0.0,0.0,0.0,0.0,0.0,0.0,0.0,0.0,0.0,0.0,0.0,0.0,0.0,0.0,0.0,0.0,0.0,0.0,0.0,0.0,0.0,0.0,0.0,0.0,0.0,0.0,0.0,0.0,0.0,0.0,0.0,0.0,0.0,0.0,0.0,0.0,0.0,0.0,0.0,0.0,0.0,0.0,0.0,0.0,0.0,0.0,0.0,0.0,0.0,0.0,0.0,0.0,0.0,0.0,0.0,0.0,0.0,0.0,0.0,0.0,0.0,0.0,0.0,0.0,0.0,0.0,0.0,0.0,0.0,0.0,0.0,0.0,0.0,0.0,0.0,0.0,0.0,0.0,0.0,0.0,0.0,0.0,0.0,0.0,0.0,0.0,0.0,0.0,0.0,0.0,0.0,0.0,0.0,0.0,0.0,0.0,0.0,0.0,0.0,0.0,0.0,0.0,0.0,0.0,0.0,0.0,0.0,0.0,0.0,0.0,0.0,0.0,0.0,0.0,0.0,0.0,0.0,0.0,0.0,0.0,0.0,0.0,0.0,0.0,0.0,0.0,0.0,0.0,0.0,0.0,0.0,0.0,0.0,0.0,0.0,0.0,0.0,0.0,0.0,0.0,0.0,0.0,0.0,0.0,0.0,0.0,0.0,0.0,0.0,0.0,0.0,0.0,0.0,0.0,0.0,0.0,0.0,0.0,0.0,0.0,0.0,0.0,0.0,0.0,0.0,0.0,0.0,0.0,0.0,0.0,0.0,0.0,0.0,0.0,0.0,0.0,0.0,0.0,0.0,0.0,0.0,0.0,0.0,0.0,0.0,0.0,0.0,0.0,0.0,0.0,0.0,0.0,0.0,0.0,0.0,0.0,0.0,0.0,0.0,0.0,0.0,0.0,0.0,0.0,0.0,0.0,0.0,0.0,0.0,0.0,0.0,0.0,0.0,0.0,0.0,0.0,0.0,0.0,0.0,2.2228,2.2362,0.0,0.0,0.0,0.0,0.0,0.0,0.0,0.0,0.0,0.0,0.0,0.0,0.0,0.0,0.0,0.0,0.0,0.0,0.0,0.0,0.0,0.0,0.0,0.0,0.0,0.0,0.0,0.0,0.0,0.0,0.0,0.0,0.0,0.0,1.3221,1.3722,1.4339,1.5074,1.5276,1.5881,1.6872,1.7477,1.744,1.6908,0.0,0.0,0.0,0.0,0.0,0.0,0.0,0.0,0.0,0.0,0.0,0.0,0.0,0.0,0.0,0.0,0.0,0.0,0.0,0.0,0.0,0.0,0.0,0.0,0.0,0.0,0.0,0.0,0.0,0.0,0.0,0.0,0.0,0.0,0.0,0.0,0.0,0.0,0.0,0.0,0.0,0.0,0.0,0.0,0.0,0.0,0.0,0.0,0.0,0.0,0.0,0.0,0.0,0.0,0.0,0.0,0.0,0.0,0.0,0.0,0.0,0.0,0.0,0.0,0.0,0.0,0.0,0.0,0.0,0.0,2.341,2.3001,0.0,0.0,0.0,0.0,0.0,0.0,0.0,0.0,0.0,0.0,0.0,0.0,0.0,0.0,0.0,0.0,0.0,0.0,0.0,0.0,0.0,0.0,0.0,0.9143,0.9352,0.9857,0.9844,1.0089,0.0,0.0,0.0,0.0,0.0,1.3164,1.348,1.3882,1.4572,1.5588,1.601,1.7055,1.863,1.9384,1.9017,1.7734,1.7312,0.0,0.0,0.0,0.0,0.0,0.0,0.0,0.0,0.0,0.0,0.0,0.0,0.0,0.0,0.0,0.0,0.0,0.0,0.0,0.0,0.0,0.0,0.0,0.0,0.0,0.0,0.0,0.0,0.0,0.0,0.0,0.0,0.0,0.0,0.0,0.0,0.0,0.0,0.0,0.0,0.0,0.0,0.0,0.0,0.0,0.0,0.0,0.0,0.0,0.0,0.0,0.0,0.0,0.0,0.0,0.0,0.0,0.0,0.0,0.0,0.0,0.0,0.0,2.629,2.6771,2.6911,2.6911,2.7008,2.7099,2.5088,2.4171,2.4062,2.3871,0.0,0.0,0.0,0.0,0.0,0.0,0.0,0.0,0.0,0.0,0.0,0.0,0.0,0.0,0.0,0.0,0.0,0.0,0.0,0.0,0.0,0.9312,0.9647,1.0186,0.9806,1.0154,1.1549,1.127,1.1471,1.2459,1.2828,1.3164,1.348,1.4175,1.4746,1.5184,1.7293,1.9146,2.0723,2.1156,2.1266,2.0973,1.8868,1.8339,1.8928,0.0,0.0,0.0,0.0,0.0,0.0,0.0,0.0,0.0,0.0,0.0,0.0,0.0,0.0,0.0,0.0,0.0,0.0,0.0,0.0,0.0,0.0,0.0,0.0,0.0,0.0,0.0,0.0,0.0,0.0,0.0,0.0,0.0,0.0,0.0,0.0,0.0,0.0,0.0,0.0,0.0,2.0996,2.0644,0.0,0.0,0.0,0.0,0.0,0.0,0.0,0.0,0.0,0.0,0.0,0.0,0.0,2.4665,2.5524,2.7687,2.8174,2.6927,2.9049,2.9381,2.8093,2.8093,2.8193,2.8351,2.7419,0.0,2.5304,2.4917,0.0,0.0,0.0,0.0,0.0,0.0,0.0,0.0,0.0,0.0,0.0,0.0,0.0,0.0,0.0,0.0,0.0,0.0,0.0,0.0,0.0,1.0009,1.0563,1.1581,1.2348,1.2871,1.2975,1.3384,1.3427,1.2901,1.3141,1.3461,1.3836,1.4537,1.5733,1.7458,2.0076,2.1896,2.2878,2.3474,2.3657,2.34,2.2098,2.0686,1.9277,1.89,0.0,0.0,0.0,0.0,0.0,0.0,0.0,0.0,0.0,0.0,0.0,0.0,0.0,0.0,0.0,0.0,0.0,0.0,0.0,0.0,0.0,0.0,0.0,0.0,0.0,0.0,0.0,0.0,0.0,0.0,0.0,0.0,0.0,0.0,0.0,0.0,0.0,0.0,0.0,2.1214,2.1112,2.0977,2.1073,2.121,0.0,0.0,0.0,0.0,0.0,0.0,0.0,0.0,0.0,2.6714,2.6294,2.6703,2.8034,2.8844,2.9001,2.8574,3.0005,3.0465,3.0054,3.0716,3.0716,3.0192,3.0261,2.9316,2.7572,2.6218,2.5509,2.5233,0.0,0.0,0.0,0.0,2.4661,2.479,0.0,0.0,0.0,0.0,0.0,0.0,0.0,0.0,0.0,0.0,0.0,0.0,1.0394,1.1046,1.1966,1.3385,1.4629,1.5168,1.479,1.4906,1.4541,1.3537,1.3502,1.3712,1.4102,1.5373,1.7406,2.0246,2.2777,2.4317,2.4992,2.5708,2.5821,2.5527,2.5157,2.3433,2.0801,2.0267,1.9769,1.9424,0.0,0.0,0.0,0.0,0.0,0.0,0.0,0.0,0.0,0.0,0.0,0.0,0.0,0.0,0.0,0.0,0.0,0.0,0.0,0.0,0.0,0.0,0.0,0.0,0.0,0.0,0.0,0.0,0.0,0.0,0.0,0.0,0.0,0.0,0.0,0.0,0.0,2.1628,2.1589,2.125,2.199,2.2473,0.0,0.0,0.0,0.0,0.0,0.0,2.5788,2.6048,2.7373,2.9895,2.876,2.8865,3.0536,3.073,3.0853,3.087,3.1709,3.2123,3.2209,3.2769,3.2551,3.1747,3.2094,3.1444,2.9849,2.7688,2.677,2.662,2.5538,2.5458,2.5934,2.5561,2.5571,2.5792,0.0,0.0,0.0,0.0,0.0,0.0,0.0,0.0,0.0,0.0,0.0,0.9588,1.0924,1.2376,1.3899,1.5514,1.5404,1.5777,1.7043,1.4488,1.342,1.4466,1.3916,1.3751,1.4082,1.7066,1.9967,2.273,2.4464,2.5876,2.7031,2.7509,2.7693,2.7656,2.7252,2.6281,2.4842,2.2423,2.2046,2.2887,2.1232,0.0,0.0,0.0,0.0,0.0,0.0,0.0,0.0,0.0,0.0,0.0,0.0,0.0,0.0,0.0,0.0,0.0,0.0,0.0,0.0,0.0,0.0,0.0,0.0,0.0,0.0,0.0,0.0,0.0,0.0,0.0,0.0,0.0,0.0,0.0,0.0,0.0,0.0,2.1369,2.4069,0.0,0.0,0.0,0.0,2.5765,2.7192,2.841,2.9015,2.9029,3.0109,3.2522,3.1253,3.1274,3.2927,3.4877,3.5318,3.4282,3.5363,3.5386,3.4292,3.3212,3.2721,3.2644,3.2224,3.194,3.1678,2.9405,2.7986,2.7226,2.6921,2.6948,2.7164,2.69,2.6948,2.7206,0.0,0.0,0.0,0.0,0.0,0.0,0.0,0.0,0.8602,0.8698,0.9672,1.1156,1.3209,1.4705,1.6483,1.8918,1.9367,1.9345,1.9018,1.7143,1.5991,1.596,1.4646,1.5034,1.7388,2.0056,2.2691,2.5289,2.6371,2.7673,2.9122,2.8993,2.8979,2.892,2.8832,2.8653,2.8338,2.5354,2.37,2.3022,2.2293,2.2059,0.0,0.0,0.0,0.0,0.0,0.0,0.0,0.0,0.0,0.0,0.0,0.0,0.0,0.0,0.0,0.0,0.0,0.0,0.0,0.0,0.0,0.0,0.0,0.0,0.0,0.0,0.0,0.0,0.0,0.0,0.0,0.0,0.0,0.0,0.0,0.0,0.0,2.5738,2.7143,0.0,2.8077,2.9152,2.9645,2.915,3.0904,3.202,3.201,3.1556,3.2634,3.5598,3.3741,3.3997,3.6734,3.6703,3.6138,3.4984,3.5434,3.5201,3.4525,3.4781,3.4947,3.498,3.5514,3.4776,3.3102,3.2298,3.1563,3.086,2.9916,3.0219,3.1134,3.0429,2.9833,2.9257,0.0,0.0,0.0,0.0,0.0,0.0,0.0,0.0,0.8734,0.883,1.0298,1.2313,1.4851,1.6777,1.8932,2.153,2.1974,2.169,2.067,1.8523,1.7096,1.6705,1.5584,1.6405,1.9428,2.1953,2.4361,2.6591,2.7655,2.8792,2.9984,2.9709,2.9654,2.9782,2.9782,2.9908,2.9925,2.81,2.639,2.4906,2.415,2.3981,2.3925,0.0,0.0,0.0,0.0,0.0,0.0,0.0,0.0,0.0,0.0,0.0,0.0,0.0,0.0,0.0,0.0,0.0,0.0,0.0,0.0,0.0,0.0,0.0,0.0,0.0,0.0,0.0,0.0,0.0,0.0,0.0,0.0,0.0,0.0,2.6399,2.7905,2.8737,3.0229,3.1222,3.1414,3.2666,3.3134,3.2277,3.4222,3.5211,3.4819,3.428,3.5341,3.8261,3.6064,3.6182,3.896,3.8029,3.7165,3.6386,3.6228,3.5979,3.5663,3.6022,3.6185,3.624,3.6588,3.5699,3.3988,3.3624,3.3474,3.3346,3.2009,3.2324,3.3481,3.2308,3.1524,3.0992,0.0,0.0,0.0,0.0,0.0,0.0,0.0,0.8345,0.8806,0.9071,1.0791,1.3029,1.5718,1.8548,2.1147,2.3218,2.285,2.2355,2.2027,1.8367,1.6365,1.6657,1.6794,1.7884,1.9989,2.2648,2.488,2.6719,2.826,2.9232,2.9635,2.9617,2.9837,3.0222,3.0222,2.9984,2.9725,3.0586,3.021,2.8787,2.6802,2.6493,2.6909,0.0,0.0,0.0,0.0,0.0,0.0,0.0,0.0,0.0,0.0,0.0,0.0,0.0,0.0,0.0,0.0,0.0,0.0,0.0,0.0,0.0,0.0,0.0,0.0,0.0,0.0,0.0,0.0,0.0,0.0,0.0,0.0,0.0,2.6342,2.8192,2.9828,3.0078,3.316,3.4777,3.3379,3.5688,3.6624,3.5041,3.6874,3.7841,3.7412,3.7256,3.8157,4.0423,3.8153,3.7729,3.941,3.8905,3.8641,3.8587,3.8161,3.7897,3.7844,3.675,3.624,3.624,3.5113,3.458,3.4469,3.3275,3.3424,3.4294,3.2896,3.3027,3.3833,3.2243,3.1994,3.2167,0.0,0.0,0.0,0.0,0.0,0.0,0.7821,0.8345,0.8878,0.9336,1.2171,1.5214,1.801,2.0791,2.3248,2.5235,2.3858,2.2609,2.2059,1.8589,1.6524,1.6365,1.9107,2.1445,2.3202,2.4979,2.7164,2.9635,2.9292,2.9707,3.0882,3.0589,3.0516,3.0626,3.0626,3.0823,3.1127,3.2078,3.2404,3.2069,2.9206,2.8077,2.795,0.0,0.0,0.0,0.0,0.0,0.0,0.0,0.0,0.0,0.0,0.0,0.0,0.0,0.0,0.0,0.0,0.0,0.0,0.0,0.0,0.0,0.0,0.0,0.0,0.0,0.0,0.0,0.0,0.0,0.0,0.0,2.8499,2.9032,2.8353,3.1174,3.3592,3.4539,3.6152,3.7217,3.727,3.7991,3.8241,3.7817,3.8667,3.9368,3.9606,3.8372,3.8522,4.0448,3.865,3.846,4.017,4.0021,3.9549,3.8719,3.8629,3.831,3.7897,3.7554,3.7897,3.8659,3.7447,3.648,3.564,3.4469,3.3723,3.3345,3.3377,3.4084,3.4975,3.3743,3.2677,3.1658,0.0,0.0,0.0,0.0,0.0,0.0,0.7821,0.8345,0.8939,0.9588,1.297,1.6313,1.8861,2.1682,2.3932,2.5246,2.361,2.2084,2.1008,1.8557,1.7207,1.7302,2.0327,2.2768,2.4217,2.5816,2.7704,2.9841,2.9333,2.9807,3.1121,3.0901,3.0974,3.1304,3.1304,3.1477,3.1785,3.2653,3.3235,3.3561,3.1603,3.1114,3.1201,2.8751,2.835,2.8835,2.6815,2.6743,2.7306,2.5661,0.0,0.0,0.0,0.0,0.0,0.0,0.0,0.0,0.0,0.0,0.0,0.0,0.0,0.0,0.0,0.0,0.0,0.0,0.0,0.0,0.0,0.0,0.0,0.0,3.0202,3.1199,3.1724,3.3891,3.5931,3.731,3.8191,3.8843,3.917,3.9647,3.9722,3.9245,4.0149,4.0576,4.0199,3.942,3.9466,4.0448,3.9322,3.9244,4.0501,4.03,3.9835,3.9177,3.9177,3.8741,3.7897,3.8425,3.8764,3.8921,3.8214,3.7501,3.6834,3.5436,3.4521,3.3901,0.0,0.0,0.0,0.0,3.2178,3.0538,0.0,0.0,0.0,0.0,0.0,0.0,0.7821,0.8345,0.8999,0.9805,1.3363,1.656,1.8628,2.1549,2.3535,2.398,2.2664,2.1103,1.9527,1.8603,1.8398,1.9145,2.1251,2.2964,2.4201,2.5869,2.7385,2.8677,2.9065,2.978,3.0864,3.0901,3.1322,3.2001,3.2001,3.2038,3.2122,3.2687,3.332,3.3961,3.4051,3.4658,3.5184,3.2323,3.2137,3.3023,3.0452,2.9412,2.9027,2.7762,0.0,0.0,0.0,0.0,0.0,0.0,0.0,0.0,0.0,0.0,0.0,0.0,0.0,0.0,0.0,0.0,0.0,0.0,0.0,0.0,0.0,0.0,0.0,0.0,3.219,3.3872,3.5533,3.6307,3.7236,3.8743,3.9346,3.9697,3.9697,4.0576,4.0752,3.9772,4.1103,4.1383,3.9873,4.0249,0.0,0.0,0.0,3.9923,4.0425,3.9948,3.9697,3.9697,3.9697,3.9154,3.8161,3.9206,3.9154,3.8108,3.795,3.7897,3.7743,3.5978,3.5146,3.4903,3.3573,3.3272,3.3543,3.2664,3.1064,2.9381,0.0,0.0,0.0,0.0,0.0,0.0,0.7848,0.8345,0.8999,0.9805,1.3358,1.6306,1.7649,2.0195,2.234,2.3488,2.1576,2.0068,1.9463,1.9701,2.0321,2.1358,2.365,2.5281,2.6161,2.7008,2.8263,2.9942,2.9809,3.0271,3.1267,3.1616,3.1854,3.2001,3.2001,3.2184,3.2544,3.3425,3.444,3.5372,3.6205,3.6053,3.5119,3.3811,3.3522,3.3573,3.183,3.225,3.326,3.0903,3.0567,3.0687,2.833,2.6334,0.0,0.0,0.0,0.0,0.0,0.0,0.0,0.0,0.0,0.0,0.0,0.0,0.0,0.0,0.0,0.0,0.0,0.0,0.0,3.1612,3.3319,3.5127,3.7236,3.804,3.8517,3.8894,3.9346,3.9697,3.9697,3.9898,3.9923,3.9722,4.04,4.0701,4.0375,4.045,4.0526,4.0526,3.9973,3.9747,3.9848,3.9747,3.9697,3.9697,3.9697,0.0,3.9362,3.9594,3.9569,3.931,3.8319,3.7897,3.769,3.5174,3.3665,3.2936,3.3524,3.2785,3.1444,3.1666,3.0976,2.9891,0.0,0.0,0.0,0.0,0.0,0.0,0.7848,0.8345,0.8951,0.9624,1.2784,1.5316,1.6149,1.8424,2.0019,2.0384,1.8955,1.8255,1.8796,1.9971,2.1433,2.3197,2.4972,2.6338,2.7182,2.7472,2.8279,2.9524,2.9967,3.0484,3.1233,3.1778,3.2221,3.2606,3.2404,3.2643,3.3193,3.3513,3.4222,3.5225,3.5892,3.6017,3.5858,3.5737,3.5634,3.5329,3.4097,3.4317,3.4895,3.2803,3.2274,3.213,2.9989,2.821,2.6598,0.0,0.0,0.0,0.0,0.0,0.0,0.0,0.0,0.0,0.0,0.0,0.0,0.0,0.0,2.7178,2.8008,0.0,3.1637,3.3527,3.5052,3.6533,3.8191,3.8919,3.927,3.927,3.9521,3.9697,3.9697,3.9948,4.0099,4.0099,4.0877,4.1103,4.0551,4.0724,4.0676,4.0124,3.9848,3.9697,3.9697,3.9697,3.9697,3.9697,3.9697,3.9362,3.8816,3.9413,3.9362,3.8816,3.8816,3.8816,3.8662,3.7059,3.5235,3.3692,3.5001,3.4076,3.2062,3.2308,3.1771,3.0771,0.0,0.0,0.0,0.0,0.0,0.0,0.0,0.8297,0.8806,0.93,1.1952,1.4012,1.4465,1.6423,1.7477,1.6921,1.6714,1.7239,1.8716,2.0448,2.2529,2.4992,2.6025,2.6883,2.7804,2.7693,2.8032,2.8906,2.9817,3.0478,3.1119,3.1667,3.2381,3.3211,3.279,3.3046,3.3798,3.3468,3.4003,3.5142,3.5196,3.5865,3.6873,3.7182,3.7235,3.6928,3.6028,3.5473,3.4992,3.3837,3.2947,3.213,3.0927,2.9677,2.8282,2.6334,2.5107,0.0,0.0,0.0,0.0,0.0,0.0,0.0,0.0,2.4079,2.4782,2.5335,2.6866,2.8499,2.9854,3.1612,3.347,3.5357,3.6709,3.7864,3.8894,3.932,3.9546,3.9546,3.9622,3.9697,3.9697,4.0099,4.035,4.035,4.1279,4.1404,4.04,4.0824,4.0727,3.9722,3.9697,3.9697,3.9697,3.9697,3.9697,3.9697,3.9697,3.9206,3.8267,3.9258,3.9154,3.8319,3.9258,3.9519,3.9187,3.8739,3.702,3.4772,3.6064,3.5183,3.3201,3.3201,3.2342,3.1142,0.0,0.0,0.0,0.0,0.0,0.0,0.0,0.0,0.8441,0.8758,1.0913,1.2549,1.282,1.4484,1.5507,1.5427,1.7048,1.8796,2.0512,2.2221,2.4341,2.6803,2.7328,2.7741,2.8154,2.7582,2.7903,2.927,2.9456,3.014,3.146,3.1527,3.2115,3.3211,3.279,3.3046,3.3817,3.3762,3.4895,3.6736,3.6302,3.6869,3.7823,3.7046,3.6831,3.6838,3.6384,3.507,3.3597,3.3861,3.2971,3.1862,3.213,3.0831,2.8979,2.7801,2.5733,2.3649,2.2517,2.1764,2.1469,2.221,2.2744,2.3371,0.0,2.5812,2.7067,2.762,2.9428,3.0984,3.1185,3.337,3.5382,3.6157,3.7687,3.8894,3.9521,3.922,3.902,3.902,3.9396,3.9697,3.9697,3.9747,3.9798,3.9798,4.035,4.0425,3.9823,4.03,4.0325,3.9722,3.9697,3.9697,3.9697,3.9697,3.9697,3.9697,3.9697,3.9645,3.9517,3.9645,3.9645,3.9517,3.9645,3.8881,3.7536,3.7412,3.6022,3.407,3.424,3.3839,3.3201,3.3201,3.1698,2.9642,0.0,0.0,0.0,0.0,0.0,0.0,0.0,0.0,0.0,0.8469,0.971,1.0829,1.1389,1.2788,1.3697,1.3697,1.5608,1.7604,1.9526,2.2062,2.4642,2.7089,2.7931,2.8599,2.9139,2.8678,2.8595,2.9024,2.9857,3.0497,3.0972,3.1783,3.2666,3.3541,3.3138,3.3285,3.3817,3.3817,3.4352,3.51,3.5015,3.534,3.5749,3.4682,3.3927,3.3458,3.3503,3.2651,0.0,3.1344,3.1048,3.0831,3.1384,3.0302,2.857,2.7176,2.5348,2.3682,2.3101,2.25,2.2258,2.346,2.418,2.4858,2.5988,2.7042,2.8097,2.9327,3.0809,3.2164,3.3144,3.4801,3.6207,3.6759,3.8039,3.8894,3.8718,3.8517,3.814,3.7536,3.7662,3.814,3.912,3.922,3.9471,4.0124,4.0375,4.0425,4.0199,4.04,4.0249,3.9722,3.9697,3.9697,3.9697,3.9697,3.9697,3.9697,3.9697,3.9697,3.9697,3.9697,3.9697,3.9697,3.9697,3.8915,3.7739,3.838,3.7363,3.538,3.5384,3.4872,3.4042,3.3449,3.2332,3.1072,0.0,0.0,0.0,0.0,0.0,0.0,0.0,0.0,0.0,0.0,0.8887,0.9744,1.0735,1.189,1.2598,1.2598,1.4299,1.6333,1.8541,2.1465,2.4245,2.6803,2.7915,2.8773,2.9377,2.9139,2.9003,2.9125,3.009,3.077,3.1132,3.2065,3.2934,3.3798,3.3395,3.345,3.3817,3.3817,3.3882,3.4041,3.4003,3.3848,3.3617,3.2438,3.1074,2.9875,3.0364,2.9665,2.848,2.8243,2.8162,2.8282,2.9244,2.857,2.7176,2.5997,2.4458,2.3103,2.3032,2.2923,2.3164,2.4421,2.5461,2.6471,2.7519,2.8398,2.9402,3.0783,3.1913,3.3043,3.4274,3.5529,3.6531,3.6933,3.7889,3.8492,3.8065,3.7613,3.7036,3.6232,3.5776,3.6103,3.7588,3.814,3.8868,3.9973,4.0074,4.0124,4.0275,4.03,4.0099,3.9697,3.9697,3.9697,3.9697,3.9697,3.9697,3.9697,3.9697,3.9697,3.9697,3.9697,3.9697,3.9697,3.9521,3.8994,3.8291,3.8944,3.8116,3.6378,3.6255,3.5515,3.4477,3.3545,3.2879,3.2319,0.0,0.0,0.0,0.0,0.0,0.0,0.0,0.0,0.0,0.0,0.0,0.0,0.0,1.2103,1.2598,1.2598,1.3854,1.5675,1.816,2.0689,2.3317,2.612,2.72,2.7931,2.8265,2.8265,2.8772,2.9897,2.9897,3.0833,3.263,3.2258,3.2708,3.3798,3.3395,3.345,3.3817,3.3817,3.4196,3.4672,3.3827,3.3234,3.2601,3.0959,2.8929,2.6969,2.7872,2.6486,2.4307,2.5134,2.4434,2.3577,2.5612,2.5516,2.4592,2.4544,2.3111,2.1506,2.1607,2.242,2.3384,2.4303,2.6129,2.794,2.8675,3.0131,3.1461,3.2039,3.3068,3.3872,3.3922,3.5253,3.6405,3.643,3.7312,3.8015,3.8015,3.6586,3.5558,3.5533,3.4148,3.3621,3.4751,3.6282,3.7713,3.8894,3.8969,3.9196,3.9697,3.9722,3.9722,3.9697,3.9697,3.9697,3.9697,3.9697,3.9697,3.9697,3.9697,3.9697,3.9697,3.9697,3.9697,3.9672,3.912,3.8868,3.8844,3.8266,3.7394,3.6367,3.5835,3.497,3.3968,3.3384,3.2929,3.2561,0.0,0.0,0.0,0.0,0.0,0.0,0.0,0.0,0.0,0.0,0.0,0.0,0.0,0.0,0.0,0.0,1.3616,1.503,1.6794,1.9431,2.1709,2.3349,2.5723,2.6978,2.6851,2.7534,2.7972,2.8132,2.876,2.9423,3.0139,3.0871,3.1556,3.2184,3.2056,3.2221,3.2606,3.2313,3.2013,3.1694,3.0872,3.0257,2.9541,2.7629,2.611,2.4894,0.0,2.3033,2.2306,2.2615,2.2366,2.2173,2.3592,2.3304,2.2318,2.1596,2.1139,2.1145,2.2334,2.3434,2.4652,2.6272,2.7767,2.9159,3.0317,3.0984,3.1662,3.2591,3.2215,3.1813,3.2164,3.2692,3.3319,3.4117,3.5403,3.6335,3.6335,3.6207,3.5403,3.3502,3.3194,3.3068,3.3068,3.4575,3.6157,3.7638,3.809,3.8542,3.912,3.9496,3.9697,3.9697,3.9697,3.9697,3.9697,3.9697,3.9697,3.9697,3.9697,3.9697,3.9697,3.9697,3.9697,3.9672,3.912,3.8919,3.8818,3.8241,3.7792,3.7344,3.6084,3.5817,3.5965,3.4723,3.4607,3.4919,0.0,0.0,0.0,0.0,0.0,0.0,0.0,0.0,0.0,0.0,0.0,0.0,0.0,0.0,0.0,0.0,0.0,1.4073,1.5532,1.7683,1.9479,2.0782,2.3149,2.4372,2.4337,2.5071,2.5498,2.5565,2.6621,2.7375,2.7818,2.9137,2.9837,3.0094,3.0094,3.0314,3.0699,3.0259,2.9635,2.8828,2.7856,2.6793,2.5557,2.3951,2.2776,0.0,2.0841,2.0421,2.041,2.049,2.0538,2.0658,2.1332,2.1211,2.073,2.023,2.0586,2.1554,2.3216,2.457,2.5983,2.7829,2.9252,3.0397,3.1179,3.1537,3.1662,3.1612,3.0909,3.0231,2.998,3.0407,3.106,3.1788,3.3269,3.4455,3.4856,3.5102,3.4675,3.3269,3.3093,3.2993,3.2842,3.3796,3.5102,3.6759,3.7588,3.8266,3.8894,3.9396,3.9697,3.9697,3.9697,3.9697,3.9697,3.9697,3.9697,3.9697,3.9697,3.9697,3.9697,3.9697,3.9697,3.9647,3.8894,3.8567,3.8517,3.7939,3.7713,3.7614,3.6555,3.6578,3.7063,3.5816,3.581,3.6216,0.0,0.0,0.0,0.0,0.0,0.0,0.0,0.0,0.0,0.0,0.0,0.0,0.0,0.0,0.0,0.0,0.0,0.0,1.4419,1.55,1.6873,1.8496,1.9669,2.0416,2.0734,2.1064,2.1619,2.2396,2.3506,2.4628,2.572,2.6919,2.7453,2.7453,2.7453,2.7691,2.8058,2.7636,2.6995,2.6169,2.5014,2.3136,2.0948,2.0391,1.9354,1.8268,1.8769,1.877,1.8652,1.8919,1.8999,1.9047,1.9071,1.9432,1.9989,2.0567,2.1506,2.2678,2.4218,2.5793,2.7372,2.8895,3.0425,3.1519,3.1364,3.1687,3.1411,2.9239,2.9202,2.9001,2.7394,2.8499,2.9654,2.9729,3.116,3.2667,3.3822,3.3571,3.3646,3.465,3.3872,3.3445,3.3947,3.3997,3.47,3.6329,3.7362,3.8241,3.8894,3.9396,3.9697,3.9697,3.9697,3.9697,3.9697,3.9697,3.9697,3.9697,3.9697,3.9697,3.9697,3.9697,3.9672,3.9597,3.8492,3.8015,3.7965,3.7387,3.7186,3.7211,3.7161,3.7161,3.7111,3.6606,3.6405,3.6405,0.0,0.0,0.0,0.0,0.0,0.0,0.0,0.0,0.0,0.0,0.0,0.0,0.0,0.0,0.0,0.0,0.0,0.0,1.3424,1.4423,1.5199,1.5643,1.7461,1.8412,1.8208,1.905,1.9542,1.9781,2.0564,2.1097,2.1374,2.2446,2.2985,2.2985,2.3176,2.3492,2.384,2.3437,2.2813,2.2006,2.142,2.0724,2.0094,1.9564,1.9409,1.9425,1.9433,1.9094,1.8652,1.8919,1.929,1.9676,2.0081,2.0562,2.1163,2.2101,2.34,2.4771,2.5961,2.745,2.8899,2.9861,3.0555,3.091,3.0586,2.9813,2.8875,2.7896,2.6515,2.5335,2.4908,2.6223,2.7756,2.895,3.1235,3.3395,3.4856,3.5705,3.5931,3.5357,3.5454,3.5429,3.5107,3.5504,3.6128,3.691,3.7236,3.7839,3.8869,3.9396,3.9697,3.9697,3.9697,3.9697,3.9697,3.9697,3.9697,3.9697,3.9697,3.9697,3.9697,3.9697,3.9471,3.9044,3.8316,3.8015,3.7939,3.696,3.7061,3.7713,3.6933,3.6883,3.7111,3.6606,3.6405,3.6405,0.0,0.0,0.0,0.0,0.0,0.0,0.0,0.0,0.0,0.0,0.0,0.0,0.0,0.0,0.0,0.0,0.0,0.0,0.0,1.341,1.3791,1.395,1.5094,1.5736,1.5704,1.6079,1.6381,1.6524,1.7293,1.7727,1.7895,1.9105,1.968,1.968,1.9989,2.0332,2.068,2.0278,1.9787,0.0,0.0,1.8114,1.7745,1.771,1.7864,1.8154,1.8372,1.8359,1.8416,1.9374,2.0057,2.0586,2.1139,2.1981,2.2943,2.3761,2.5131,2.655,2.7354,2.8787,3.0103,3.0604,3.0845,3.0736,2.9698,2.8686,2.7437,2.5477,2.4305,2.3477,2.2975,2.4255,2.5837,2.7243,2.9804,3.2215,3.3803,3.5454,3.6408,3.6282,3.6734,3.696,3.6611,3.691,3.7312,3.7889,3.7914,3.8265,3.8894,3.9396,3.9697,3.9697,3.9697,3.9697,3.9697,3.9697,3.9697,3.9697,3.9446,3.932,3.932,3.9069,3.8793,3.8467,3.7889,3.7638,3.7588,3.6757,3.6782,3.7236,3.6656,3.6606,3.6784,3.6531,3.6405,3.6405,0.0,0.0,0.0,0.0,0.0,0.0,0.0,0.0,0.0,0.0,0.0,0.0,0.0,0.0,0.0,0.0,0.0,0.0,0.0,0.0,1.2678,1.3012,1.3028,1.3155,1.3474,1.3171,1.3188,1.3507,1.4246,1.4763,1.5098,1.6436,1.7079,1.7079,1.7461,1.7844,1.8137,1.7752,1.744,1.7037,1.6285,1.5601,1.5074,0.0,1.5749,1.5907,1.666,1.7286,1.8031,1.9969,2.1019,2.162,2.2294,2.352,2.4867,2.554,2.6767,2.8026,2.8667,2.9893,3.1038,3.1137,3.1028,3.0406,2.8705,2.7705,2.6188,2.2865,2.2493,2.2518,2.1644,2.2799,2.4305,2.5611,2.7996,3.0357,3.2265,3.4304,3.606,3.7262,3.7889,3.8241,3.8241,3.8241,3.8442,3.8994,3.902,3.902,3.902,3.9421,3.9697,3.9697,3.9697,3.9697,3.9697,3.9697,3.9697,3.9697,3.922,3.8994,3.8894,3.8341,3.804,3.7864,3.7387,3.7136,3.7036,3.6606,3.6405,3.6405,3.6405,3.6405,3.6405,3.6405,3.6405,3.6405,0.0,0.0,0.0,0.0,0.0,0.0,0.0,0.0,0.0,0.0,0.9432,0.9286,0.0,0.0,0.0,0.0,0.0,0.0,0.0,0.0,0.0,1.2662,1.2694,1.271,1.2773,1.271,1.2803,1.3099,1.3025,1.3136,1.3421,1.3979,1.4219,1.425,1.4849,1.5153,1.5239,1.5166,1.5062,1.4983,1.4506,1.4474,1.4706,1.4785,0.0,0.0,1.6353,1.6988,1.7795,1.9889,2.126,2.2294,2.3688,2.4891,2.6093,2.7536,2.8474,2.9244,3.0206,3.1019,3.1476,3.1062,3.0077,2.8806,2.7287,2.5274,2.3337,2.1942,2.1343,2.1194,2.1443,2.2472,2.4073,2.659,2.8172,3.0267,3.3796,3.5429,3.6835,3.8391,3.9069,3.9396,3.9396,3.9396,3.9446,3.9546,3.9546,3.9546,3.9546,3.9647,3.9697,3.9697,3.9697,3.9697,3.9697,3.9697,3.9697,3.9697,3.9597,3.932,3.8919,3.8768,3.8216,3.7312,3.7236,3.6935,3.6531,3.6455,3.6405,3.6405,3.6405,3.6405,3.6405,3.6405,3.6405,3.6405,0.0,0.0,0.0,0.0,0.0,0.0,0.0,0.9569,0.9843,1.1357,1.1464,1.1101,1.0338,1.0306,0.0,0.0,0.0,0.0,0.0,0.0,0.0,0.0,1.2598,1.2598,1.2598,1.2598,1.2736,1.2981,0.0,1.2858,1.3011,1.3528,1.3662,1.3541,1.4189,1.4396,1.4194,1.4414,1.4268,1.3882,1.3882,1.3895,1.394,0.0,0.0,0.0,1.6059,1.6525,1.6954,1.9223,2.0591,2.1837,2.4506,2.6262,2.756,2.8619,2.9292,2.9941,3.0999,3.1524,3.1645,3.1404,2.976,2.7777,2.6162,2.3968,2.2001,2.0836,2.0388,2.049,2.1317,2.2146,2.3396,2.5636,2.7419,2.9553,3.2566,3.47,3.6558,3.8216,3.917,3.9697,3.9697,3.9697,3.9697,3.9697,3.9697,3.9697,3.9697,3.9697,3.9697,3.9697,3.9697,3.9697,3.9697,3.9697,3.9546,3.927,3.8969,3.8517,3.799,3.7737,3.731,3.6807,3.6807,3.6656,3.6405,3.6405,3.6405,3.6405,3.6405,3.6405,3.6405,3.6405,3.6405,3.6405,0.0,0.0,0.0,0.0,0.0,0.0,0.0,1.0873,1.1303,1.3253,1.3565,1.3059,1.1656,1.118,1.0948,0.0,0.0,0.0,0.0,0.0,0.0,0.0,0.0,0.0,1.2598,0.0,0.0,1.3103,1.3042,0.0,0.0,0.0,0.0,0.0,1.4129,1.4194,1.3929,1.4157,1.3882,0.0,0.0,1.347,1.323,0.0,0.0,0.0,0.0,1.59,1.6165,1.833,1.9638,2.0907,2.4064,2.6358,2.7945,2.8595,2.934,3.0158,3.1259,3.1621,3.1645,3.1428,2.934,2.6914,2.5188,2.3063,2.112,2.0007,1.9785,2.0112,2.1117,2.1669,2.2548,2.4324,2.6189,2.8247,3.0708,3.3345,3.5633,3.7462,3.8768,3.9572,3.9697,3.9697,3.9697,3.9697,3.9697,3.9697,3.9697,3.9697,3.9697,3.9697,3.9697,3.9697,3.9697,3.9697,3.9421,3.8919,3.8542,3.7965,3.7186,3.6908,3.6631,3.6405,3.6405,3.6405,3.6405,3.6405,3.648,3.6581,3.6455,3.648,3.6581,3.6455,3.6405,3.6405,0.0,0.0,0.0,0.0,0.0,0.0,0.0,1.1713,1.2928,1.545,1.486,1.4108,1.3733,1.319,1.222,0.0,0.0,0.0,0.0,0.0,0.0,0.0,0.0,0.0,0.0,0.0,0.0,1.345,1.3164,0.0,0.0,0.0,0.0,0.0,0.0,1.3919,1.3892,1.3534,0.0,0.0,0.0,0.0,0.0,0.0,0.0,0.0,0.0,1.5146,1.5785,1.7408,1.8646,1.979,2.1338,2.3568,2.5805,2.6801,2.821,2.9605,3.0663,3.1356,3.1476,3.047,2.8234,2.5865,2.4429,2.2146,2.021,1.9727,1.9734,1.9987,2.0641,2.0817,2.1571,2.3728,2.4657,2.6264,2.9478,3.1888,3.4123,3.6307,3.7965,3.9145,3.9647,3.9697,3.9697,3.9697,3.9697,3.9697,3.9697,3.9697,3.9697,3.9697,3.9697,3.9697,3.9697,3.9697,3.9421,3.8919,3.932,3.8718,3.7186,3.7638,3.7312,3.6405,3.6405,3.6405,3.6405,3.6405,3.6707,3.7061,3.6606,3.6707,3.7036,3.6581,3.6405,3.6405,0.0,0.0,0.0,0.0,0.0,0.0,1.2244,1.2073,1.287,1.6313,1.6358,1.5871,1.5323,1.4895,1.3554,1.0735,0.0,0.0,0.0,0.0,0.0,0.0,0.0,0.0,0.0,0.0,1.2973,1.3185,1.3468,0.0,0.0,0.0,0.0,0.0,0.0,1.3635,1.3176,1.3286,0.0,0.0,0.0,0.0,0.0,0.0,0.0,0.0,0.0,0.0,1.5404,1.6355,1.7138,1.786,1.8706,2.0153,2.2149,2.5468,2.7344,2.8787,3.085,3.1308,3.1043,3.0278,2.7609,2.4853,2.3765,2.1536,1.9693,1.9628,1.9708,1.9987,2.0591,2.0968,2.1597,2.2774,2.3728,2.5259,2.7896,2.9603,3.1913,3.5433,3.6759,3.8014,3.9546,3.9697,3.9546,3.922,3.9195,3.9044,3.8693,3.932,3.9697,3.9697,3.9371,3.9195,3.9195,3.8843,3.8391,3.7864,3.8417,3.799,3.6757,3.7262,3.7086,3.6405,3.6405,3.6405,3.643,3.6782,3.6985,3.7161,3.6935,3.7186,3.7563,3.6732,3.6631,3.6908,0.0,0.0,0.0,0.0,0.0,1.0233,1.2795,1.2583,1.3323,1.6629,1.6961,1.6748,1.6326,1.5389,1.3841,1.1483,1.0799,0.0,0.0,0.0,0.0,0.0,0.0,0.0,0.0,0.0,1.291,1.3009,1.3667,1.404,0.0,0.0,1.4139,1.3539,0.0,0.0,0.0,0.0,0.0,0.0,0.0,0.0,0.0,0.0,0.0,0.0,0.0,0.0,0.0,0.0,0.0,1.6427,1.6811,1.7531,1.9071,2.3063,2.5444,2.7248,2.9436,3.0206,3.0254,2.9556,2.6935,2.4194,2.3143,2.1063,1.9368,1.9525,1.9656,1.9885,2.0365,2.1018,2.1619,2.1995,2.315,2.4657,2.6515,2.7871,3.0041,3.3828,3.4951,3.638,3.8718,3.9396,3.9471,3.8969,3.8919,3.8617,3.804,3.8768,3.9195,3.9195,3.8818,3.8617,3.8617,3.8216,3.7739,3.7186,3.7739,3.7437,3.643,3.6983,3.6933,3.6405,3.6405,3.6405,3.643,3.6832,3.7136,3.7412,3.7236,3.7638,3.814,3.7186,3.7086,3.7437,0.0,0.0,0.0,0.0,0.0,0.0,1.2129,1.3346,1.4708,1.6483,1.6404,1.6309,1.6657,1.4268,1.2758,1.3044,1.1499,0.0,0.0,0.0,0.0,0.0,0.0,0.0,0.0,0.0,1.2672,1.3009,1.3667,1.416,1.4476,1.4506,1.4286,1.3892,0.0,0.0,0.0,0.0,0.0,0.0,0.0,0.0,0.0,0.0,0.0,0.0,0.0,0.0,0.0,0.0,0.0,0.0,0.0,1.6211,1.7051,1.9215,2.2077,2.476,2.5853,2.7705,2.9051,2.8017,2.6081,2.4121,2.2558,2.0653,1.9261,1.9368,1.9525,1.963,1.9785,2.074,2.1493,2.1493,2.2899,2.4381,2.546,2.7067,2.895,3.116,3.2416,3.4198,3.6935,3.8718,3.9471,3.8969,3.8919,3.8617,3.804,3.8015,3.8015,3.8015,3.8015,3.8015,3.8015,3.8015,3.7739,3.7186,3.7739,3.7437,3.643,3.6983,3.6933,3.6405,3.6405,3.6405,3.6405,3.6405,3.701,3.7939,3.7387,3.7864,3.8844,3.8216,3.799,3.799,0.0,0.0,0.0,0.0,0.0,0.0,0.0,1.1892,1.2615,1.4347,1.449,1.4728,1.5586,1.4029,1.2965,1.3076,1.1515,0.0,0.0,0.0,0.0,0.0,0.0,0.0,0.0,0.0,1.3009,1.3338,1.4309,1.4818,1.4909,1.4909,1.4396,1.3479,1.3351,1.291,0.0,0.0,0.0,0.0,0.0,0.0,1.2554,0.0,0.0,0.0,0.0,0.0,0.0,0.0,0.0,0.0,0.0,0.0,0.0,1.6859,1.9333,2.2173,2.3592,2.4458,2.4891,2.4554,2.3159,2.1686,2.1235,2.0117,1.9261,1.9368,1.9525,1.963,1.9785,2.074,2.1619,2.1995,2.315,2.4381,2.5435,2.6716,2.8649,3.1612,3.4951,3.7436,3.8266,3.8818,3.8743,3.7789,3.7713,3.7462,3.6958,3.6933,3.7236,3.799,3.7638,3.7437,3.7437,3.7061,3.6832,3.6681,3.7186,3.7061,3.643,3.6983,3.6933,3.6405,3.6405,3.6405,3.6455,3.7186,3.7688,3.8015,3.8241,3.8793,3.932,3.8366,3.8266,3.8592,0.0,0.0,0.0,0.0,0.0,0.0,0.0,1.1233,1.1614,1.2838,1.2885,1.3298,1.4633,1.3171,1.2361,1.3028,1.1515,0.0,0.0,0.0,0.0,0.0,0.0,0.0,1.0905,1.2244,1.3211,1.3743,1.4969,1.5551,1.557,1.5716,1.5056,1.3754,1.3589,1.3084,0.0,0.0,0.0,0.0,0.0,0.0,1.2924,0.0,0.0,0.0,0.0,0.0,0.0,0.0,0.0,0.0,0.0,0.0,0.0,0.0,1.7219,1.9164,2.0995,2.1909,2.2342,2.2156,2.1187,2.0201,1.9793,1.9245,1.8867,1.9074,1.9325,1.9578,1.9785,2.074,2.1594,2.1945,2.2949,2.4054,2.5159,2.6264,2.8234,3.1512,3.5278,3.7613,3.7613,3.8191,3.8165,3.7262,3.7186,3.6983,3.643,3.6405,3.6732,3.7362,3.7061,3.6933,3.6933,3.6581,3.6405,3.6405,3.6757,3.6732,3.6405,3.6757,3.6732,3.6405,3.6405,3.6405,0.0,3.7337,3.7814,3.8065,3.8642,3.922,3.9597,3.8894,3.8868,3.917,0.0,0.0,0.0,0.0,0.0,0.0,0.0,1.1217,1.1535,1.1868,1.1614,1.2043,1.368,1.1821,1.1149,1.2758,0.0,0.0,0.0,0.0,0.0,0.0,0.0,0.0,1.1014,1.2253,1.3304,1.4153,1.5605,1.6306,1.6358,1.6762,1.6083,1.4458,1.4102,1.347,1.2625,1.2257,1.2332,1.27,1.2725,1.2949,0.0,0.0,0.0,0.0,0.0,0.0,0.0,0.0,0.0,0.0,0.0,0.0,0.0,0.0,0.0,0.0,0.0,1.9865,2.0899,2.0446,1.9941,1.9338,1.835,1.8181,0.0,1.8534,1.9026,1.9499,1.9809,2.0765,2.1518,2.1594,2.2573,2.3672,2.4782,2.6063,2.8083,3.126,3.3978,3.5608,3.5558,3.7036,3.7713,3.7161,3.7136,3.6885,3.638,3.6355,3.6355,3.6355,3.6355,3.6355,3.6355,3.6355,3.6355,3.6355,3.6355,3.638,3.6405,3.638,3.638,3.6405,3.6405,3.6405,3.6455,3.6985,3.7538,3.8065,3.8693,3.9245,3.9697,3.9697,3.9697,3.9697,0.0,0.0,0.0,0.0,0.0,0.0,0.0,0.0,0.0,0.0,1.0783,1.0894,1.1308,1.083,1.0655,0.0,0.0,0.0,0.0,0.0,0.0,0.0,0.0,0.0,1.1956,1.2564,1.3561,1.4872,1.5849,1.6468,1.678,1.7165,1.634,1.4506,1.4414,1.3571,1.2239,1.2147,1.2332,1.2725,1.2973,1.3314,0.0,0.0,0.0,0.0,1.4022,1.4443,0.0,0.0,0.0,0.0,0.0,0.0,0.0,0.0,1.5804,1.59,1.6427,0.0,1.7195,1.7459,1.746,1.7387,0.0,1.7917,1.8281,1.8534,1.9026,1.9622,2.0362,2.1043,2.1769,2.2569,2.4029,2.5259,2.6021,2.885,3.1612,3.3696,3.5629,3.6634,3.6207,3.691,3.7161,3.6656,3.6606,3.6307,3.5755,3.5683,3.5683,3.5683,3.5683,3.5683,3.5683,3.5683,3.5683,3.5683,3.5683,3.5956,3.638,3.5931,3.5956,3.6405,3.6405,3.6405,3.648,3.7412,3.7889,3.8115,3.912,3.9572,3.9697,3.9697,3.9697,3.9697,0.0,0.0,0.0,0.0,0.0,0.0,0.0,0.0,0.0,0.0,0.0,0.0,0.0,0.0,0.0,0.0,0.0,0.0,0.0,0.0,0.0,0.0,0.0,1.1592,1.2289,1.2806,1.3921,1.5661,1.6285,1.6982,1.7734,1.777,1.6908,1.5294,1.4378,1.3259,1.211,1.211,1.2412,1.2949,1.3122,0.0,0.0,0.0,0.0,0.0,1.428,1.4674,0.0,1.5289,1.5513,1.5804,0.0,0.0,0.0,0.0,1.5804,1.5804,1.5804,1.5994,1.6259,1.6523,1.6595,1.6762,1.7364,1.7677,1.8017,1.8585,1.9077,1.9672,2.0537,2.0943,2.1543,2.2895,2.4104,2.5511,2.7344,2.9829,3.219,3.4123,3.5353,3.6031,3.5981,3.6483,3.6531,3.568,3.6128,3.6006,3.5157,3.5357,3.5382,3.5132,3.4881,3.4981,3.5483,3.578,3.5655,3.5132,3.5382,3.5533,3.5604,3.5533,3.5658,3.6006,3.6304,3.6405,3.648,3.7563,3.8015,3.8115,3.9245,3.9697,3.9697,3.9697,3.9697,3.9697,0.0,0.0,0.0,0.0,0.0,0.0,0.0,0.0,0.0,0.0,0.0,0.0,0.0,0.0,0.0,0.0,0.0,0.0,0.0,0.0,0.0,0.0,1.1556,1.2057,1.2609,1.3132,1.4323,1.623,1.6743,1.755,1.8576,1.8429,1.7587,1.6138,1.4231,1.2892,1.211,1.2184,1.2584,1.3218,1.3266,0.0,0.0,0.0,0.0,0.0,0.0,0.0,0.0,1.5491,1.5625,1.5804,1.5804,0.0,0.0,0.0,0.0,0.0,1.5804,1.6259,1.6691,1.6523,1.6595,1.6858,1.7363,1.7533,1.78,1.8635,1.9204,1.9821,2.0663,2.1018,2.1697,2.312,2.4155,2.5887,2.9063,3.0457,3.1813,3.3671,3.4525,3.5052,3.5232,3.5855,3.5805,3.4801,3.5579,3.5655,3.465,3.5006,3.5031,3.458,3.4148,3.4349,3.5232,3.5755,3.5529,3.46,3.5031,3.5056,3.468,3.5082,3.5332,3.5533,3.6031,3.6329,3.648,3.7462,3.7939,3.8115,3.9145,3.9622,3.9697,3.9697,3.9697,3.9697,0.0,0.0,0.0,0.0,0.0,0.0,0.0,0.0,0.0,0.0,0.0,0.0,0.0,0.0,0.0,0.0,0.0,0.0,0.0,0.0,0.0,1.207,1.2148,1.2824,1.4136,1.3937,1.4451,1.579,1.6872,1.7678,1.8191,1.9161,1.8228,1.5716,1.4378,1.3176,1.2135,1.2455,1.2827,1.3242,1.3573,0.0,0.0,0.0,0.0,0.0,0.0,0.0,0.0,1.5491,1.5625,1.5804,1.5804,0.0,0.0,0.0,0.0,0.0,1.5804,1.6523,1.7051,1.6163,1.6619,1.7219,1.6974,1.7605,1.8361,1.8734,1.9629,2.0553,2.1267,2.2523,2.3728,2.4424,2.6556,2.9176,3.2039,3.2993,3.352,3.3847,3.5203,3.5579,3.4274,3.5031,3.5357,3.4731,3.4876,3.47,3.4048,3.4098,3.4123,3.4022,3.3947,3.3972,3.4148,3.4248,3.4198,3.4022,3.4123,3.4349,3.47,3.4324,3.463,3.5508,3.5583,3.5931,3.6455,3.7036,3.7588,3.8065,3.8743,3.927,3.9697,3.9697,3.9697,3.9697,0.0,0.0,0.0,0.0,0.0,0.0,0.0,0.0,0.0,0.0,0.0,0.0,0.0,0.0,0.0,0.0,0.0,0.0,0.0,0.0,1.2234,1.344,1.3277,1.3677,1.4799,1.4854,1.5661,1.733,1.788,1.8595,1.9402,1.8871,1.7547,1.5639,1.443,1.3434,1.273,1.29,1.319,1.3549,0.0,0.0,0.0,0.0,0.0,0.0,0.0,0.0,0.0,0.0,1.5714,1.5804,1.5804,0.0,0.0,0.0,0.0,0.0,1.5804,1.6379,1.6859,1.6446,1.7098,1.7894,1.8166,1.8532,1.9024,1.9707,2.043,2.1154,2.1816,2.2799,2.4205,2.6264,2.8386,3.0382,3.1938,3.2641,3.3093,3.342,3.4399,3.4726,3.3972,3.4625,3.4751,3.3897,3.4374,3.4349,3.3495,3.3746,3.3771,3.347,3.3445,3.3445,3.3445,3.3445,3.3445,3.3445,3.3746,3.3872,3.3847,3.3872,3.4173,3.47,3.5232,3.5633,3.5981,3.6835,3.7513,3.8065,3.8642,3.922,3.9697,3.9697,3.9697,3.9697,0.0,0.0,0.0,0.0,0.0,0.0,0.0,0.0,0.0,0.0,0.0,0.0,0.0,0.0,0.0,0.0,0.0,0.0,0.0,0.0,1.2634,1.4128,1.4194,1.4689,1.579,1.5918,1.6872,1.8705,1.8907,1.9552,2.0694,1.8823,1.7267,1.5999,1.4848,1.3906,1.3218,1.3362,1.36,1.3905,0.0,0.0,0.0,0.0,0.0,0.0,0.0,0.0,0.0,0.0,0.0,0.0,0.0,0.0,0.0,1.5804,1.5804,1.5804,1.5804,1.6211,1.6642,1.6926,1.7605,1.845,1.9443,1.9638,1.9959,2.1037,2.1509,2.1902,2.2569,2.3547,2.5227,2.8222,2.998,3.121,3.1888,3.234,3.2767,3.3219,3.3746,3.3997,3.3746,3.4198,3.4123,3.3144,3.3847,3.3972,3.3162,3.347,3.352,3.3093,3.3111,3.3111,3.3111,3.3111,3.3111,3.3093,3.3495,3.3495,3.3093,3.352,3.3847,3.4148,3.4931,3.5458,3.5759,3.6634,3.7387,3.804,3.8492,3.9094,3.9697,3.9697,3.9697,3.9697,0.0,0.0,0.0,0.0,0.0,0.0,0.0,0.0,0.0,0.0,0.0,0.0,0.0,0.0,0.0,0.0,0.0,0.0,0.0,0.0,1.2855,1.3351,1.4433,1.5918,1.7825,1.7183,1.744,1.8705,1.9436,2.0369,2.1381,1.9925,1.8479,1.7039,1.6078,1.4747,1.3242,1.386,1.4142,1.4233,1.4789,0.0,0.0,0.0,0.0,0.0,0.0,0.0,0.0,0.0,0.0,0.0,0.0,0.0,1.5804,1.5804,1.5804,1.5804,1.5804,1.6211,1.6738,1.7387,1.7871,1.8598,2.0071,2.0686,2.1325,2.266,2.297,2.317,2.3778,2.5988,2.8348,3.0131,3.1361,3.2466,3.3571,3.3746,3.3796,3.3847,3.4324,3.4248,3.3244,3.3646,3.3721,3.3162,3.3144,3.3169,3.3093,3.3162,3.3162,3.3111,3.3111,3.3111,3.3111,3.3111,3.3111,3.3111,3.3162,3.3162,3.3111,3.3162,3.3696,3.4675,3.4705,3.5353,3.6355,3.643,3.7036,3.8015,3.804,3.8743,3.9697,3.9697,3.9697,3.9697,0.0,0.0,0.0,0.0,0.0,0.0,0.0,0.0,0.0,0.0,0.0,0.0,0.0,0.0,0.0,0.0,0.0,0.0,0.0,1.2478,1.3102,1.4011,1.4726,1.5918,1.7697,1.8174,1.9214,2.0869,2.1546,2.1816,2.1668,2.0013,1.8468,1.7079,1.5891,1.5111,1.4679,1.4542,1.4805,1.5263,1.5131,1.5198,0.0,0.0,0.0,0.0,0.0,0.0,0.0,0.0,1.5804,1.5804,1.5804,1.5804,1.5804,1.5804,1.5804,1.5804,1.5804,1.6211,1.6786,1.7531,1.7945,1.8695,2.0566,2.1555,2.2367,2.3441,2.4481,2.5385,2.5937,2.7168,2.8649,3.0331,3.1512,3.2491,3.3269,3.3696,3.3771,3.342,3.3872,3.3922,3.3144,3.3269,3.3294,3.3136,3.3111,3.3111,3.3111,3.3111,3.3111,3.3111,3.3111,3.3111,3.3111,3.3111,3.3111,3.3111,3.3111,3.3111,3.3111,3.3111,3.3294,3.3746,3.4424,3.4951,3.5403,3.6128,3.701,3.8065,3.8793,3.932,3.9697,3.9697,3.9697,3.9697,0.0,0.0,0.0,0.0,0.0,0.0,0.0,0.0,0.0,0.0,0.0,0.0,0.0,0.0,0.0,0.0,0.0,0.0,1.211,1.2478,1.3139,1.4084,1.4895,1.596,1.7318,1.8826,2.0362,2.1839,2.2542,2.2473,2.16,1.9897,1.865,1.775,1.6223,1.5823,1.6208,1.5387,1.5427,1.5985,1.5521,1.5424,0.0,0.0,0.0,0.0,0.0,0.0,0.0,0.0,1.5804,1.5804,1.5804,1.5804,1.5804,1.5804,1.5804,1.5804,1.5804,1.6211,1.6809,1.7603,1.8165,1.9162,2.1592,2.2605,2.3393,2.4743,2.5971,2.6876,2.7218,2.7871,2.885,3.0382,3.1512,3.2416,3.2993,3.3395,3.3495,3.3162,3.3395,3.3495,3.3162,3.3111,3.3111,3.3111,3.3111,3.3111,3.3111,3.3111,3.3111,3.3111,3.3111,3.2993,3.2817,3.2792,3.2792,3.2792,3.2792,3.2893,3.3111,3.3111,3.3169,3.3395,3.4324,3.4781,3.5006,3.5981,3.691,3.7864,3.8994,3.9421,3.9446,3.9622,3.9697,3.9697,0.0,0.0,0.0,0.0,0.0,0.0,0.0,0.0,0.0,0.0,0.0,0.0,0.0,0.0,0.0,0.0,0.0,0.0,1.211,1.2478,1.2882,1.3277,1.4904,1.6184,1.6958,1.9163,2.0542,2.103,2.2028,2.2065,2.1277,1.9773,1.9217,1.9322,1.7387,1.6948,1.7611,1.6334,1.5984,1.6268,1.5929,1.5804,1.5804,0.0,0.0,0.0,0.0,0.0,0.0,0.0,1.5804,1.5804,1.5804,1.5804,1.5804,1.5804,1.5804,1.5804,1.5804,1.6211,1.6809,1.7603,1.8509,2.0079,2.3285,2.3816,2.4285,2.6806,2.7329,2.7329,2.7293,2.8197,2.9264,3.0432,3.1512,3.2416,3.2993,3.3111,3.3111,3.3068,3.3068,3.3068,3.3068,3.3068,3.3068,3.3068,3.3068,3.3068,3.3068,3.3068,3.3068,3.3068,3.3068,3.2792,3.2215,3.2215,3.2215,3.2215,3.2215,3.2516,3.3111,3.3111,3.337,3.3922,3.4474,3.4981,3.5533,3.6132,3.6732,3.7287,3.8417,3.8919,3.8944,3.9496,3.9697,3.9697,0.0,0.0,0.0,0.0,0.0,0.0,0.0,0.0,0.0,0.0,0.0,0.0,0.0,0.0,0.0,0.0,0.0,0.0,1.211,1.2478,1.2883,1.3275,1.4639,1.5497,1.5723,1.7981,1.9994,2.1714,2.2454,2.2023,2.0436,2.0023,1.9147,1.7944,1.7846,1.7704,1.7451,1.6533,1.6503,1.7003,1.6141,1.5804,1.5804,0.0,0.0,0.0,0.0,0.0,0.0,0.0,0.0,0.0,1.5804,1.5804,1.5804,1.5804,1.5804,1.5804,1.5804,1.6544,1.7484,1.8216,1.947,2.1247,2.3935,2.4129,2.4514,2.7283,2.7871,2.7971,2.8373,2.9051,2.9779,3.0507,3.1512,3.2265,3.2441,3.2466,3.2315,3.1938,3.1888,3.1888,3.1888,3.1888,3.1888,3.1888,3.1888,3.1888,3.1888,3.1888,3.1888,3.1888,3.1888,3.1813,3.1637,3.1637,3.1637,3.1637,3.2014,3.2516,3.3111,3.3111,3.3212,3.3345,3.3897,3.4449,3.5031,3.6383,3.7036,3.7287,3.8417,3.8919,3.8944,3.9496,3.9697,3.9697,0.0,0.0,0.0,0.0,0.0,0.0,0.0,0.0,0.0,0.0,1.211,1.211,0.0,0.0,0.0,0.0,0.0,0.0,0.0,1.233,1.2709,1.328,1.4382,1.5515,1.6563,1.8171,1.9521,2.0687,2.1688,2.1254,1.954,2.0042,1.9705,1.8676,1.9028,1.9141,1.8993,1.7499,1.7216,1.7628,1.6331,1.5924,1.6092,0.0,0.0,0.0,0.0,0.0,0.0,0.0,0.0,0.0,1.5804,1.5804,1.5802,1.5846,1.5869,1.5891,1.5959,1.6779,1.7897,1.8858,2.0467,2.2452,2.4893,2.5645,2.6386,2.8373,2.8599,2.8599,2.9176,2.9377,2.9704,3.0482,3.116,3.1662,3.1863,3.1888,3.1763,3.1436,3.1386,3.1386,3.1386,3.1386,3.1386,3.1386,3.1386,3.1386,3.1386,3.1386,3.1386,3.1386,3.1386,3.1286,3.1085,3.1085,3.1085,3.1085,3.1411,3.1989,3.2742,3.2968,3.3111,3.3162,3.3897,3.465,3.5479,3.6684,3.7186,3.7287,3.8165,3.8391,3.8291,3.9069,3.9371,3.9396,0.0,0.0,1.1794,1.2042,0.0,0.0,0.0,0.0,0.0,0.0,1.211,1.211,0.0,0.0,0.0,0.0,0.0,0.0,0.0,0.0,1.2441,1.3203,1.4208,1.5953,1.8523,1.9004,1.9004,1.8567,2.0041,2.0019,1.8589,1.9955,2.0578,2.0497,2.0491,2.0819,2.1167,1.8787,1.7881,1.7917,1.6403,1.6092,1.6475,1.5994,0.0,0.0,0.0,0.0,0.0,0.0,0.0,0.0,1.5804,1.5804,1.5802,1.5957,1.6001,1.6022,1.6205,1.706,1.8216,1.9505,2.1596,2.3891,2.6138,2.7846,2.9126,2.9553,2.9302,2.9139,2.9704,2.9402,2.9389,3.0457,3.0658,3.0834,3.126,3.1311,3.1311,3.126,3.121,3.116,3.116,3.116,3.1135,3.1085,3.1135,3.116,3.116,3.116,3.1185,3.1235,3.1235,3.1009,3.0532,3.0532,3.0532,3.0532,3.0583,3.116,3.2164,3.2742,3.3061,3.3187,3.4198,3.5253,3.6304,3.686,3.7136,3.7236,3.7789,3.7688,3.7387,3.8517,3.8919,3.8994,0.0,0.0,1.2017,1.2085,0.0,0.0,0.0,0.0,0.0,0.0,0.0,0.0,0.0,0.0,0.0,0.0,0.0,0.0,0.0,0.0,1.2308,1.282,1.4286,1.5881,1.7562,1.7722,1.7722,1.7612,1.9026,1.8982,1.7656,1.9701,2.0089,1.9043,2.0649,2.0554,1.9163,1.8003,1.7267,1.6883,1.6092,1.5852,1.5948,1.5828,1.5804,0.0,0.0,0.0,0.0,0.0,0.0,0.0,1.5804,1.5804,1.5802,1.5824,1.5913,1.6096,1.6556,1.7601,1.8983,2.0575,2.3679,2.6606,2.7544,2.8725,2.9402,2.8624,2.9076,2.9654,2.9779,3.0055,3.0331,3.0583,3.0959,3.111,3.0834,3.0783,3.0633,3.0181,2.9729,2.9453,2.9453,2.9453,2.9239,2.885,2.9227,2.9453,2.9453,2.9453,2.9654,3.0131,3.0131,3.008,2.998,2.998,2.998,2.998,3.0407,3.0959,3.1587,3.2139,3.2641,3.3162,3.3796,3.4449,3.5152,3.6179,3.6832,3.7236,3.7789,3.7939,3.7914,3.8617,3.8919,3.8994,0.0,0.0,0.0,0.0,0.0,0.0,0.0,0.0,0.0,0.0,0.0,0.0,0.0,0.0,0.0,0.0,0.0,0.0,0.0,0.0,1.2457,1.3244,1.4332,1.5432,1.6552,1.6798,1.6907,1.6907,1.7912,1.8021,1.7328,1.9284,1.9818,1.9164,2.0768,2.0635,1.9098,1.8178,1.7459,1.6907,1.6139,1.5948,1.6163,1.59,1.5804,1.5804,1.5804,0.0,0.0,0.0,0.0,0.0,0.0,0.0,1.5802,1.5869,1.5957,1.6093,1.6497,1.7497,1.9083,2.1906,2.4775,2.7128,2.7921,2.8574,2.8825,2.8222,2.9001,2.9704,2.9428,2.9628,2.969,2.9453,2.9654,2.9829,2.9804,2.9804,2.9704,2.9402,2.9063,2.8787,2.8549,2.8524,2.8423,2.8122,2.8373,2.8524,2.8524,2.8524,2.8674,2.8976,2.8976,2.8976,2.8976,2.9252,2.9377,2.9377,2.9955,3.0633,3.1411,3.224,3.2792,3.3119,3.3671,3.4198,3.4801,3.5952,3.6581,3.6883,3.7387,3.7462,3.7287,3.7864,3.8241,3.8542,0.0,0.0,0.0,0.0,0.0,0.0,0.0,0.0,0.0,0.0,0.0,0.0,0.0,0.0,0.0,0.0,0.0,0.0,0.0,0.0,0.0,1.3937,1.4373,1.4956,1.5785,1.6182,1.64,1.6487,1.6929,1.7219,1.7412,1.897,1.9696,1.9686,2.0783,2.061,1.9459,1.847,1.77,1.7051,1.6163,1.6066,1.6427,1.5948,1.5804,1.5804,1.5804,1.5804,1.5804,1.5804,0.0,0.0,0.0,0.0,1.5802,1.5935,1.6001,1.6113,1.6386,1.7442,1.9307,2.2945,2.5084,2.66,2.7595,2.7971,2.8097,2.8097,2.885,2.9352,2.8838,2.8737,2.8612,2.8172,2.8097,2.8273,2.8687,2.8737,2.8737,2.8737,2.8662,2.8473,2.7996,2.7971,2.7921,2.7821,2.7921,2.7971,2.7971,2.7971,2.7996,2.8097,2.8097,2.8097,2.8097,2.8612,2.8888,2.8888,2.9628,3.0457,3.1436,3.2466,3.2993,3.3093,3.3571,3.4073,3.4675,3.5755,3.6329,3.6455,3.696,3.6958,3.6606,3.701,3.7462,3.7965,0.0,0.0,0.0,0.0,0.0,0.0,0.0,0.0,0.0,0.0,1.211,1.211,0.0,0.0,0.0,0.0,0.0,0.0,0.0,0.0,0.0,1.4387,1.4495,1.4927,1.5763,1.5876,1.6094,1.6487,1.6552,1.695,1.7667,1.9057,1.9599,1.946,2.0347,1.9865,1.8374,1.7748,1.6931,1.5996,1.5852,1.5828,1.59,1.5828,1.5804,1.5804,1.5804,1.5804,1.5804,1.5804,1.5804,0.0,0.0,0.0,1.5804,1.5802,1.6003,1.6254,1.6628,1.8413,2.0652,2.2714,2.4481,2.5887,2.6575,2.7419,2.8097,2.8097,2.8222,2.8298,2.8222,2.8222,2.8197,2.8122,2.8097,2.8122,2.8197,2.8222,2.8222,2.8222,2.7795,2.7469,2.7394,2.7394,2.7228,2.6751,2.7118,2.7394,2.7394,2.7394,2.762,2.8097,2.8097,2.8097,2.8097,2.8612,2.8888,2.8913,2.9966,3.0809,3.1411,3.2039,3.2591,3.3111,3.3187,3.3495,3.4098,3.5157,3.5931,3.6455,3.696,3.7136,3.7086,3.7161,3.7236,3.7437,0.0,0.0,0.0,0.0,0.0,0.0,0.0,0.0,0.0,0.0,0.0,1.211,0.0,0.0,0.0,0.0,0.0,0.0,0.0,0.0,0.0,1.408,1.4104,1.4403,1.4982,1.5266,1.5636,1.6116,1.6563,1.7154,1.7943,1.8737,1.9053,1.8952,1.949,1.9143,1.8157,1.7628,1.6955,1.6235,1.59,1.5804,1.5804,1.5804,1.5804,1.5804,1.5804,1.5804,1.5804,1.5804,1.5804,1.5804,1.5804,0.0,0.0,0.0,1.5935,1.6232,1.6862,1.8313,2.0009,2.1418,2.3,2.4381,2.4958,2.546,2.5963,2.6565,2.5963,2.5753,2.7369,2.7645,2.7544,2.7243,2.7193,2.7329,2.7595,2.7645,2.7645,2.7645,2.7203,2.6851,2.6851,2.6575,2.6399,2.6474,2.6725,2.6851,2.6851,2.6851,2.6977,2.7203,2.7193,2.7344,2.7645,2.8197,2.8775,2.9428,2.9905,3.0583,3.1411,3.1637,3.224,3.3111,3.3111,3.3219,3.3495,3.4299,3.4776,3.5077,3.5931,3.6257,3.6307,3.6609,3.691,3.7262,0.0,0.0,0.0,0.0,0.0,0.0,0.0,0.0,0.0,0.0,0.0,0.0,0.0,0.0,0.0,0.0,0.0,0.0,0.0,0.0,0.0,0.0,0.0,1.4093,1.4396,1.4744,1.5159,1.5615,1.6432,1.7213,1.7928,1.8394,1.8652,1.8732,1.8919,1.8686,1.8157,1.7628,1.7075,1.6547,1.6018,1.5804,1.5804,1.5804,1.5804,1.5804,1.5804,1.5804,1.5804,1.5804,1.5804,1.5804,1.5804,1.5804,0.0,0.0,0.0,1.6257,1.7194,1.8084,1.9058,2.039,2.1594,2.2669,2.3401,2.3678,2.4054,2.5008,2.4205,2.3948,2.6063,2.6339,2.6239,2.6273,2.6172,2.6323,2.7002,2.7102,2.7102,2.7102,2.6625,2.6323,2.6474,2.5971,2.5837,2.6449,2.6499,2.6499,2.6499,2.6499,2.6499,2.6499,2.6499,2.67,2.7102,2.777,2.8674,2.9804,2.9804,3.0357,3.1386,3.1386,3.2014,3.3111,3.3111,3.3111,3.3144,3.3822,3.4098,3.4223,3.5328,3.5784,3.5959,3.6257,3.6757,3.7186,0.0,0.0,0.0,0.0,0.0,0.0,0.0,0.0,0.0,0.0,0.0,0.0,1.211,1.2431,1.2676,1.2676,0.0,0.0,0.0,0.0,0.0,0.0,0.0,0.0,1.4396,1.4418,1.4681,1.5137,1.5945,1.6718,1.7453,1.823,1.8759,1.8999,1.8999,1.8686,1.8157,1.7628,1.7075,1.6547,1.6018,1.5804,1.5804,1.5804,1.5804,1.5804,1.5804,1.5804,1.5804,1.5804,1.5804,1.5804,1.5804,1.5804,1.5802,0.0,0.0,0.0,1.7783,1.8084,1.8484,2.0263,2.0767,2.1094,2.2146,2.2769,2.3321,2.3954,2.4004,2.4004,2.413,2.3697,2.3822,2.5385,2.5234,2.5285,2.6399,2.6524,2.6524,2.6524,2.6021,2.5862,2.6449,2.5971,2.5837,2.6449,2.6499,2.6499,2.6499,2.6499,2.6499,2.6499,2.6499,2.6499,2.6524,2.757,2.8674,2.9804,2.9804,3.0357,3.1386,3.1386,3.2014,3.3111,3.3111,3.3111,3.3169,3.4248,3.4675,3.4776,3.5881,3.6681,3.7036,3.6581,3.6757,3.7186,0.0,0.0,0.0,0.0,0.0,0.0,0.0,0.0,0.0,0.0,0.0,0.0,0.0,1.3567,1.3855,1.3481,1.3976,0.0,0.0,0.0,0.0,0.0,0.0,0.0,0.0,1.4396,1.4708,1.5361,1.5832,1.6604,1.7667,1.814,1.8584,1.8999,1.8999,1.8879,1.8686,1.8157,1.7796,1.7579,1.7027,1.6835,1.6787,1.6451,1.6523,1.6787,1.6451,1.6547,1.6763,1.6427,1.6547,1.6715,1.6018,1.6087,1.6416,1.6296,1.6284,1.6449,1.6979,1.7378,1.7856,1.8857,1.961,2.0213,2.0614,2.1142,2.1719,2.2272,2.2124,2.2196,2.3221,2.3246,2.3296,2.3898,2.418,2.4431,2.4865,2.5184,2.541,2.541,2.5234,2.531,2.5862,2.5711,2.5837,2.6449,2.6499,2.6499,2.6499,2.6499,2.6499,2.6499,2.6499,2.6826,2.7519,2.8273,2.9026,2.9804,2.9804,3.0357,3.1386,3.1386,3.2014,3.3111,3.3111,3.3111,3.3187,3.3897,3.4198,3.4299,3.5403,3.5956,3.6157,3.6307,3.6531,3.6707,0.0,0.0,0.0,0.0,0.0,1.216,1.2283,1.2308,1.2395,1.2675,0.0,0.0,0.0,0.0,1.4689,1.4759,1.502,1.5425,1.5981,1.5593,0.0,0.0,0.0,0.0,0.0,1.4708,1.5004,1.5506,1.6049,1.6757,1.7563,1.8006,1.8494,1.8999,1.8999,1.8903,1.871,1.835,1.8109,1.7917,1.7531,1.7387,1.7363,1.7195,1.7243,1.7388,1.7195,1.7243,1.7364,1.6979,1.7099,1.7267,1.64,1.639,1.6643,1.6449,1.6414,1.6532,1.6951,1.7225,1.7624,1.8505,1.9007,1.9359,1.971,2.0087,2.0566,2.1119,2.0943,2.1094,2.2347,2.2422,2.2548,2.3271,2.3577,2.3828,2.423,2.4582,2.48,2.48,2.48,2.5001,2.5536,2.5586,2.5837,2.6449,2.6499,2.6499,2.6499,2.6499,2.6499,2.6499,2.6675,2.7203,2.8097,2.8612,2.9189,2.9804,2.998,3.0532,3.1411,3.1587,3.219,3.3111,3.3111,3.3111,3.3187,3.3872,3.4173,3.4299,3.5378,3.5931,3.6107,3.6307,3.6531,3.6656,0.0,1.211,1.211,1.211,1.211,1.2252,1.2646,1.2715,1.2998,1.3811,0.0,0.0,0.0,0.0,0.0,1.6412,1.6509,1.6509,1.6509,1.6073,0.0,0.0,0.0,0.0,1.5116,1.5408,1.5529,1.5553,1.659,1.7116,1.7165,1.7864,1.8494,1.8999,1.8999,1.8686,1.8205,1.8229,1.7917,1.746,1.746,1.746,1.7483,1.8013,1.7893,1.7507,1.8013,1.7893,1.7435,1.7411,1.7411,1.7388,1.6998,1.6643,1.6417,1.6442,1.6507,1.6776,0.0,0.0,0.0,1.9384,1.8982,1.8505,1.9535,1.9786,1.9962,2.0541,2.0666,2.0867,2.1395,2.1069,2.1446,2.3602,2.3446,2.3471,2.455,2.4725,2.475,2.475,2.4775,2.4976,2.5536,2.5611,2.5862,2.6449,2.6499,2.6499,2.6499,2.6499,2.6499,2.6499,2.7027,2.7544,2.8097,2.8612,2.9189,2.9804,3.0331,3.0884,3.1436,3.1964,3.2516,3.3093,3.3136,3.3111,3.3169,3.4274,3.468,3.4826,3.5931,3.6732,3.7086,3.6606,3.6757,3.7086,1.211,1.211,1.211,1.211,1.233,1.2584,1.2686,1.2947,1.3348,0.0,0.0,0.0,1.5565,1.586,1.6272,1.7016,1.6732,1.664,1.7038,1.6601,1.6247,1.6116,1.5889,1.5861,1.597,1.6244,1.6466,1.6661,1.6948,1.7356,1.7888,1.8108,1.8494,1.8999,1.8999,1.8686,1.8229,1.8614,1.8686,1.8566,1.8566,1.8566,1.8518,1.8301,1.835,1.8518,1.8301,1.835,1.8494,1.8109,1.8253,1.8496,1.8215,1.7327,0.0,1.7455,1.7428,0.0,1.8003,0.0,0.0,0.0,0.0,0.0,1.9158,1.9509,1.9736,1.9535,2.0138,2.0742,2.0893,2.1119,2.1622,2.2623,2.2619,2.2619,2.2975,2.3321,2.3572,2.3572,2.4299,2.485,2.5034,2.5762,2.6323,2.6474,2.6499,2.6499,2.6499,2.6499,2.6499,2.6499,2.7027,2.7544,2.8097,2.8612,2.9189,2.9804,2.9955,3.0708,3.1964,3.1738,3.2365,3.3646,3.3244,3.3111,3.3169,3.4274,3.468,3.4826,3.5931,3.6505,3.6606,3.6455,3.6505,3.6606,1.211,1.2239,1.2349,1.2349,1.2835,1.3299,1.3463,1.3833,1.4333,0.0,0.0,0.0,1.6462,1.7069,1.7475,1.7584,1.7322,1.7169,1.7306,1.6798,1.6567,1.6722,1.6465,1.6438,1.6743,1.6998,1.7249,1.7398,1.7499,1.7791,1.8205,1.8205,1.8494,1.8999,1.8999,1.8831,1.8542,1.8638,1.8662,1.8686,1.8903,1.8999,1.9001,1.8955,1.9006,1.9078,1.9061,1.9111,1.9109,1.882,1.8797,1.8899,1.8733,1.7965,1.7282,1.798,1.7978,0.0,0.0,0.0,0.0,1.9133,0.0,0.0,1.9284,1.9585,1.971,1.9384,1.9861,2.0415,2.0641,2.0968,2.1421,2.2196,2.2322,2.2322,2.2322,2.2569,2.2769,2.2769,2.3772,2.4525,2.4775,2.5812,2.6499,2.6499,2.6499,2.6499,2.6499,2.6499,2.6499,2.6499,2.7253,2.777,2.8097,2.89,2.9453,2.9804,3.003,3.0859,3.2215,3.2139,3.2742,3.3872,3.3571,3.342,3.3495,3.4349,3.468,3.4826,3.5931,3.6556,3.6732,3.648,3.6556,3.6732,0.0,1.251,1.2794,1.2834,1.3514,1.4204,1.4606,1.4967,1.5537,0.0,1.6297,1.6469,1.737,1.8197,1.8523,1.8108,1.8043,1.7824,1.7415,1.6885,1.6708,1.7024,1.6676,1.676,1.745,1.7737,1.7892,1.7918,1.815,1.8301,1.8301,1.8301,1.8542,1.8999,1.8999,1.8999,1.8951,1.8494,1.8301,1.8326,1.8734,1.8977,1.91,1.9691,1.9621,1.9283,1.988,1.9812,1.9394,1.9394,1.9129,1.8809,1.8859,1.8584,1.8229,1.8355,1.8329,0.0,0.0,0.0,0.0,1.956,1.9434,0.0,1.9685,1.9811,1.9811,1.9811,1.9811,1.9962,2.049,2.0541,2.0867,2.1945,2.2121,2.2196,2.2343,2.2397,2.2372,2.2322,2.3376,2.4255,2.465,2.582,2.6499,2.6499,2.6499,2.6499,2.6499,2.6499,2.6499,2.6499,2.7519,2.8097,2.8097,2.9227,2.9804,2.9804,3.0281,3.116,3.2315,3.2767,3.3345,3.3997,3.3922,3.3897,3.3947,3.45,3.4751,3.4926,3.6003,3.6757,3.7111,3.6606,3.6757,3.7111,1.2514,1.2952,1.3347,1.3617,1.4138,1.4601,1.4934,1.5128,1.5662,1.691,1.7675,1.8208,1.8403,1.8602,1.8654,1.8567,1.8217,1.7955,1.7868,1.7409,1.7153,1.7236,1.7367,1.7589,1.7974,1.8274,1.854,1.8778,1.8804,1.8831,1.8831,1.8831,1.8879,1.8999,1.8999,1.8999,1.8975,1.8879,1.8831,1.8806,1.8494,1.8666,1.9182,1.933,1.9361,1.9393,1.9517,1.9492,1.9394,1.9394,1.9129,1.8884,1.9306,1.8859,1.838,1.9233,1.9183,1.8958,1.951,1.9585,1.9535,1.9761,1.9736,0.0,1.9786,1.9811,1.9811,1.9811,1.9811,1.9836,1.9936,1.9635,1.971,2.0842,2.1018,2.1443,2.2769,2.2945,2.2769,2.2372,2.3703,2.4531,2.418,2.5594,2.6499,2.6499,2.6499,2.6499,2.6499,2.6499,2.6499,2.6499,2.7519,2.8097,2.8097,2.9227,2.9804,2.9804,2.9905,3.0984,3.2893,3.2541,3.3169,3.4525,3.4098,3.3897,3.3947,3.45,3.4931,3.5408,3.6107,3.6757,3.7111,3.6606,3.6757,3.7111,1.2919,1.3346,1.3688,1.3866,0.0,1.5655,1.5814,1.6477,1.7211,1.7851,1.8588,1.9047,1.9047,1.9266,1.9278,1.9069,1.8851,1.8611,1.837,1.8306,1.8207,1.8081,1.839,1.8552,1.8545,1.8732,1.8866,1.8999,1.8999,1.8999,1.8999,1.8999,1.8999,1.8999,1.8999,1.8999,1.8975,1.871,1.8785,1.9081,1.8815,1.8913,1.9208,1.9342,1.9447,1.9525,1.9578,1.9803,2.0002,1.9703,1.9855,2.0159,2.0159,2.001,1.9886,2.0189,2.0063,1.9836,1.9811,2.0012,2.0189,1.9886,2.0012,0.0,0.0,1.9811,1.9811,1.9811,1.9811,1.9811,1.9811,1.9585,1.9685,2.0566,2.0691,2.1169,2.2493,2.2694,2.2594,2.2347,2.3271,2.4048,2.4381,2.5385,2.6172,2.6474,2.6499,2.6499,2.6499,2.6499,2.6625,2.6901,2.767,2.8247,2.8524,2.9377,2.9804,2.9804,3.0331,3.1461,3.3136,3.3345,3.4028,3.5056,3.455,3.4474,3.468,3.468,3.5203,3.5981,3.6304,3.6908,3.7487,3.6707,3.6885,3.7487,1.3332,1.3746,1.408,1.4113,0.0,0.0,0.0,1.7665,1.8507,1.8777,1.9244,1.9518,1.9518,1.9867,1.9998,1.9725,1.9591,1.9381,1.9074,1.9231,1.9206,1.9057,1.9314,1.9333,1.9087,1.9063,1.9042,1.8999,1.8999,1.8999,1.8999,1.8999,1.8999,1.9001,1.8879,1.8903,1.8951,1.8542,1.874,1.9354,1.9478,1.9405,1.9287,1.9648,1.9703,1.9629,1.9885,2.0365,2.0792,2.0288,2.074,2.1418,2.0993,2.1144,2.1393,2.0993,2.0842,2.0742,2.0263,2.049,2.0742,2.0238,2.049,2.0691,0.0,0.0,0.0,1.9836,1.9811,1.9811,1.9811,1.9736,1.9836,2.044,2.0541,2.0918,2.1995,2.2246,2.2322,2.2322,2.2869,2.3622,2.4582,2.5335,2.5996,2.6449,2.6499,2.6499,2.6499,2.6499,2.6751,2.7268,2.7821,2.8373,2.8888,2.9503,2.9804,2.9804,3.0884,3.1989,3.3162,3.4223,3.4981,3.5458,3.4906,3.4931,3.5307,3.4856,3.5303,3.6254,3.6355,3.7036,3.7864,3.6807,3.7061,3.7839,1.3809,1.4185,1.462,1.4897,0.0,0.0,0.0,0.0,1.7843,1.9141,1.9736,2.0042,2.0042,2.0085,2.026,2.0697,2.0188,1.999,2.036,1.9924,1.9631,1.9621,1.965,1.9564,1.9356,1.9333,1.9234,1.8999,1.8999,1.8999,1.8999,1.8999,1.8999,1.8975,1.8494,1.8542,1.8999,1.8927,1.9298,1.9967,2.0566,2.0226,1.9443,2.0122,2.0051,1.9679,2.0362,2.0943,2.1421,2.1317,2.1368,2.1468,2.1446,2.1443,2.1468,2.1446,2.1393,2.1368,2.1345,2.1343,2.1368,2.1317,2.1343,2.127,2.0717,0.0,2.044,1.9911,0.0,1.9811,1.9811,0.0,0.0,1.9811,1.9886,2.0288,2.1418,2.1995,2.2322,2.2322,2.3251,2.3954,2.4079,2.5493,2.6424,2.6474,2.6499,2.6499,2.6499,2.6499,2.6751,2.7268,2.7821,2.8373,2.8888,2.9503,2.9804,2.9804,3.0884,3.1989,3.3162,3.4223,3.4981,3.5458,3.4906,3.4705,3.4781,3.4751,3.5031,3.5633,3.6182,3.7036,3.7864,3.6807,3.7061,3.7839,1.4194,1.4424,1.4594,1.4738,0.0,0.0,0.0,0.0,1.9116,1.9716,1.9998,2.0107,2.0107,2.0402,2.0533,2.0445,2.0631,2.0715,2.0603,2.0756,2.0724,2.0421,2.057,2.0511,2.0103,2.0103,2.0064,1.9937,1.96,1.9456,1.9456,1.9456,1.9456,1.9483,1.9552,1.972,1.9937,2.002,2.0228,2.0615,2.1001,2.0912,2.0516,2.0929,2.0909,2.0734,2.1066,2.1493,2.192,2.1594,2.192,2.2368,2.2071,2.2196,2.2372,2.2071,2.197,2.1895,2.1568,2.1719,2.1895,2.1568,2.1719,2.182,2.1295,2.0918,2.0616,2.039,0.0,0.0,0.0,0.0,0.0,0.0,1.9811,2.0087,2.0918,2.1493,2.2071,2.2694,2.317,2.3722,2.4406,2.572,2.6499,2.6499,2.6499,2.6499,2.6499,2.6499,2.6901,2.7745,2.7971,2.8524,2.9428,2.9679,2.9955,3.0281,3.1687,3.2792,3.3596,3.5027,3.5805,3.5981,3.5102,3.5077,3.5629,3.4977,3.5228,3.6081,3.6634,3.7312,3.7864,3.6807,3.7061,3.7839,1.4676,1.4699,1.4751,1.4863,1.5927,0.0,0.0,1.9136,2.0107,2.0107,2.0107,2.0172,2.0282,2.0773,2.097,2.0718,2.1363,2.1599,2.1182,2.1614,2.169,2.1287,2.1499,2.1356,2.0832,2.0827,2.0754,2.0581,2.0201,2.0009,2.0009,2.0009,2.0009,2.0033,2.0273,2.0466,2.0668,2.0782,2.0998,2.1321,2.1638,2.1745,2.1777,2.1534,2.1641,2.192,2.1769,2.2071,2.2443,2.2071,2.2443,2.3045,2.2644,2.2794,2.302,2.2619,2.2518,2.2418,2.2046,2.2221,2.2447,2.2046,2.2246,2.2397,2.1845,2.1418,2.1094,2.0943,2.0564,0.0,0.0,0.0,2.0037,2.0037,0.0,2.0012,2.0616,2.1169,2.1845,2.2769,2.3145,2.3672,2.4506,2.5586,2.6248,2.6248,2.6399,2.6499,2.6499,2.6625,2.7153,2.8072,2.8247,2.88,2.9779,2.9804,3.008,3.0633,3.229,3.337,3.3947,3.5651,3.6329,3.6081,3.5127,3.5102,3.5676,3.5002,3.5203,3.6006,3.686,3.7513,3.7889,3.6935,3.7186,3.7839,1.529,1.5226,0.0,1.5776,1.6603,1.7653,1.9022,1.9737,2.0107,2.0107,2.0107,2.0282,2.0829,2.131,2.1756,2.2179,2.2559,2.2712,2.2571,2.2455,2.232,2.2166,2.2173,2.1909,2.138,2.138,2.1139,2.0581,2.0581,2.0557,2.0557,2.0557,2.0557,2.0562,2.0033,2.0189,2.0787,2.0787,2.1305,2.2114,2.2635,2.295,2.2915,2.1749,2.2027,2.297,2.2443,2.2619,2.307,2.3045,2.307,2.3095,2.307,2.3095,2.3095,2.307,2.307,2.307,2.3045,2.307,2.307,2.3045,2.307,2.292,2.2422,2.2272,2.2096,2.1568,2.1443,2.1443,2.1443,2.1018,2.0666,2.0666,2.0189,0.0,0.0,2.1169,2.1694,2.2272,2.3301,2.3979,2.4029,2.4983,2.5611,2.5611,2.6172,2.6499,2.6499,2.7002,2.7519,2.8097,2.8587,2.9176,2.9779,2.9804,3.008,3.0633,3.229,3.337,3.3947,3.5651,3.6081,3.5483,3.4931,3.4449,3.4022,3.4525,3.4751,3.4926,3.6558,3.7513,3.7939,3.7362,3.7513,3.7839,1.5864,1.6119,1.6216,1.5839,1.6863,1.8258,1.9789,2.0475,2.0979,2.1363,2.1419,2.1626,2.2229,2.301,2.3245,2.2719,2.3562,2.3792,2.3047,2.3205,2.3158,2.2727,2.2734,2.2462,2.1933,2.1933,2.1837,2.1668,2.1308,2.1139,2.1139,2.1139,2.1139,2.1139,2.1308,2.1566,2.1885,2.2005,2.2283,2.2635,2.2925,2.306,2.307,2.2635,2.2739,2.307,2.2895,2.2945,2.3095,2.3095,2.3095,2.3095,2.3095,2.3095,2.3095,2.3095,2.3095,2.3095,2.3095,2.3095,2.3095,2.3095,2.3095,2.3045,2.2869,2.2543,2.2272,2.2071,2.1744,2.1493,2.1493,2.137,2.1245,2.1245,2.1069,2.0991,0.0,2.1694,2.2246,2.2769,2.3527,2.4004,2.4004,2.4657,2.5234,2.5561,2.5787,2.6097,2.6474,2.7027,2.7544,2.8097,2.8612,2.9202,2.9779,2.9804,3.0256,3.1135,3.2441,3.3545,3.4474,3.578,3.6056,3.5458,3.4906,3.4625,3.4449,3.465,3.4881,3.5382,3.7086,3.7839,3.7939,3.7387,3.7538,3.7839,1.6491,1.6922,1.7174,1.6825,1.8082,1.9456,2.0448,2.1257,2.194,2.2513,2.275,2.3086,2.3638,2.4401,2.4634,2.3999,2.4655,2.4751,2.3837,2.3841,2.3709,2.328,2.3288,2.3047,2.2486,2.2462,2.239,2.2197,2.1861,2.1692,2.1692,2.1692,2.1692,2.1692,2.2053,2.2321,2.2512,2.2659,2.2787,2.3,2.3065,2.3095,2.3095,2.3095,2.3095,2.3095,2.3095,2.3095,2.3095,2.3095,2.3095,2.3095,2.3095,2.3095,2.3095,2.3095,2.3095,2.3145,2.3346,2.3271,2.3145,2.3371,2.3271,2.3095,2.3095,2.2819,2.2569,2.2569,2.2322,2.2071,2.2071,2.192,2.1769,0.0,0.0,2.1568,0.0,2.2096,2.2493,2.3045,2.3421,2.3678,2.3678,2.4205,2.4757,2.5285,2.5485,2.5837,2.6474,2.7203,2.7745,2.8097,2.885,2.9428,2.9804,2.998,3.0532,3.1411,3.2742,3.3847,3.4751,3.5855,3.5956,3.5182,3.4831,3.46,3.4449,3.465,3.5006,3.5658,3.7362,3.8015,3.7965,3.7613,3.7462,3.7337,1.7185,1.7667,1.8261,1.8752,2.0153,2.1115,2.1019,2.1981,2.2914,2.3525,2.3996,2.448,2.4987,2.5554,2.5831,2.5808,2.5816,2.5515,2.4895,2.439,2.402,2.3833,2.3842,2.3601,2.3071,2.2991,2.2727,2.2221,2.2197,2.2197,0.0,0.0,0.0,0.0,2.2197,2.2383,2.272,2.272,2.2848,2.3095,2.3095,2.3095,2.3095,2.3095,2.3095,2.3095,2.3095,2.3095,2.3095,2.3095,2.3095,2.312,2.3145,2.3145,2.3145,2.317,2.3195,2.3321,2.3879,2.3627,2.3321,2.3904,2.3597,2.3195,2.3195,2.3195,2.317,2.3145,2.3145,2.3145,2.312,2.2669,2.2347,0.0,0.0,2.1744,2.2272,2.2347,2.2518,2.3045,2.3095,2.3095,2.3095,2.3653,2.423,2.475,2.531,2.5837,2.6474,2.7494,2.8097,2.8097,2.9202,2.9804,2.9829,3.0357,3.0884,3.1461,3.3093,3.4198,3.4751,3.583,3.5755,3.4731,3.4655,3.4399,3.3972,3.45,3.5006,3.5658,3.7362,3.8015,3.8015,3.8015,3.7312,3.648,1.7706,1.9049,2.0197,2.0301,2.0705,2.1307,2.2324,2.2485,2.3075,2.4785,2.4488,2.4634,2.5906,2.6465,2.6613,2.6215,2.6774,2.679,2.5828,2.5637,2.517,2.4362,2.4314,2.4097,2.3625,2.3216,2.2919,2.2775,2.239,2.2197,2.2197,0.0,0.0,0.0,0.0,2.2383,2.272,2.272,2.2848,2.3095,2.3095,2.3095,2.3095,2.3095,2.3095,2.3095,2.3095,2.3095,2.3095,2.3095,2.3095,2.317,2.3653,2.3778,2.3853,2.4249,2.4349,2.4399,2.455,2.4474,2.4399,2.4582,2.4474,2.4349,2.4349,2.4349,2.4249,2.3853,2.3778,2.3653,2.317,2.2995,2.2895,2.2895,2.2769,2.2744,2.2869,2.2895,2.2945,2.3095,2.3095,2.3095,2.3095,2.3653,2.423,2.475,2.531,2.5837,2.6474,2.7494,2.8097,2.8097,2.9202,2.998,3.0407,3.0532,3.1085,3.2014,3.3294,3.4198,3.4705,3.5429,3.5558,3.5232,3.4474,3.4248,3.4525,3.463,3.5006,3.5658,3.7362,3.8015,3.8015,3.8015,3.7312,3.648,1.8169,1.9844,2.1157,2.1157,2.1442,2.1983,2.3048,2.3464,2.419,2.5585,2.5718,2.5978,2.6894,2.7199,2.7237,2.6952,2.6952,2.6743,2.6142,2.5877,2.5492,2.4891,2.4867,2.4626,2.4097,2.3625,2.324,2.3023,2.2462,2.2197,2.2197,0.0,0.0,0.0,0.0,2.2383,2.272,2.2818,2.2969,2.3095,2.3095,2.3095,0.0,2.3095,2.3095,2.3095,2.3095,2.3095,2.3095,2.3095,2.3095,2.3221,2.3828,2.4004,2.4104,2.4625,2.48,2.485,2.5109,2.4983,2.485,2.5109,2.4951,2.48,2.48,2.48,2.47,2.4431,2.4356,2.4255,2.3898,2.3647,2.3471,2.3471,2.3471,2.3572,2.3797,2.3847,2.3847,2.3847,2.3847,2.3747,2.3521,2.3803,2.423,2.475,2.531,2.5837,2.6474,2.7494,2.8097,2.8097,2.9202,3.0055,3.0608,3.0834,3.1386,3.224,3.3596,3.4424,3.4751,3.5257,3.5508,3.5433,3.4374,3.4198,3.468,3.468,3.5157,3.6034,3.7739,3.8241,3.8015,3.8015,3.7312,3.6531,1.8738,2.0302,2.1603,2.1603,2.2306,2.3018,2.349,2.4354,2.5266,2.6081,2.6846,2.7358,2.7474,2.7512,2.7512,2.7512,2.6719,2.6166,2.6093,2.5661,2.5372,2.53,2.53,2.5083,2.4592,2.4073,2.3577,2.3119,2.2486,2.2197,0.0,0.0,0.0,0.0,0.0,0.0,2.2751,2.3044,2.319,2.3221,2.3221,2.3271,2.3321,2.3246,2.3271,2.3321,2.3321,2.3221,2.3095,2.3095,2.3145,2.3321,2.3929,2.4155,2.433,2.4883,2.5034,2.5134,2.5586,2.5385,2.5134,2.5586,2.5385,2.5034,2.5034,2.5034,2.5008,2.4901,2.4901,2.4876,2.48,2.4431,2.4104,2.4104,2.4104,2.428,2.4725,2.48,2.48,2.48,2.48,0.0,2.4155,2.418,2.4381,2.475,2.5385,2.5996,2.6575,2.7544,2.8147,2.8222,2.9252,3.008,3.0708,3.116,3.1712,3.234,3.3947,3.468,3.4751,3.5257,3.5533,3.5533,3.4399,3.4299,3.4926,3.4776,3.5479,3.6759,3.8291,3.8517,3.8015,3.809,3.7412,3.6656,1.9814,2.1175,2.2141,2.207,2.3383,2.4311,2.4039,2.3554,2.4084,2.646,2.5892,2.5578,2.6308,2.6382,2.6382,2.6382,2.6585,2.6561,2.6117,2.6021,2.5757,2.5324,2.53,2.5276,2.518,2.4242,2.3746,2.3673,2.2654,2.2197,2.2197,2.2197,0.0,0.0,0.0,0.0,2.2903,2.3381,2.3673,2.3853,2.3853,2.413,2.4449,2.4029,2.413,2.4499,2.4499,2.3898,2.3095,2.3095,2.3421,2.3954,2.4506,2.4983,2.5435,2.6047,2.6197,2.6223,2.6323,2.6273,2.6223,2.6323,2.6273,2.6197,2.6197,2.6197,2.6072,2.5561,2.546,2.5335,2.4876,2.47,2.4682,2.4682,2.4682,2.4675,2.4775,2.48,2.48,2.48,2.48,2.475,2.465,2.5059,2.5184,2.4825,2.5737,2.6575,2.7153,2.7745,2.8323,2.8737,2.9453,3.0256,3.1235,3.1336,3.1913,3.2943,3.4148,3.468,3.4751,3.5257,3.578,3.6132,3.4575,3.4726,3.6053,3.5102,3.5906,3.7814,3.8567,3.8517,3.8065,3.8542,3.8015,3.7136,1.9992,2.1151,2.2105,2.2285,2.2993,2.3804,2.4453,2.3443,2.3432,2.5753,2.5372,2.5187,2.602,2.6093,2.6093,2.6093,2.6093,2.5973,2.5709,2.5685,2.5564,2.5324,2.53,2.53,2.53,2.429,2.3794,2.3794,2.2734,2.2197,2.2197,2.2197,2.2197,2.2228,0.0,2.2635,2.2837,2.3567,2.3885,2.4029,2.4305,2.4582,2.475,2.4531,2.4582,2.48,2.48,2.4449,2.3973,2.3973,2.4148,2.4531,2.5059,2.5385,2.5711,2.6323,2.6499,2.6499,2.6499,2.6499,2.6499,2.6499,2.6499,2.6499,2.6499,2.6499,2.6424,2.6147,2.6072,2.5896,2.5335,2.5234,2.5234,2.5234,2.5234,2.5335,2.5636,2.5661,2.5661,2.5661,2.5661,2.5561,2.5259,2.5711,2.5812,2.5259,2.6021,2.66,2.6876,2.7645,2.8222,2.8499,2.9352,3.0306,3.1386,3.1386,3.1964,3.3093,3.4198,3.468,3.4751,3.5257,3.5855,3.6329,3.4926,3.4776,3.5504,3.5554,3.6358,3.7688,3.8843,3.8768,3.8065,3.8668,3.8341,3.7688,2.0176,2.106,2.1904,2.2246,2.2427,2.3012,2.4414,2.3344,2.3154,2.5271,2.5051,2.5084,2.5996,2.5997,2.5925,2.5925,2.554,2.53,2.53,2.53,2.53,2.53,2.53,2.53,2.53,2.429,2.3794,2.3794,2.2734,2.2197,2.2197,2.2197,2.2228,2.2259,2.2659,2.2862,2.2948,2.3898,2.4299,2.4381,2.4808,2.5059,2.5159,2.5034,2.5059,2.5159,2.5159,2.5159,2.5159,2.5159,2.5084,2.5059,2.546,2.5686,2.5862,2.6373,2.6499,2.6499,2.6499,2.6499,2.6499,2.6499,2.6499,2.6499,2.6499,2.6499,2.6499,2.6499,2.6499,2.6348,2.5862,2.5787,2.5787,2.5787,2.5787,2.5971,2.6424,2.6499,2.6499,2.6499,2.6499,2.6323,2.5845,2.6223,2.6298,2.5812,2.6223,2.66,2.6826,2.7645,2.8222,2.8448,2.9327,3.0306,3.1386,3.1386,3.1964,3.3093,3.4198,3.468,3.4705,3.5382,3.5956,3.6355,3.5203,3.468,3.4826,3.6031,3.6908,3.7513,3.9094,3.8994,3.809,3.8793,3.8617,3.8115,2.0995,2.1465,2.1814,2.1905,2.2534,2.3081,2.3245,2.2855,2.3391,2.5984,2.5064,2.4653,2.5973,2.5661,2.5372,2.5372,2.5348,2.53,2.53,2.53,2.53,2.53,2.53,2.53,2.53,2.429,2.3794,2.3794,2.2734,2.2197,2.2197,2.2197,2.2259,2.2414,2.2931,2.334,2.3672,2.478,2.5361,2.546,2.5511,2.5837,2.6273,2.5711,2.5837,2.6348,2.6348,2.6348,2.6348,2.6348,2.5996,2.5536,2.5586,2.5996,2.6424,2.6474,2.6499,2.6499,2.6499,2.6499,2.6499,2.6499,2.6499,2.6499,2.6499,2.6499,2.6499,2.6499,2.6499,2.6474,2.6424,2.6424,2.6424,2.6424,2.6424,2.6424,2.6474,2.6499,2.6499,2.6499,2.6499,2.6474,2.6424,2.6474,2.6474,2.6424,2.6474,2.6927,2.7896,2.8047,2.8574,2.9603,2.9729,3.0306,3.1386,3.1386,3.1964,3.3093,3.4198,3.468,3.4751,3.5805,3.6355,3.6355,3.5203,3.468,3.4851,3.6433,3.7437,3.804,3.9245,3.8994,3.814,3.922,3.8944,3.8165,2.121,2.157,2.1949,2.219,2.254,2.2828,2.3046,2.2771,2.3173,2.5016,2.4233,2.409,2.5652,2.4912,2.448,2.5031,2.4787,2.4564,2.4564,2.5052,2.53,2.53,2.53,2.53,2.53,2.4602,2.4073,2.3794,2.3384,2.2999,2.2678,2.3023,2.32,2.3232,2.3547,2.3839,2.4114,2.4954,2.5444,2.5636,2.5963,2.6273,2.6474,2.6223,2.6298,2.6499,2.6499,2.6499,2.6499,2.6499,2.6348,2.6147,2.6147,2.6298,2.6499,2.6499,2.6499,2.6499,2.6499,2.6499,2.6499,2.6499,2.6499,2.6499,2.6499,2.6499,2.6499,2.6499,2.6499,2.6499,2.6499,2.6499,2.6499,2.6499,2.6499,2.6499,2.6499,2.6499,2.6499,2.6499,2.6499,2.6499,2.6499,2.6499,2.6625,2.6977,2.6675,2.6826,2.757,2.7921,2.8473,2.9252,2.993,3.0633,3.1386,3.1712,3.229,3.3136,3.3847,3.4399,3.4751,3.5529,3.5881,3.5855,3.5357,3.4981,3.4851,3.6508,3.7312,3.7663,3.912,3.922,3.8617,3.9396,3.9195,3.8642,2.16,2.1758,2.2051,2.2598,2.2598,2.2656,2.3042,2.2847,2.3008,2.3953,2.353,2.3699,2.5234,2.4437,2.4062,2.4814,2.4508,2.4342,2.4456,2.4981,2.53,2.53,2.53,2.53,2.53,2.476,2.4338,2.4035,2.3866,2.3625,2.324,2.3625,2.3794,2.3818,2.4129,2.4368,2.4558,2.5268,2.566,2.5887,2.6323,2.6499,2.6499,2.6499,2.6499,2.6499,2.6499,2.6499,2.6499,2.6499,2.6499,2.6499,2.6499,2.6499,2.6499,2.6499,2.6499,2.6499,2.6499,2.6499,2.6499,2.6499,2.6499,2.6499,2.6499,2.6499,2.6499,2.6499,2.6499,2.6499,2.6499,2.6499,2.6499,2.6499,2.6499,2.6499,2.6499,2.6499,2.6499,2.6499,2.6499,2.6549,2.6725,2.6725,2.6977,2.7469,2.7168,2.7193,2.7745,2.8147,2.8599,2.9176,2.9955,3.0708,3.1386,3.1788,3.234,3.3136,3.3646,3.4198,3.4751,3.5257,3.5408,3.5257,3.5082,3.4881,3.4851,3.6332,3.7136,3.7588,3.9094,3.9346,3.8944,3.9496,3.9346,3.8994,2.2422,2.2168,2.2148,2.2945,2.275,2.2656,2.3042,2.3081,2.3081,2.3101,2.3125,2.3596,2.4878,2.4501,2.4337,2.4785,2.4791,2.4918,2.5277,2.53,2.53,2.53,2.53,2.53,2.53,2.476,2.4496,2.4472,2.4035,2.3794,2.3794,2.3794,2.3794,2.3818,2.4493,2.4905,2.5124,2.5896,2.6292,2.6474,2.6499,2.6499,2.6499,2.6499,2.6499,2.6499,2.6499,2.6499,2.6499,2.6499,2.6499,2.6499,2.6499,2.6499,2.6499,2.6499,2.6499,2.6499,2.6499,2.6499,2.6499,2.6499,2.6499,2.6499,2.6499,2.6499,2.6499,2.6499,2.6499,2.6499,2.6499,2.6499,2.6499,2.6499,2.6499,2.6499,2.6499,2.6499,2.6499,2.6499,2.6499,2.67,2.7253,2.7268,2.7494,2.8047,2.8097,2.8323,2.8838,2.8888,2.9176,2.9754,2.9804,3.0306,3.1386,3.1411,3.1964,3.3136,3.3646,3.4198,3.4751,3.5257,3.5207,3.4655,3.4148,3.4223,3.4801,3.5952,3.701,3.8115,3.9245,3.9346,3.8944,3.9496,3.9346,3.8994,2.2539,2.2637,2.2789,2.3042,2.2984,2.2945,2.3081,2.3101,2.3101,2.3101,2.3101,2.326,2.3662,2.3301,2.333,2.406,2.4355,2.4425,2.4176,2.5211,2.5685,2.5324,2.53,2.53,2.53,2.5131,2.4891,2.4496,2.4723,2.4819,2.4819,2.4819,2.4819,2.4819,2.5057,2.5328,2.5664,2.5906,2.6188,2.6499,2.6499,2.6499,2.6499,2.6499,2.6499,2.6499,2.6499,2.6499,2.6499,2.6499,2.6499,2.6499,2.6499,2.6499,2.6499,2.6499,2.6499,2.6499,2.6499,2.6499,2.6499,2.6499,2.6499,2.6499,2.6499,2.6776,2.7153,2.7494,2.757,2.757,2.757,2.757,2.757,2.757,2.757,2.7444,2.7102,2.7052,2.7052,2.7052,2.7052,2.7278,2.7795,2.7846,2.8072,2.8624,2.8674,2.8712,2.8888,2.8888,2.9202,2.9779,3.0507,3.1035,3.1386,3.2164,3.2717,3.3111,3.3244,3.3822,3.4751,3.5257,3.5207,3.468,3.4525,3.455,3.4801,3.5952,3.701,3.809,3.8843,3.9245,3.9446,3.9622,3.9572,3.9446,2.275,2.2906,2.3101,2.3101,2.3101,2.3101,2.3101,2.3101,2.3101,2.3101,2.3101,2.3101,2.3101,2.2867,2.3018,2.3701,2.4007,2.4068,2.3846,2.4943,2.5452,2.5145,2.5242,2.53,2.53,2.53,2.5155,2.4784,2.5155,2.53,2.53,2.53,2.53,2.53,2.53,2.55,2.5805,2.5875,2.6084,2.6396,2.6465,2.6499,2.6499,2.6499,2.6499,2.6499,2.6499,2.6499,2.6499,2.6499,2.6499,2.6499,2.6499,2.6499,2.6499,2.6499,2.6499,2.6499,2.6499,2.6499,2.6499,2.6499,2.6499,2.6549,2.6751,2.7228,2.7695,2.8021,2.7946,2.7871,2.8072,2.7946,2.7871,2.8072,2.8097,2.7921,2.7404,2.7469,2.7519,2.7293,2.7469,2.7821,2.8373,2.8423,2.8649,2.9227,2.9252,2.9252,2.9252,2.9252,2.9428,2.9779,3.0658,3.1185,3.1386,3.229,3.2867,3.3111,3.3294,3.3746,3.4424,3.4731,3.4751,3.4399,3.4399,3.4525,3.4801,3.5952,3.6885,3.7789,3.8567,3.9069,3.9396,3.9622,3.9697,3.9697,2.3101,2.3101,2.3101,2.3101,2.3101,2.3101,2.3101,2.3101,2.3101,2.3101,2.3101,2.3101,2.3101,2.3101,2.3229,2.3616,2.37,2.3866,2.4126,2.4579,2.4814,2.4746,2.5074,2.53,2.53,2.53,2.53,2.53,2.53,2.53,2.53,2.53,2.53,2.53,2.53,2.543,2.5606,2.5805,2.6015,2.6213,2.643,2.6499,2.6499,2.6499,2.6499,2.6499,2.6499,2.6499,2.6499,2.6499,2.6499,2.6499,2.6499,2.6499,2.6499,2.6499,2.6499,2.6499,2.6499,2.6499,2.6499,2.6499,2.6524,2.67,2.7218,2.777,2.8172,2.8222,2.7821,2.762,2.8122,2.777,2.757,2.8122,2.8197,2.7971,2.7469,2.7846,2.7971,2.7444,2.7846,2.8373,2.8888,2.8938,2.9227,2.9754,2.9804,2.9804,2.9804,2.9804,2.9804,2.9854,3.0382,3.0909,3.1436,3.1989,3.2541,3.3136,3.3646,3.3897,3.3897,3.3897,3.3922,3.3947,3.3922,3.4248,3.4851,3.5881,3.6707,3.7287,3.8391,3.8894,3.8944,3.9496,3.9697,3.9697,2.3101,2.3101,2.3101,2.3101,2.3101,2.3101,2.3101,2.3101,2.3101,2.3101,2.3101,2.3101,2.3101,2.3101,2.3149,2.3248,2.3917,2.4033,2.3407,2.4664,2.5066,2.4301,2.4921,2.53,2.53,2.53,2.53,2.53,2.53,2.53,2.53,2.53,2.53,2.53,2.53,2.543,2.5606,2.5805,2.6015,2.6213,2.643,2.6499,2.6499,2.6499,2.6499,2.6499,2.6499,2.6499,2.6499,2.6499,2.6499,2.6499,2.6499,2.6499,2.6499,2.6499,2.6499,2.6499,2.6499,2.6499,2.6499,2.6499,2.6801,2.7243,2.7795,2.8348,2.8813,2.9302,2.9302,2.9252,2.9377,2.8925,2.8725,2.9302,2.9026,2.8662,2.8549,2.8612,2.8637,2.8549,2.8612,2.8913,2.9528,2.9578,2.9654,2.9779,2.9804,2.9804,2.9804,2.9804,2.998,3.0407,3.0934,3.1461,3.2014,3.2591,3.2943,3.3136,3.3646,3.3897,3.3897,3.3897,3.4123,3.45,3.4073,3.4449,3.5332,3.5583,3.6307,3.7262,3.7939,3.8492,3.8944,3.9496,3.9697,3.9697,2.3101,2.3101,2.3101,2.3101,2.3101,2.3101,2.3101,2.3101,2.3101,2.3101,2.3101,2.3101,2.3101,2.3101,2.3101,2.3101,2.3381,2.336,2.2855,2.366,2.3892,2.3345,2.4246,2.4743,2.4743,2.5123,2.53,2.53,2.53,2.53,2.53,2.53,2.53,2.53,2.53,2.5335,2.55,2.5676,2.5875,2.6084,2.6258,2.643,2.6499,2.6499,2.6499,2.6499,2.6499,2.6499,2.6499,2.6499,2.6499,2.6499,2.6499,2.6499,2.6499,2.6499,2.6499,2.6499,2.6499,2.6499,2.6549,2.6801,2.7444,2.8122,2.8423,2.8888,2.9402,2.9729,2.9578,2.9478,2.9754,2.9327,2.8988,2.9352,2.9088,2.8787,2.8562,2.8737,2.8888,2.8888,2.9113,2.9453,2.9754,2.9804,2.9804,2.9804,2.9804,2.9804,2.9804,2.9804,2.993,3.0231,3.0984,3.1537,3.1838,3.2667,3.3111,3.3111,3.3395,3.352,3.352,3.352,3.3696,3.3972,3.4198,3.4625,3.5157,3.5705,3.6282,3.6908,3.7412,3.7965,3.8542,3.912,3.9471,3.9697,2.3101,2.3101,2.3101,2.3101,2.3101,2.3101,2.3101,2.3101,2.3101,2.3101,2.3101,2.3101,2.3101,2.3101,2.3101,2.3101,2.2711,2.248,2.2422,2.2393,2.236,2.2317,2.3341,2.4,2.4108,2.4886,2.53,2.53,2.53,2.53,2.53,2.53,2.53,2.53,2.53,2.53,2.53,2.55,2.5711,2.591,2.6119,2.6327,2.6499,2.6499,2.6499,2.6499,2.6499,2.6499,2.6499,2.6499,2.6499,2.6499,2.6499,2.6499,2.6499,2.6499,2.6549,2.66,2.6524,2.6549,2.6725,2.7203,2.8122,2.8888,2.8888,2.9377,2.9804,2.9804,2.9402,2.9202,2.9704,2.9327,2.8888,2.8888,2.8888,2.8737,2.8298,2.8662,2.9013,2.9013,2.9503,2.9804,2.9804,2.9804,2.9804,2.9804,2.9804,2.9804,2.9804,2.9804,2.9829,2.9905,3.0884,3.1461,3.1637,3.2634,3.3111,3.3111,3.3111,3.3111,3.3111,3.3111,3.3119,3.3269,3.4274,3.4731,3.4881,3.5931,3.6405,3.6455,3.696,3.7513,3.8065,3.8668,3.922,3.9697,2.3101,2.3101,2.3101,2.3101,2.3101,2.3101,2.3101,2.3101,2.3101,2.3101,2.3101,2.3101,2.3101,2.3101,2.3101,2.3101,2.2711,2.2363,2.2012,2.2251,2.2255,2.1939,2.2718,2.3452,2.4072,2.4886,2.53,2.53,2.53,2.53,2.53,2.53,2.53,2.53,2.53,2.53,2.53,2.55,2.5711,2.591,2.6119,2.6327,2.6499,2.6499,2.6499,2.6499,2.6499,2.6499,2.6499,2.6499,2.6499,2.6499,2.6499,2.6499,2.6499,2.6499,2.6826,2.7077,2.6625,2.6826,2.7203,2.7304,2.8122,2.8888,2.8888,2.9377,2.9804,2.9804,2.9729,2.9679,2.9779,2.9327,2.8888,2.8888,2.8888,2.8863,2.8787,2.9302,2.9654,2.9654,2.9729,2.9804,2.9804,2.9804,2.9804,2.9804,2.9804,2.9804,2.9804,2.9804,3.0005,3.0482,3.1085,3.1838,3.286,3.2993,3.3111,3.3111,3.3111,3.3111,3.3111,3.3111,3.3345,3.3796,3.4449,3.4931,3.5433,3.6107,3.6405,3.6455,3.696,3.7513,3.8065,3.8668,3.922,3.9697,2.3101,2.3101,2.3101,2.3101,2.3101,2.3101,2.3101,2.3101,2.3101,2.3101,2.3101,2.3101,2.3101,2.3101,2.3101,2.3101,2.2711,2.2441,2.2227,2.1907,2.1569,2.1185,2.1907,2.2734,2.3489,2.4276,2.4636,2.4636,2.5087,2.53,2.53,2.53,2.53,2.53,2.53,2.53,2.5324,2.5394,2.5535,2.577,2.5945,2.6154,2.6327,2.6465,2.6499,2.6499,2.6499,2.6499,2.6499,2.6499,2.6499,2.6499,2.6499,2.6499,2.6499,2.6499,2.6876,2.7329,2.7344,2.7745,2.8172,2.8172,2.8775,2.9402,2.9402,2.9603,2.9804,2.9804,2.9804,2.9804,2.9804,2.9578,2.9302,2.8938,2.8888,2.8888,2.8888,2.9113,2.9453,2.9754,2.9804,2.9804,2.9804,2.9804,2.9804,2.9804,2.9804,2.9804,2.9804,3.008,3.0482,3.1009,3.1562,3.224,3.3111,3.3111,3.3111,3.3111,3.3111,3.3111,3.3111,3.3111,3.337,3.3922,3.4474,3.4981,3.5533,3.6132,3.6405,3.643,3.6681,3.7262,3.804,3.8316,3.8944,3.9697,2.3101,2.3101,2.3101,2.3101,2.3101,2.3101,2.3101,2.3101,2.3101,2.3101,2.3101,2.3101,2.3101,2.3101,2.3101,2.3101,2.2808,2.2617,2.2519,2.1853,2.1328,2.0938,2.158,2.2164,2.2697,2.3452,2.3927,2.4108,2.4707,2.5123,2.53,2.53,2.53,2.53,2.53,2.53,2.53,2.53,2.543,2.5606,2.577,2.598,2.6213,2.6361,2.6465,2.6499,2.6499,2.6499,2.6499,2.6499,2.6499,2.6524,2.665,2.6675,2.67,2.6851,2.7243,2.772,2.8021,2.8499,2.8888,2.8888,2.9352,2.9804,2.9804,2.9804,2.9804,2.9804,2.9804,2.9804,2.9804,2.9804,2.9603,2.8988,2.9013,2.9038,2.8913,2.9013,2.9302,2.9729,2.9804,2.9804,2.9804,2.9804,2.9804,2.9804,2.9804,2.9804,2.9804,3.0206,3.0733,3.1361,3.2064,3.2616,3.3111,3.3111,3.3111,3.3111,3.3111,3.3111,3.3111,3.3111,3.337,3.3922,3.4474,3.5118,3.5902,3.6272,3.6546,3.6687,3.6499,3.7008,3.7839,3.7965,3.8642,3.9521,2.3101,2.3101,2.3101,2.3101,2.3101,2.3101,2.3101,2.3101,2.3101,2.3101,2.3101,2.3101,2.3101,2.3101,2.3101,2.3101,2.3062,2.2886,2.2539,2.2461,2.2227,2.1797,2.2169,2.2211,2.189,2.266,2.3438,2.4108,2.4145,2.4564,2.53,2.53,2.53,2.53,2.53,2.53,2.53,2.53,2.543,2.5606,2.5606,2.584,2.6213,2.6213,2.6327,2.6499,2.6499,2.6499,2.6499,2.6499,2.6499,2.6575,2.7102,2.7218,2.7318,2.7846,2.8373,2.8662,2.8222,2.8499,2.8888,2.8888,2.9352,2.9804,2.9804,2.9804,2.9804,2.9804,2.9804,2.9804,2.9804,2.9804,2.9603,2.8988,2.9377,2.9553,2.8963,2.9377,2.9754,2.9779,2.9804,2.9804,2.9804,2.9804,2.9804,2.9804,2.9804,2.9804,2.9804,2.9829,3.0331,3.1361,3.2441,3.3086,3.3111,3.3111,3.3111,3.3111,3.3111,3.3111,3.3111,3.3111,3.337,3.3922,3.4474,3.55,3.6876,3.6553,3.6896,3.7638,3.6734,3.6782,3.7312,3.7814,3.8391,3.9045,2.3101,2.3101,2.3101,2.3101,2.3101,2.3101,2.3101,2.3101,2.3101,2.3101,2.3101,2.3101,2.3101,2.3101,2.3101,2.3101,2.3101,2.3023,2.2867,2.2847,2.2438,2.1523,2.159,2.149,2.1069,2.1832,2.2397,2.2675,2.3635,2.4276,2.4564,2.4564,2.4814,2.5264,2.4779,2.4814,2.53,2.53,2.5335,2.543,2.5535,2.5676,2.5875,2.6109,2.6248,2.6327,2.6465,2.6499,2.6499,2.6499,2.6725,2.7027,2.7253,2.7519,2.7896,2.8448,2.8737,2.8938,2.9126,2.9302,2.9478,2.9478,2.9628,2.9804,2.9804,2.9804,2.9804,2.9804,2.9804,2.9804,2.9804,2.9804,2.9729,2.9503,2.9654,2.9704,2.9503,2.9654,2.9804,2.9804,2.9804,2.9804,2.9804,2.9804,2.9804,2.9804,2.9804,2.9804,2.9804,3.0432,3.1286,3.239,3.2842,3.3368,3.3894,3.3368,3.3641,3.4635,3.4121,3.3894,3.3894,3.3894,3.4384,3.5303,3.5466,3.6308,3.7553,3.7964,3.7658,3.6943,3.7176,3.7253,3.7236,3.7789,3.8366,3.8994,2.3101,2.3101,2.3101,2.3101,2.3057,2.3013,2.3013,2.3013,2.2969,2.2882,2.3013,2.3101,2.3013,2.3057,2.3101,2.3101,2.3101,2.3101,2.3101,2.3101,2.2652,2.1639,2.16,2.1426,2.1036,2.1548,2.1978,2.219,2.3129,2.3698,2.3957,2.3835,2.4059,2.4528,2.4022,2.4059,2.46,2.4814,2.4921,2.4945,2.5087,2.53,2.5606,2.5641,2.5875,2.6238,2.6561,2.6716,2.6776,2.6952,2.7253,2.757,2.7745,2.8172,2.8725,2.9076,2.9202,2.9277,2.9679,2.9804,2.9804,2.9804,2.9804,2.9804,2.9804,2.9804,2.9804,2.9804,2.9804,2.9804,2.9804,2.9804,2.9804,2.9804,2.9804,2.9804,2.9804,2.9804,2.9804,2.9804,2.9804,2.9804,2.9804,2.9804,2.9804,2.9804,2.9804,2.9854,3.003,3.0909,3.1838,3.2767,3.2993,3.3539,3.4397,3.3539,3.3683,3.4815,3.4246,3.4147,3.4397,3.4397,3.4999,3.6044,3.6044,3.6901,3.8251,3.827,3.7906,3.7289,3.7361,3.7173,3.701,3.7739,3.8266,3.8693,2.3101,2.3101,2.3101,2.3101,2.2925,2.2794,2.2794,2.2794,2.2706,2.2441,2.2794,2.3013,2.2794,2.2969,2.3101,2.3101,2.3101,2.3101,2.3101,2.3101,2.2906,2.2539,2.2519,2.2305,2.1894,2.1894,2.2287,2.3082,2.2628,2.2811,2.3563,2.3198,2.2995,2.2995,2.2995,2.2995,2.3069,2.3804,2.4072,2.4072,2.4072,2.4671,2.55,2.4707,2.5123,2.6253,2.6785,2.7126,2.7369,2.7921,2.8122,2.8197,2.8737,2.9327,2.9804,2.9804,2.9804,2.9804,2.9804,2.9804,2.9804,2.9804,2.9804,2.9804,2.9804,2.9804,2.9804,2.9804,2.9804,2.9804,2.9804,2.9804,2.9804,2.9804,2.9804,2.9804,2.9804,2.9804,2.9804,2.9804,2.9804,2.9804,2.9804,2.9804,2.9804,2.9804,2.9804,3.003,3.0583,3.111,3.1637,3.2215,3.2767,3.3539,3.4397,3.3539,3.3111,3.3111,3.3111,3.3581,3.4397,3.4397,3.4999,3.6027,3.6027,3.7228,3.9077,3.7196,3.752,3.8988,3.715,3.6405,3.6531,3.7588,3.799,3.8165,2.3101,2.3101,2.3057,2.2925,2.2838,2.275,2.253,2.253,2.2485,2.2397,2.253,2.2574,2.253,2.2574,2.2618,2.2618,2.2618,2.2706,2.2882,2.2706,2.2692,2.2906,2.2676,2.2305,2.1894,2.1894,2.1999,2.2246,2.2656,2.287,2.2772,2.2625,2.2871,2.3406,2.2832,2.2909,2.3444,2.3671,2.3601,2.3327,2.3327,2.3676,2.419,2.4078,2.4454,2.5074,2.5515,2.6137,2.6782,2.7076,2.7841,2.8737,2.9352,2.9654,2.9804,2.9804,2.9804,2.9804,2.9804,2.9804,2.9804,2.9804,2.9804,2.9804,2.9804,2.9804,2.9804,2.9804,2.9804,2.9804,2.9804,2.9804,2.9804,2.9804,2.9804,2.9804,2.9804,2.9804,2.9804,2.9804,2.9804,2.9804,2.9804,2.9804,2.9804,2.9804,2.9804,3.0206,3.111,3.1311,3.1838,3.2792,3.2993,3.324,3.3496,3.381,3.4579,3.5776,3.5169,3.4979,3.5224,3.5224,3.5909,3.7165,3.7783,3.8468,3.9254,4.0071,3.9149,3.7289,3.8043,3.7566,3.6505,3.7161,3.7437,3.7588,2.2838,2.2838,2.2794,2.2662,2.2574,2.2441,2.2309,2.2264,2.222,2.2132,2.2264,2.2353,2.2309,2.2353,2.2397,2.2397,2.2397,2.2485,2.2618,2.2485,2.253,2.2794,2.2587,2.2422,2.2383,2.2383,2.2383,2.2383,2.2689,2.2716,2.2453,2.2271,2.2471,2.2887,2.2431,2.2471,2.2927,2.3281,2.3268,2.305,2.305,2.3354,2.3824,2.3651,2.3959,2.4613,2.5441,2.6155,2.6804,2.7569,2.8458,2.9327,2.9679,2.9804,2.9804,2.9804,2.9804,2.9804,2.9804,2.9804,2.9804,2.9804,2.9804,2.9804,2.9804,2.9804,2.9804,2.9804,2.9804,2.9804,2.9804,2.9804,2.9804,2.9804,2.9804,2.9804,2.9804,2.9804,2.9804,2.9804,2.9804,2.9804,2.9804,2.9804,2.9804,2.9804,2.9804,3.0181,3.1035,3.1286,3.1788,3.2717,3.3327,3.3624,3.3624,3.4786,3.5372,3.5413,3.521,3.5264,3.5628,3.5628,3.628,3.7531,3.8076,3.8638,3.9299,4.046,3.9563,3.7566,3.836,3.775,3.648,3.6985,3.7186,3.7337,2.2441,2.2397,2.2397,2.2397,2.222,2.2087,2.2061,2.2061,2.1972,2.1731,2.2087,2.2264,2.2087,2.222,2.2353,2.2353,2.2353,2.2353,2.2353,2.2353,2.2353,2.2397,2.2397,2.2574,2.3057,2.3057,2.3057,2.3057,2.2711,2.2516,2.25,2.2129,2.1934,2.1934,2.1934,2.1934,2.1975,2.2737,2.3042,2.3001,2.3001,2.3405,2.3988,2.3286,2.3608,2.453,2.591,2.6569,2.7034,2.8675,2.9482,2.974,2.974,2.974,2.974,2.9779,2.9804,2.9804,2.9804,2.9804,2.9804,2.9804,2.9804,2.9804,2.9804,2.9804,2.9804,2.9804,2.9804,2.9804,2.9804,2.9804,2.9804,2.9804,2.9804,2.9804,2.9804,2.9804,2.9804,2.9804,2.9804,2.9804,2.9804,2.9804,2.9804,2.9804,2.9804,3.0055,3.0658,3.1135,3.1662,3.2265,3.3569,3.4272,3.4272,3.5856,3.5575,3.3428,3.423,3.5006,3.5709,3.5709,3.6293,3.7365,3.7491,3.8215,3.9261,3.9261,3.9244,3.9121,3.816,3.7268,3.655,3.6983,3.7111,3.7262,2.2397,2.2397,2.2353,2.2176,2.215,2.2017,2.182,2.1776,2.1776,2.1687,2.1776,2.182,2.1776,2.182,2.1865,2.1865,2.1865,2.1954,2.2132,2.1954,2.1998,2.2397,2.2264,2.2264,2.2574,2.2574,2.2662,2.2882,2.2804,2.2659,2.2519,2.2422,2.2383,2.2383,2.2383,2.2383,2.2383,2.2532,2.246,2.2164,2.2164,2.2444,2.2868,2.27,2.2941,2.3496,2.4024,2.4661,2.5561,2.7498,2.8633,2.9287,2.9443,2.9482,2.9521,2.974,2.9804,2.9804,2.9804,2.9804,2.9804,2.9804,2.9804,2.9804,2.9804,2.9804,2.9804,2.9804,2.9804,2.9804,2.9804,2.9804,2.9804,2.9804,2.9804,2.9804,2.9804,2.9804,2.9804,2.9804,2.9804,2.9804,2.9804,2.9804,2.9804,2.9804,2.9804,3.0206,3.116,3.1336,3.1838,3.2867,3.3232,3.3368,3.3368,3.4413,3.5291,3.6096,3.6255,3.6452,3.661,3.661,3.7067,3.7805,3.8513,3.913,3.9591,3.9591,3.9455,3.9121,3.816,3.7684,3.7407,3.6814,3.6581,3.6757,2.2087,2.2087,2.2043,2.1909,2.1928,2.1865,2.1731,2.1687,2.1687,2.1687,2.1687,2.1687,2.1687,2.1687,2.1687,2.1687,2.1687,2.1776,2.1909,2.1776,2.182,2.2043,2.1954,2.1954,2.2043,2.2087,2.2264,2.2618,2.2618,2.2635,2.264,2.264,2.2683,2.2812,2.2812,2.2812,2.2812,2.2812,2.2633,2.248,2.248,2.2617,2.2812,2.2812,2.2906,2.3188,2.3777,2.4893,2.6254,2.7302,2.8291,2.9131,2.9248,2.9302,2.9419,2.956,2.9702,2.9804,2.9804,2.9804,2.9804,2.9804,2.9804,2.9804,2.9804,2.9804,2.9804,2.9804,2.9804,2.9804,2.9804,2.9804,2.9804,2.9804,2.9804,2.9804,2.9804,2.9804,2.9804,2.9804,2.9804,2.974,2.9599,2.9599,2.9599,2.9599,2.9599,3.0013,3.0984,3.1009,3.1537,3.2641,3.3064,3.3402,3.3725,3.4538,3.5615,3.6883,3.6883,3.6688,3.6267,3.6688,3.7023,3.7287,3.8195,3.8984,3.9732,4.019,3.99,3.921,3.9166,3.8315,3.7129,3.7083,3.6934,3.6933,2.1731,2.1687,2.1687,2.1687,2.1687,2.1687,2.1687,2.1687,2.1687,2.1687,2.1687,2.1687,2.1687,2.1687,2.1687,2.1687,2.1687,2.1687,2.1687,2.1687,2.1687,2.1687,2.1687,2.1687,2.1687,2.1687,2.1909,2.2353,2.2353,2.2485,2.2706,2.2794,2.2882,2.3057,2.3101,2.3101,2.3101,2.3101,2.3101,2.3101,2.3101,2.3101,2.3101,2.3101,2.3101,2.3212,2.3993,2.5442,2.7017,2.7139,2.7891,2.8816,2.9013,2.9145,2.9302,2.938,2.956,2.974,2.9804,2.9804,2.9804,2.9804,2.9804,2.9804,2.9804,2.9804,2.9804,2.9804,2.9804,2.9804,2.9804,2.9804,2.9804,2.9804,2.9804,2.9804,2.9804,2.9804,2.9804,2.9804,2.9804,2.9702,2.9482,2.9457,2.9457,2.9419,2.9419,2.9785,3.0503,3.0668,3.121,3.219,3.2998,3.3695,3.4189,3.5006,3.5749,3.6452,3.661,3.6464,3.6068,3.6649,3.6849,3.6838,3.7601,3.8597,3.9671,4.0359,4.0222,3.953,3.9944,3.8872,3.715,3.7612,3.7484,3.7111,2.1687,2.1687,2.1687,2.1687,2.1687,2.1687,2.1687,2.1687,2.1687,2.1687,2.1687,2.1687,2.1687,2.1687,2.1687,2.1687,2.1687,2.1687,2.1687,2.1687,2.1687,2.1687,2.1687,2.1687,2.1687,2.1687,2.182,2.2132,2.2132,2.2264,2.2441,2.2706,2.2794,2.2838,2.3013,2.3101,2.3101,2.3101,2.3101,2.3101,2.3101,2.3101,2.3101,2.3101,2.3101,2.3144,2.3232,2.3993,2.5041,2.5777,2.667,2.7632,2.8554,2.887,2.8949,2.9302,2.9419,2.9521,2.974,2.9804,2.9804,2.9804,2.9804,2.9804,2.9804,2.9804,2.9804,2.9804,2.9804,2.9804,2.9804,2.9804,2.9804,2.9804,2.9804,2.9804,2.9804,2.9804,2.9804,2.9804,2.9804,2.9804,2.974,2.974,2.9663,2.9419,2.9599,2.9913,3.0318,3.0954,3.1562,3.219,3.2819,3.3207,3.3283,3.4147,3.462,3.4744,3.5427,3.6503,3.7834,3.7183,3.7289,3.7978,3.8092,3.8601,3.9246,3.9098,3.9735,4.0678,3.8888,3.8944,3.9842,3.836,3.7273,3.6606,2.1687,2.1687,2.1687,2.1687,2.1687,2.1687,2.1687,2.1687,2.1687,2.1687,2.1687,2.1687,2.1687,2.1687,2.1687,2.1687,2.1687,2.1687,2.1687,2.1687,2.1687,2.1687,2.1687,2.1687,2.1687,2.1687,2.1776,2.1865,2.1865,2.1998,2.222,2.2485,2.2662,2.2794,2.3013,2.3101,2.3101,2.3101,2.3101,2.3101,2.3101,2.3101,2.3101,2.3101,2.3101,2.3101,2.3101,2.3691,2.4616,2.5484,2.6423,2.7389,2.8339,2.8736,2.8831,2.9028,2.9145,2.9287,2.939,2.9482,2.956,2.956,2.9702,2.9804,2.9804,2.9804,2.9804,2.9804,3.003,3.0256,3.0256,3.0256,3.0256,3.0256,3.0005,2.9804,2.9804,2.9804,2.9804,2.9804,2.9663,2.956,2.956,2.9482,2.9404,2.9419,2.9404,2.9653,3.0278,3.0608,3.1173,3.2022,3.2381,3.2742,3.3111,3.3496,3.3894,3.4397,3.4288,3.5102,3.6738,3.6844,3.7106,3.7491,3.7491,3.8131,3.917,3.8916,3.9101,3.9592,4.0022,4.0071,3.9579,3.7704,3.6781,3.648]}]]